[[{"header":{"parameterUnit":"m.s-1","parameterCategory":1,"la1":30.6,"la2":28.766,"lo1":-90.7593,"lo2":-88.6598,"dy":0.0162,"dx":0.0183,"nx":116,"ny":114,"refTime":"2023-04-13T00:00:00:Z","depth":0,"parameterNumber":2,"parameterNumberName":"U-component_of_WINDS"},"data":[0.0,0.0,0.0,0.0,0.0,0.0,0.0,0.0,0.0,0.0,0.0,0.0,0.0,0.0,0.0,0.0,0.0,0.0,0.0,0.0,0.0,0.0,0.0,0.0,0.0,0.0,0.0,0.0,0.0,0.0,0.0,0.0,0.0,0.0,0.0,0.0,0.0,0.0,0.0,0.0,0.0,0.0,0.0,0.0,0.0,0.0,0.0,0.0,0.0,0.0,0.0,0.0,0.0,0.0,0.0,0.0,0.0,0.0,0.0,0.0,0.0,0.0,0.0,0.0,0.0,0.0,0.0,0.0,0.0,0.0,0.0,0.0,0.0,0.0,0.0,0.0,0.0,0.0,0.0,0.0,0.0,0.0,0.0,0.0,0.0,0.0,0.0,0.0,0.0,0.0,0.0,0.0,0.0,0.0,0.0,0.0,0.0,0.0,0.0,0.0,0.0,0.0,0.0,0.0,0.0,0.0,0.0,0.0,0.0,0.0,0.0,0.0,0.0,0.0,0.0,0.0,0.0,0.0,0.0,0.0,0.0,0.0,0.0,0.0,0.0,0.0,0.0,0.0,0.0,0.0,0.0,0.0,0.0,0.0,0.0,0.0,0.0,0.0,0.0,0.0,0.0,0.0,0.0,0.0,0.0,0.0,0.0,0.0,0.0,0.0,0.0,0.0,0.0,0.0,0.0,0.0,0.0,0.0,0.0,0.0,0.0,0.0,0.0,0.0,0.0,0.0,0.0,0.0,0.0,0.0,0.0,0.0,0.0,0.0,0.0,0.0,0.0,0.0,0.0,0.0,0.0,0.0,0.0,0.0,0.0,0.0,0.0,0.0,0.0,0.0,0.0,0.0,0.0,0.0,0.0,0.0,0.0,0.0,0.0,0.0,0.0,0.0,0.0,0.0,0.0,0.0,0.0,0.0,0.0,0.0,0.0,0.0,0.0,0.0,0.0,0.0,0.0,0.0,0.0,0.0,0.0,0.0,0.0,0.0,0.0,0.0,0.0,0.0,0.0,0.0,0.0,0.0,0.0,0.0,0.0,0.0,0.0,0.0,0.0,0.0,0.0,0.0,0.0,0.0,0.0,0.0,0.0,0.0,0.0,0.0,0.0,0.0,0.0,0.0,0.0,0.0,0.0,0.0,0.0,0.0,0.0,0.0,0.0,0.0,0.0,0.0,0.0,0.0,0.0,0.0,0.0,0.0,0.0,0.0,0.0,0.0,0.0,0.0,0.0,0.0,0.0,0.0,0.0,0.0,0.0,0.0,0.0,0.0,0.0,0.0,0.0,0.0,0.0,0.0,0.0,0.0,0.0,0.0,0.0,0.0,0.0,0.0,0.0,0.0,0.0,0.0,0.0,0.0,0.0,0.0,0.0,0.0,0.0,0.0,0.0,0.0,0.0,0.0,0.0,0.0,0.0,0.0,0.0,0.0,0.0,0.0,0.0,0.0,0.0,0.0,0.0,0.0,0.0,0.0,0.0,0.0,0.0,0.0,0.0,0.0,0.0,0.0,0.0,0.0,0.0,0.0,0.0,0.0,0.0,0.0,0.0,0.0,0.0,0.0,0.0,0.0,0.0,0.0,0.0,0.0,0.0,0.0,0.0,0.0,0.0,0.0,0.0,0.0,0.0,0.0,0.0,0.0,0.0,0.0,0.0,0.0,0.0,0.0,0.0,0.0,0.0,0.0,0.0,0.0,0.0,0.0,0.0,0.0,0.0,0.0,0.0,0.0,0.0,0.0,0.0,0.0,0.0,0.0,0.0,0.0,0.0,0.0,0.0,0.0,0.0,0.0,0.0,0.0,0.0,0.0,0.0,0.0,0.0,0.0,0.0,0.0,0.0,0.0,0.0,0.0,0.0,0.0,0.0,0.0,0.0,0.0,0.0,0.0,0.0,0.0,0.0,0.0,0.0,0.0,0.0,0.0,0.0,0.0,0.0,0.0,0.0,0.0,0.0,0.0,0.0,0.0,0.0,0.0,0.0,0.0,0.0,0.0,0.0,0.0,0.0,0.0,0.0,0.0,0.0,0.0,0.0,0.0,0.0,0.0,0.0,0.0,0.0,0.0,0.0,0.0,0.0,0.0,0.0,0.0,0.0,0.0,0.0,0.0,0.0,0.0,0.0,0.0,0.0,0.0,0.0,0.0,0.0,0.0,0.0,0.0,0.0,0.0,0.0,0.0,0.0,0.0,0.0,0.0,0.0,0.0,0.0,0.0,0.0,0.0,0.0,0.0,0.0,0.0,0.0,0.0,0.0,0.0,0.0,0.0,0.0,0.0,0.0,0.0,0.0,0.0,0.0,0.0,0.0,0.0,0.0,0.0,0.0,0.0,0.0,0.0,0.0,0.0,0.0,0.0,0.0,0.0,0.0,0.0,0.0,0.0,0.0,0.0,0.0,0.0,0.0,0.0,0.0,0.0,0.0,0.0,0.0,0.0,0.0,0.0,0.0,0.0,0.0,0.0,0.0,0.0,0.0,0.0,0.0,0.0,0.0,0.0,0.0,0.0,0.0,0.0,0.0,0.0,0.0,0.0,0.0,0.0,0.0,0.0,0.0,0.0,0.0,0.0,0.0,0.0,0.0,0.0,0.0,0.0,0.0,0.0,0.0,0.0,0.0,0.0,0.0,0.0,0.0,0.0,0.0,0.0,0.0,0.0,0.0,0.0,0.0,0.0,0.0,0.0,0.0,0.0,0.0,0.0,0.0,0.0,0.0,0.0,0.0,0.0,0.0,0.0,0.0,0.0,0.0,0.0,0.0,0.0,0.0,0.0,0.0,0.0,0.0,0.0,0.0,0.0,0.0,0.0,0.0,0.0,0.0,0.0,0.0,0.0,0.0,0.0,0.0,0.0,0.0,0.0,0.0,0.0,0.0,0.0,0.0,0.0,0.0,0.0,0.0,0.0,0.0,0.0,0.0,0.0,0.0,0.0,0.0,0.0,0.0,0.0,0.0,0.0,0.0,0.0,0.0,0.0,0.0,0.0,0.0,0.0,0.0,0.0,0.0,0.0,0.0,0.0,0.0,0.0,0.0,0.0,0.0,0.0,0.0,0.0,0.0,0.0,0.0,0.0,0.0,0.0,0.0,0.0,0.0,0.0,0.0,0.0,0.0,0.0,0.0,0.0,0.0,0.0,0.0,0.0,0.0,0.0,0.0,0.0,0.0,0.0,0.0,0.0,0.0,0.0,0.0,0.0,0.0,0.0,0.0,0.0,0.0,0.0,0.0,0.0,0.0,0.0,0.0,0.0,0.0,0.0,0.0,0.0,0.0,0.0,0.0,0.0,0.0,0.0,0.0,0.0,0.0,0.0,0.0,0.0,0.0,0.0,0.0,0.0,0.0,0.0,0.0,0.0,0.0,0.0,0.0,0.0,0.0,0.0,0.0,0.0,0.0,0.0,0.0,0.0,0.0,0.0,0.0,0.0,0.0,0.0,0.0,0.0,0.0,0.0,0.0,0.0,0.0,0.0,0.0,0.0,0.0,0.0,0.0,0.0,0.0,0.0,0.0,0.0,0.0,0.0,0.0,0.0,0.0,0.0,0.0,0.0,0.0,0.0,0.0,0.0,0.0,0.0,0.0,0.0,0.0,0.0,0.0,0.0,0.0,0.0,0.0,0.0,0.0,0.0,0.0,0.0,0.0,0.0,0.0,0.0,0.0,0.0,0.0,0.0,0.0,0.0,0.0,0.0,0.0,0.0,0.0,0.0,0.0,0.0,0.0,0.0,0.0,0.0,0.0,0.0,0.0,0.0,0.0,0.0,0.0,0.0,0.0,0.0,0.0,0.0,0.0,0.0,0.0,0.0,0.0,0.0,0.0,0.0,0.0,0.0,0.0,0.0,0.0,0.0,0.0,0.0,0.0,0.0,0.0,0.0,0.0,0.0,0.0,0.0,0.0,0.0,0.0,0.0,0.0,0.0,0.0,0.0,0.0,0.0,0.0,0.0,0.0,0.0,0.0,0.0,0.0,0.0,0.0,0.0,0.0,0.0,0.0,0.0,0.0,0.0,0.0,0.0,0.0,0.0,0.0,0.0,0.0,0.0,0.0,0.0,0.0,0.0,0.0,0.0,0.0,0.0,0.0,0.0,0.0,0.0,0.0,0.0,0.0,0.0,0.0,0.0,0.0,0.0,0.0,0.0,0.0,0.0,0.0,0.0,0.0,0.0,0.0,0.0,0.0,0.0,0.0,0.0,0.0,0.0,0.0,0.0,0.0,0.0,0.0,0.0,0.0,0.0,0.0,0.0,0.0,0.0,0.0,0.0,0.0,0.0,0.0,0.0,0.0,0.0,0.0,0.0,0.0,0.0,0.0,0.0,0.0,0.0,0.0,0.0,0.0,0.0,0.0,0.0,0.0,0.0,0.0,0.0,0.0,0.0,0.0,0.0,0.0,0.0,0.0,0.0,0.0,0.0,0.0,0.0,0.0,0.0,0.0,0.0,0.0,0.0,0.0,0.0,0.0,0.0,0.0,0.0,0.0,0.0,0.0,0.0,0.0,0.0,0.0,0.0,0.0,0.0,0.0,0.0,0.0,0.0,0.0,0.0,0.0,0.0,0.0,0.0,0.0,0.0,0.0,0.0,0.0,0.0,0.0,0.0,0.0,0.0,0.0,0.0,0.0,0.0,0.0,0.0,0.0,0.0,0.0,0.0,0.0,0.0,0.0,0.0,0.0,0.0,0.0,0.0,0.0,0.0,0.0,0.0,0.0,0.0,0.0,0.0,0.0,0.0,0.0,0.0,0.0,0.0,0.0,0.0,0.0,0.0,0.0,0.0,0.0,0.0,0.0,0.0,0.0,0.0,0.0,0.0,0.0,0.0,0.0,0.0,0.0,0.0,0.0,0.0,0.0,0.0,0.0,0.0,0.0,0.0,0.0,0.0,0.0,0.0,0.0,0.0,0.0,0.0,0.0,0.0,0.0,0.0,0.0,0.0,0.0,0.0,0.0,0.0,0.0,0.0,0.0,0.0,0.0,0.0,0.0,0.0,0.0,0.0,0.0,0.0,0.0,0.0,0.0,0.0,0.0,0.0,0.0,0.0,0.0,0.0,0.0,0.0,0.0,0.0,0.0,0.0,0.0,0.0,0.0,0.0,0.0,0.0,0.0,0.0,0.0,0.0,0.0,0.0,0.0,0.0,0.0,0.0,0.0,0.0,0.0,0.0,0.0,0.0,0.0,0.0,0.0,0.0,0.0,0.0,0.0,0.0,0.0,0.0,0.0,0.0,0.0,0.0,0.0,0.0,0.0,0.0,0.0,0.0,0.0,0.0,0.0,0.0,0.0,0.0,0.0,0.0,0.0,0.0,0.0,0.0,0.0,0.0,0.0,0.0,0.0,0.0,0.0,0.0,0.0,0.0,0.0,0.0,0.0,0.0,0.0,0.0,0.0,0.0,0.0,0.0,0.0,0.0,0.0,0.0,0.0,0.0,0.0,0.0,0.0,0.0,0.0,0.0,0.0,0.0,0.0,0.0,0.0,0.0,0.0,0.0,0.0,0.0,0.0,0.0,0.0,0.0,0.0,0.0,0.0,0.0,0.0,0.0,0.0,0.0,0.0,0.0,0.0,0.0,0.0,0.0,0.0,0.0,0.0,0.0,0.0,0.0,0.0,0.0,0.0,0.0,0.0,0.0,0.0,0.0,0.0,0.0,0.0,0.0,0.0,0.0,0.0,0.0,0.0,0.0,0.0,0.0,0.0,0.0,0.0,0.0,0.0,0.0,0.0,0.0,0.0,0.0,0.0,0.0,0.0,0.0,0.0,0.0,0.0,0.0,0.0,0.0,0.0,0.0,0.0,0.0,0.0,0.0,0.0,0.0,0.0,0.0,0.0,0.0,0.0,0.0,0.0,0.0,0.0,0.0,0.0,0.0,0.0,0.0,0.0,0.0,0.0,0.0,0.0,0.0,0.0,0.0,0.0,0.0,0.0,0.0,0.0,0.0,0.0,0.0,0.0,0.0,0.0,0.0,0.0,0.0,0.0,0.0,0.0,0.0,0.0,0.0,0.0,0.0,0.0,0.0,0.0,0.0,0.0,0.0,0.0,0.0,0.0,0.0,0.0,0.0,0.0,0.0,0.0,0.0,0.0,0.0,-4.3592,-4.2055,0.0,0.0,0.0,0.0,0.0,0.0,0.0,0.0,0.0,0.0,0.0,0.0,0.0,0.0,0.0,0.0,0.0,0.0,0.0,0.0,0.0,0.0,0.0,0.0,0.0,0.0,0.0,0.0,0.0,0.0,0.0,0.0,0.0,0.0,0.0,0.0,0.0,-3.1383,-3.0916,-3.1577,-3.3266,-3.4075,-3.4228,-3.3871,0.0,0.0,0.0,0.0,0.0,0.0,0.0,0.0,0.0,0.0,0.0,0.0,0.0,0.0,0.0,0.0,0.0,0.0,0.0,0.0,0.0,0.0,0.0,0.0,0.0,0.0,0.0,0.0,0.0,0.0,0.0,0.0,0.0,0.0,0.0,0.0,0.0,0.0,0.0,0.0,0.0,0.0,0.0,0.0,0.0,0.0,0.0,0.0,0.0,0.0,0.0,0.0,0.0,0.0,0.0,0.0,0.0,0.0,0.0,0.0,0.0,0.0,0.0,0.0,0.0,0.0,0.0,0.0,0.0,0.0,-4.5743,-4.4391,0.0,0.0,0.0,0.0,0.0,0.0,0.0,0.0,0.0,0.0,0.0,0.0,0.0,0.0,0.0,0.0,0.0,0.0,0.0,0.0,0.0,0.0,0.0,-3.2095,-3.2517,-3.3468,-3.414,-3.4538,0.0,0.0,0.0,0.0,0.0,0.0,0.0,-3.066,-3.0756,-3.0916,-3.1336,-3.2691,-3.4937,-3.6638,-3.6327,-3.4358,-3.5401,0.0,0.0,0.0,0.0,0.0,0.0,0.0,0.0,0.0,0.0,0.0,0.0,0.0,0.0,0.0,0.0,0.0,0.0,0.0,0.0,0.0,0.0,0.0,0.0,0.0,0.0,0.0,0.0,0.0,0.0,0.0,0.0,0.0,0.0,0.0,0.0,0.0,0.0,0.0,0.0,0.0,0.0,0.0,0.0,0.0,0.0,0.0,0.0,0.0,0.0,0.0,0.0,0.0,0.0,0.0,0.0,0.0,0.0,0.0,0.0,0.0,0.0,0.0,-5.2,-5.1892,-5.1212,-5.1342,-5.0896,-4.9942,-4.9048,-4.789,-4.651,-4.5216,0.0,0.0,0.0,0.0,0.0,0.0,0.0,0.0,0.0,0.0,0.0,0.0,0.0,0.0,0.0,0.0,0.0,0.0,0.0,0.0,0.0,-3.2589,-3.3338,-3.4119,-3.4378,-3.4485,-3.4434,0.0,0.0,0.0,0.0,0.0,-3.0687,-3.063,-3.0975,-3.174,-3.3838,-3.5441,-3.6547,-3.833,-3.9018,-3.8703,-3.7457,-3.7269,-3.773,0.0,0.0,0.0,0.0,0.0,0.0,0.0,0.0,0.0,0.0,0.0,0.0,0.0,0.0,0.0,0.0,0.0,0.0,0.0,0.0,0.0,0.0,0.0,0.0,0.0,0.0,0.0,0.0,0.0,0.0,0.0,0.0,0.0,0.0,0.0,0.0,0.0,0.0,0.0,0.0,0.0,-4.6912,-4.9811,0.0,0.0,0.0,0.0,0.0,0.0,0.0,0.0,0.0,0.0,0.0,0.0,0.0,-5.025,-5.1781,-5.3912,-5.4617,-5.3959,-5.6243,-5.6333,-5.4474,-5.462,-5.4704,-5.4718,-5.4557,0.0,-4.6596,-4.6389,0.0,0.0,0.0,0.0,0.0,0.0,0.0,0.0,0.0,0.0,0.0,0.0,0.0,0.0,0.0,0.0,0.0,0.0,0.0,0.0,0.0,-3.3447,-3.4469,-3.524,-3.6716,-3.6825,-3.5013,-3.4811,0.0,0.0,0.0,-3.1174,-3.0662,-3.0468,-3.0878,-3.1902,-3.4542,-3.6254,-3.7113,-3.9042,-3.9777,-3.9461,-3.8723,-3.8377,-3.8248,-3.6534,0.0,0.0,0.0,0.0,0.0,0.0,0.0,0.0,0.0,0.0,0.0,0.0,0.0,0.0,0.0,0.0,0.0,0.0,0.0,0.0,0.0,0.0,0.0,0.0,0.0,0.0,0.0,0.0,0.0,0.0,0.0,0.0,0.0,0.0,0.0,0.0,0.0,0.0,0.0,-4.6225,-4.8493,-4.8272,-4.9181,-4.8988,0.0,0.0,0.0,0.0,0.0,0.0,0.0,0.0,0.0,-5.1547,-5.2343,-5.3711,-5.5718,-5.7186,-5.7954,-5.7998,-5.9206,-5.9086,-5.7787,-5.7458,-5.6701,-5.5615,-5.5615,-5.3149,-4.9148,-4.9148,-4.7286,-4.4354,0.0,0.0,0.0,0.0,-4.1861,-4.156,0.0,0.0,0.0,0.0,0.0,0.0,0.0,0.0,0.0,0.0,0.0,0.0,-3.2939,-3.4198,-3.5341,-3.6387,-3.7955,-3.788,-3.548,-3.5438,-3.442,-3.2038,-3.1737,-3.1257,-3.0494,-3.0279,-3.11,-3.2965,-3.4877,-3.6484,-3.7854,-3.9662,-4.0274,-3.9868,-3.999,-3.958,-3.8627,-3.704,-3.5252,-3.3423,0.0,0.0,0.0,0.0,0.0,0.0,0.0,0.0,0.0,0.0,0.0,0.0,0.0,0.0,0.0,0.0,0.0,0.0,0.0,0.0,0.0,0.0,0.0,0.0,0.0,0.0,0.0,0.0,0.0,0.0,0.0,0.0,0.0,0.0,0.0,0.0,0.0,-4.8863,-5.0512,-4.8004,-5.1134,-5.1809,0.0,0.0,0.0,0.0,0.0,0.0,-5.2912,-5.3078,-5.371,-5.4941,-5.5754,-5.7214,-5.9346,-5.9975,-6.0654,-6.1403,-6.1065,-6.0567,-5.9903,-5.9001,-5.7485,-5.5615,-5.5615,-5.4011,-5.136,-5.1183,-4.9068,-4.5914,-4.5182,-4.4311,-4.35,-4.3707,-4.3165,-4.2456,0.0,0.0,0.0,0.0,0.0,0.0,0.0,0.0,0.0,0.0,0.0,-3.1514,-3.3702,-3.4567,-3.5675,-3.7383,-3.6527,-3.577,-3.5421,-3.3053,-3.169,-3.1713,-3.0983,-3.0419,-3.0126,-3.0123,-3.1987,-3.5896,-3.5264,-3.6406,-3.9233,-4.0479,-4.1081,-4.1141,-4.1638,-4.1045,-3.9406,-3.6054,-3.4958,-3.5154,-3.1632,0.0,0.0,0.0,0.0,0.0,0.0,0.0,0.0,0.0,0.0,0.0,0.0,0.0,0.0,0.0,0.0,0.0,0.0,0.0,0.0,0.0,0.0,0.0,0.0,0.0,0.0,0.0,0.0,0.0,0.0,0.0,0.0,0.0,0.0,0.0,0.0,0.0,0.0,-5.2552,-5.6837,0.0,0.0,0.0,0.0,-5.3861,-5.4368,-5.5042,-5.5746,-5.6283,-5.7154,-5.8401,-5.9234,-6.0416,-6.1993,-6.2048,-6.2406,-6.306,-6.1613,-6.0585,-5.9931,-5.8436,-5.698,-5.5615,-5.5615,-5.4305,-5.2084,-5.1407,-4.9689,-4.75,-4.6786,-4.5561,-4.4328,-4.5044,-4.4461,-4.339,0.0,0.0,0.0,0.0,0.0,0.0,0.0,0.0,-2.9999,-3.0525,-3.1523,-3.2791,-3.4398,-3.6595,-3.8077,-3.8358,-3.9104,-3.8159,-3.4836,-3.4063,-3.2978,-3.1314,-3.0856,-3.0381,-2.985,-3.0689,-3.1809,-3.3205,-3.4045,-3.5309,-3.6989,-3.7596,-3.8174,-3.8695,-3.8879,-3.8546,-3.7794,-3.729,-3.6227,-3.4726,-3.2757,-3.154,0.0,0.0,0.0,0.0,0.0,0.0,0.0,0.0,0.0,0.0,0.0,0.0,0.0,0.0,0.0,0.0,0.0,0.0,0.0,0.0,0.0,0.0,0.0,0.0,0.0,0.0,0.0,0.0,0.0,0.0,0.0,0.0,0.0,0.0,0.0,0.0,0.0,-5.5403,-5.9396,0.0,-5.593,-5.6455,-5.721,-5.7551,-5.8788,-5.9677,-5.9977,-6.0165,-6.051,-6.106,-6.1373,-6.2019,-6.3088,-6.3107,-6.2955,-6.2687,-6.1964,-6.1005,-5.9832,-5.8287,-5.6511,-5.4695,-5.4337,-5.2891,-5.0804,-5.1028,-5.0045,-4.8379,-4.8103,-4.7407,-4.6458,-4.6268,-4.5354,-4.4197,0.0,0.0,0.0,0.0,0.0,0.0,0.0,0.0,-3.0255,-3.0953,-3.2246,-3.3715,-3.5297,-3.7728,-3.9183,-3.9046,-3.9738,-3.858,-3.4788,-3.4089,-3.2864,-3.0744,-3.0567,-3.0484,-3.047,-3.1042,-3.1644,-3.2304,-3.27,-3.3385,-3.4355,-3.4615,-3.5055,-3.5611,-3.6085,-3.6096,-3.5877,-3.7058,-3.6362,-3.4411,-3.3359,-3.2294,-3.1184,0.0,0.0,0.0,0.0,0.0,0.0,0.0,0.0,0.0,0.0,0.0,0.0,0.0,0.0,0.0,0.0,0.0,0.0,0.0,0.0,0.0,0.0,0.0,0.0,0.0,0.0,0.0,0.0,0.0,0.0,0.0,0.0,0.0,0.0,-5.6364,-5.9587,-5.7428,-6.2093,-6.357,-5.8753,-6.0089,-6.1262,-6.1223,-6.2551,-6.334,-6.3248,-6.3118,-6.303,-6.3009,-6.2891,-6.2933,-6.3193,-6.3212,-6.2803,-6.2004,-6.1444,-6.0575,-5.9375,-5.781,-5.591,-5.3805,-5.3233,-5.1873,-5.0045,-5.0545,-4.9976,-4.8827,-4.9085,-4.8568,-4.7655,-4.7441,-4.6346,-4.4863,0.0,0.0,0.0,0.0,0.0,0.0,0.0,-2.9025,-2.9881,-3.1667,-3.2751,-3.42,-3.6395,-3.7821,-3.8829,-3.9448,-3.8073,-3.6567,-3.5194,-3.2792,-3.0994,-3.0017,-3.0094,-3.0687,-3.1884,-3.1035,-3.1523,-3.3491,-3.1307,-3.07,-3.1579,-3.1864,-3.2034,-3.2188,-3.3566,-3.4046,-3.3861,-3.5112,-3.5215,-3.4431,-3.3301,-3.2603,-3.2108,0.0,0.0,0.0,0.0,0.0,0.0,0.0,0.0,0.0,0.0,0.0,0.0,0.0,0.0,0.0,0.0,0.0,0.0,0.0,0.0,0.0,0.0,0.0,0.0,0.0,0.0,0.0,0.0,0.0,0.0,0.0,0.0,0.0,-5.3004,-5.8732,-6.1837,-5.8969,-6.5128,-6.7359,-6.1589,-6.4686,-6.6378,-6.4762,-6.5416,-6.5722,-6.5314,-6.4923,-6.4538,-6.421,-6.3789,-6.3193,-6.2413,-6.2394,-6.1967,-6.115,-6.0115,-5.9274,-5.8586,-5.6992,-5.5094,-5.306,-5.2448,-5.1356,-5.0011,-4.9976,-4.951,-4.8879,-4.9666,-4.9045,-4.7775,-4.8465,-4.733,-4.5182,0.0,0.0,0.0,0.0,0.0,0.0,-2.9532,-2.9838,-3.0453,-3.1735,-3.3739,-3.5667,-3.7293,-3.942,-4.0395,-3.9501,-3.7567,-3.5457,-3.3241,-3.0916,-2.9554,-2.9424,-3.0369,-3.0565,-2.9835,-2.9964,-2.9663,-2.8911,-2.8972,-2.8947,-2.8901,-2.9496,-3.0019,-3.0502,-3.1419,-3.2388,-3.3346,-3.4084,-3.4718,-3.5156,-3.4247,-3.3627,-3.3079,0.0,0.0,0.0,0.0,0.0,0.0,0.0,0.0,0.0,0.0,0.0,0.0,0.0,0.0,0.0,0.0,0.0,0.0,0.0,0.0,0.0,0.0,0.0,0.0,0.0,0.0,0.0,0.0,0.0,0.0,0.0,-5.3593,-5.7008,-5.7578,-6.0851,-6.3796,-6.5423,-6.6917,-6.7417,-6.6417,-6.6263,-6.6032,-6.557,-6.5763,-6.5722,-6.5314,-6.4923,-6.4538,-6.421,-6.3248,-6.2636,-6.2413,-6.1819,-6.1113,-6.0258,-5.9903,-5.9006,-5.7582,-5.6194,-5.458,-5.2847,-5.1824,-5.0873,-4.9959,-4.9361,-4.8999,-4.881,-4.9034,-4.8534,-4.7655,-4.731,-4.579,-4.3767,0.0,0.0,0.0,0.0,0.0,0.0,-2.981,-3.0117,-3.0921,-3.2635,-3.4564,-3.6343,-3.7809,-3.9166,-3.9399,-3.7972,-3.5842,-3.3606,-3.1445,-2.9201,-2.8339,-2.9131,-2.9806,-2.9691,-2.8693,-2.8924,-2.8319,-2.6834,-2.7113,-2.7091,-2.6795,-2.7232,-2.7701,-2.8247,-2.8923,-3.0066,-3.1544,-3.2691,-3.3813,-3.4771,-3.4711,-3.4398,-3.3838,-3.2586,-3.264,-3.3327,-3.2816,-3.3635,-3.4838,-3.42,0.0,0.0,0.0,0.0,0.0,0.0,0.0,0.0,0.0,0.0,0.0,0.0,0.0,0.0,0.0,0.0,0.0,0.0,0.0,0.0,0.0,0.0,0.0,0.0,-5.6708,-5.9926,-6.1427,-6.3512,-6.5628,-6.7628,-6.7725,-6.7705,-6.784,-6.6974,-6.6263,-6.5917,-6.5897,-6.5795,-6.5561,-6.5172,-6.4636,-6.3936,-6.3055,-6.2199,-6.1373,-6.089,-6.024,-5.9383,-5.8961,-5.8209,-5.7177,-5.554,-5.4092,-5.2776,-5.1608,-5.0511,-4.9476,-4.8982,-4.843,-4.7896,0.0,0.0,0.0,0.0,-4.4715,-4.3259,0.0,0.0,0.0,0.0,0.0,0.0,-2.9539,-3.0003,-3.1174,-3.3707,-3.5035,-3.6304,-3.7758,-3.7747,-3.7034,-3.5591,-3.3586,-3.1639,-2.9817,-2.7945,-2.7535,-2.8878,-2.8787,-2.8497,-2.8066,-2.7905,-2.7287,-2.6105,-2.5589,-2.5198,-2.4973,-2.5166,-2.5444,-2.5755,-2.6555,-2.7739,-2.9269,-3.134,-3.2827,-3.3867,-3.4798,-3.4894,-3.4358,-3.3294,-3.3168,-3.3466,-3.2854,-3.3723,-3.5199,-3.52,0.0,0.0,0.0,0.0,0.0,0.0,0.0,0.0,0.0,0.0,0.0,0.0,0.0,0.0,0.0,0.0,0.0,0.0,0.0,0.0,0.0,0.0,0.0,0.0,-5.9461,-6.1932,-6.4422,-6.6045,-6.7007,-6.7103,-6.7705,-6.7859,-6.7167,-6.7013,-6.6667,-6.5955,-6.5897,-6.5897,-6.5897,-6.5532,0.0,0.0,0.0,-6.1834,-5.9924,-5.9791,-5.9367,-5.8547,-5.7722,-5.7214,-5.6969,-5.4985,-5.362,-5.2706,-5.1581,-5.0258,-4.8913,-4.8741,-4.7793,-4.6544,-4.7172,-4.7034,-4.6308,-4.508,-4.4128,-4.3376,0.0,0.0,0.0,0.0,0.0,0.0,-2.9352,-2.9752,-3.0786,-3.2807,-3.4111,-3.5166,-3.6007,-3.6716,-3.629,-3.4187,-3.3075,-3.1335,-2.8621,-2.8418,-2.8275,-2.7993,-2.845,-2.8248,-2.7265,-2.698,-2.5849,-2.3767,-2.4118,-2.3627,-2.2362,-2.3771,-2.4261,-2.4066,-2.608,-2.762,-2.8882,-3.1327,-3.2888,-3.3791,-3.4671,-3.475,-3.428,-3.3727,-3.3912,-3.4464,-3.4586,-3.6198,-3.8183,-3.7755,-3.8221,-3.8977,-3.9143,-3.8844,0.0,0.0,0.0,0.0,0.0,0.0,0.0,0.0,0.0,0.0,0.0,0.0,0.0,0.0,0.0,0.0,0.0,0.0,0.0,-5.8657,-6.0856,-6.2909,-6.538,-6.6003,-6.6422,-6.7026,-6.6686,-6.6571,-6.7051,-6.6513,-6.607,-6.5897,-6.5897,-6.5897,-6.5897,-6.5532,-6.4759,-6.3539,-6.2485,-6.1292,-5.9924,-5.9274,-5.8531,-5.7732,-5.7563,0.0,-5.5342,-5.4389,-5.3188,-5.1875,-5.1167,-5.045,-4.9683,-4.8441,-4.7,-4.5638,-4.5793,-4.5759,-4.5604,-4.5343,-4.4496,-4.34,0.0,0.0,0.0,0.0,0.0,0.0,-2.9336,-2.9722,-3.0657,-3.2466,-3.3781,-3.4688,-3.5019,-3.5387,-3.4609,-3.2168,-3.0807,-2.9757,-2.895,-2.8179,-2.7938,-2.8379,-2.7533,-2.6814,-2.6265,-2.5806,-2.4782,-2.3197,-2.3434,-2.3191,-2.2512,-2.3125,-2.351,-2.3792,-2.4971,-2.6404,-2.8086,-3.0234,-3.204,-3.3479,-3.3674,-3.3763,-3.3766,-3.3537,-3.4,-3.4835,-3.535,-3.7451,-3.9966,-4.0059,-4.1045,-4.2214,-4.2285,-4.2276,-4.1791,0.0,0.0,0.0,0.0,0.0,0.0,0.0,0.0,0.0,0.0,0.0,0.0,0.0,0.0,-5.1304,-5.3926,0.0,-5.8184,-6.1946,-6.3177,-6.4232,-6.5875,-6.6044,-6.6119,-6.6468,-6.6128,-6.6051,-6.6455,-6.6128,-6.5897,-6.5897,-6.5493,-6.5243,-6.5243,-6.464,-6.3743,-6.2547,-6.175,-6.0773,-5.9563,-5.8596,-5.7899,-5.749,-5.6655,-5.5779,-5.4902,-5.3613,-5.2568,-5.1759,-5.0875,-5.0077,-4.9275,-4.7786,-4.6448,-4.5397,-4.5397,-4.5397,-4.53,-4.468,-4.4054,-4.3294,0.0,0.0,0.0,0.0,0.0,0.0,0.0,-2.9838,-3.0803,-3.237,-3.3548,-3.4225,-3.4221,-3.396,-3.2864,-3.0614,-2.8907,-2.8476,-2.9734,-2.804,-2.7545,-2.8771,-2.6776,-2.5633,-2.5536,-2.4983,-2.427,-2.3416,-2.3162,-2.3002,-2.2962,-2.2644,-2.2875,-2.352,-2.3855,-2.4935,-2.6619,-2.8237,-2.9063,-2.9216,-2.8837,-2.9302,-3.0246,-3.0346,-3.2186,-3.4817,-3.5575,-3.7779,-4.0499,-4.1364,-4.2775,-4.4253,-4.4558,-4.5024,-4.4831,-4.1506,-4.2565,0.0,0.0,0.0,0.0,0.0,0.0,0.0,0.0,-4.6767,-4.8141,-5.0252,-5.2371,-5.4774,-5.7826,-5.9566,-6.1585,-6.472,-6.4993,-6.5079,-6.586,-6.5866,-6.5766,-6.5685,-6.5795,-6.5897,-6.5897,-6.5897,-6.5897,-6.5897,-6.5089,-6.4609,-6.4609,-6.3782,-6.2708,-6.1439,-6.1128,-6.0306,-5.8878,-5.7949,-5.7342,-5.7008,-5.5652,-5.4927,-5.4702,-5.3014,-5.2136,-5.1838,-5.0502,-4.9348,-4.8275,-4.7096,-4.6148,-4.5397,-4.5397,-4.5397,-4.5291,-4.4254,-4.3718,-4.3248,0.0,0.0,0.0,0.0,0.0,0.0,0.0,0.0,-3.1404,-3.2381,-3.2949,-3.3262,-3.3254,-3.2654,-3.1857,-3.0924,-2.9617,-2.9246,-3.0177,-2.886,-2.7981,-2.7846,-2.7016,-2.6288,-2.5687,-2.548,-2.4847,-2.3729,-2.3125,-2.2363,-2.1443,-2.192,-2.2028,-2.1845,-2.3353,-2.3876,-2.3729,-2.496,-2.1489,-1.5168,-1.5052,-1.6711,-1.9343,-2.0044,-2.6195,-3.4542,-3.5364,-3.7011,-3.9036,-4.0318,-4.1623,-4.307,-4.4958,-4.6124,-4.6281,-4.3614,-4.3593,-4.3686,-4.0087,-4.0609,-4.2834,-4.5789,-4.6099,-4.7276,0.0,-5.376,-5.3716,-5.7072,-5.8031,-5.8863,-6.0801,-6.1326,-6.2323,-6.495,-6.4668,-6.4343,-6.5052,-6.5123,-6.5045,-6.4864,-6.5473,-6.5897,-6.5897,-6.5897,-6.5897,-6.5897,-6.5089,-6.4609,-6.4609,-6.3782,-6.2609,-6.1102,-6.1015,-5.9939,-5.772,-5.7567,-5.6747,-5.528,-5.5094,-5.463,-5.3923,-5.3136,-5.2477,-5.1802,-4.9816,-4.8148,-4.6837,-4.6682,-4.6148,-4.5397,-4.5397,-4.5397,-4.5371,-4.5247,-4.4468,-4.3284,0.0,0.0,0.0,0.0,0.0,0.0,0.0,0.0,0.0,-3.2311,-3.3126,-3.3314,-3.2495,-3.0807,-2.9941,-3.0492,-2.9462,-2.9269,-3.0461,-2.9291,-2.8456,-2.8297,-2.6761,-2.5745,-2.5462,-2.4892,-2.4337,-2.385,-2.3183,-2.2626,-2.2171,-2.1683,-2.1425,-2.1318,-2.1342,-2.0665,-1.9499,-1.995,-1.7605,-1.369,-1.4791,-1.7652,-2.1469,-2.3676,-2.9005,-3.5277,-3.5339,-3.6569,0.0,-3.8704,-4.0214,-4.2182,-4.3715,-4.4785,-4.5118,-4.3185,-4.3603,-4.4476,-4.3475,-4.3734,-4.4741,-4.6677,-4.8007,-4.9618,-5.2633,-5.3897,-5.5119,-5.7628,-5.9354,-6.0955,-6.2772,-6.3506,-6.4355,-6.5991,-6.588,-6.5492,-6.5265,-6.5096,-6.4582,-6.3497,-6.3996,-6.4831,-6.5814,-6.5436,-6.5147,-6.5147,-6.3897,-6.3147,-6.3147,-6.232,-6.1454,-6.0616,-6.0396,-5.948,-5.7809,-5.7128,-5.6209,-5.5001,-5.4537,-5.4128,-5.3775,-5.318,-5.2104,-5.067,-4.9353,-4.7948,-4.6613,-4.6613,-4.6148,-4.5363,-4.4941,-4.4751,-4.4751,-4.4861,-4.4058,-4.2734,0.0,0.0,0.0,0.0,0.0,0.0,0.0,0.0,0.0,0.0,-3.3184,-3.3016,-3.1565,-2.9382,-2.8624,-3.0133,-2.913,-2.8993,-3.0404,-2.9232,-2.8499,-2.8592,-2.6543,-2.558,-2.5957,-2.5083,-2.4659,-2.4659,-2.3734,-2.3089,-2.2677,-2.1086,-2.0392,-2.0402,-1.89,-1.7309,-1.5774,-1.5174,-1.31,-1.0392,-1.2263,-1.6312,-2.1552,-2.4656,-3.0023,-3.5875,-3.5467,-3.6105,-3.7102,-3.6811,-3.8061,-3.9915,-4.0883,-4.2206,-4.3156,-4.1849,-4.2555,-4.3982,-4.4974,-4.5585,-4.6228,-4.7511,-4.9714,-5.1692,-5.2286,-5.4044,-5.6045,-5.778,-5.9674,-6.1573,-6.3421,-6.4281,-6.5093,-6.6285,-6.6227,-6.5893,-6.5451,-6.4832,-6.3936,-6.2614,-6.2646,-6.3332,-6.4768,-6.4504,-6.4243,-6.4243,-6.2897,-6.2101,-6.2101,-6.1262,-6.0641,-6.0307,-5.9752,-5.8868,-5.7675,-5.6517,-5.5522,-5.4667,-5.4091,-5.3813,-5.3775,-5.2776,-5.1326,-4.9552,-4.8601,-4.7448,-4.6286,-4.6286,-4.5793,-4.5044,-4.4518,-4.4173,-4.4001,-4.4114,-4.3283,-4.2005,0.0,0.0,0.0,0.0,0.0,0.0,0.0,0.0,0.0,0.0,0.0,0.0,0.0,-2.8752,-2.8453,-3.0058,-2.8801,-2.8521,-2.9929,-2.8525,-2.7875,-2.8395,-2.6651,-2.6285,-2.7592,-2.6903,-2.6518,-2.6518,-2.4998,-2.3548,-2.2173,-1.978,-1.8648,-1.8472,-1.6092,-1.4385,-1.318,-1.1215,-0.6534,-0.0584,-0.2349,-0.7602,-1.4706,-1.7534,-2.5842,-3.597,-3.57,-3.546,-3.5194,-3.4598,-3.4794,-3.5411,-3.6178,-3.8484,-4.074,-3.9847,-4.0228,-4.1287,-4.2925,-4.4528,-4.6305,-4.8807,-5.1211,-5.3388,-5.5085,-5.6222,-5.7436,-5.9171,-5.9816,-6.0578,-6.2321,-6.2823,-6.3521,-6.5182,-6.4838,-6.4607,-6.5304,-6.3982,-6.2873,-6.2624,-6.1747,-6.149,-6.2326,-6.2971,-6.3327,-6.3327,-6.257,-6.2101,-6.2101,-6.1262,-6.0641,-6.0307,-5.9144,-5.7997,-5.6866,-5.5641,-5.463,-5.385,-5.3813,-5.3813,-5.3737,-5.1748,-5.017,-4.8845,-4.7343,-4.619,-4.5432,-4.5432,-4.501,-4.4328,-4.4311,-4.3862,-4.3224,-4.3233,-4.2436,-4.1243,0.0,0.0,0.0,0.0,0.0,0.0,0.0,0.0,0.0,0.0,0.0,0.0,0.0,0.0,0.0,0.0,-2.8669,-2.8328,-2.8529,-2.7946,-2.7418,-2.7024,-2.6202,-2.5882,-2.6096,-2.6082,-2.6059,-2.6059,-2.509,-2.4112,-2.3069,-2.0732,-1.9072,-1.7821,-1.4739,-1.2159,-0.9995,-0.7422,-0.4779,-0.2482,-0.4944,-1.1161,-1.9278,-2.2423,-2.8822,-3.6002,0.0,-3.3955,-3.3158,-3.2364,-3.2562,-3.3383,-3.4921,-3.612,-3.7156,-3.82,-3.9915,-4.195,-4.4151,-4.6364,-4.8616,-5.1127,-5.2781,-5.4098,-5.5261,-5.6183,-5.7005,-5.7741,-5.7516,-5.7622,-5.8972,-5.9271,-6.011,-6.2486,-6.3634,-6.4545,-6.5408,-6.4962,-6.3684,-6.1279,-6.1139,-6.0663,-5.919,-6.0094,-6.1262,-6.2416,-6.1185,-6.0358,-6.0358,-6.0646,-6.0029,-5.8365,-5.8429,-5.7559,-5.5603,-5.519,-5.4611,-5.3813,-5.3813,-5.3199,-5.2047,-5.1279,-5.0034,-4.8366,-4.7238,-4.6245,-4.5363,-4.4872,-4.4535,-4.4207,-4.3172,-4.262,-4.2344,-4.1861,-4.0909,-3.9934,0.0,0.0,0.0,0.0,0.0,0.0,0.0,0.0,0.0,0.0,0.0,0.0,0.0,0.0,0.0,0.0,0.0,-2.8624,-2.8621,-2.8048,-2.7602,-2.7377,-2.6508,-2.6281,-2.6748,-2.6809,-2.6817,-2.6736,-2.6483,-2.5629,-2.4211,-2.2849,-2.1341,-1.965,-1.6047,-1.3061,-1.0564,-0.7656,-0.6262,-0.6349,-0.9819,-1.5848,-2.313,-2.6771,-3.1159,0.0,-3.4278,-3.325,-3.2212,-3.1139,-3.1156,-3.1924,-3.3561,-3.4791,-3.6092,-3.829,-4.029,-4.2473,-4.5559,-4.772,-4.9723,-5.222,-5.3533,-5.4379,-5.4945,-5.5677,-5.621,-5.6036,-5.545,-5.5197,-5.5938,-5.6091,-5.6886,-5.9283,-6.091,-6.2517,-6.437,-6.3807,-6.2698,-6.1366,-6.0747,-5.9898,-5.8478,-5.8822,-5.9607,-6.0732,-6.0288,-5.9838,-5.9511,-6.0031,-5.9638,-5.8139,-5.7768,-5.6889,-5.5376,-5.482,-5.4314,-5.3813,-5.3515,-5.2791,-5.1658,-5.063,-4.9487,-4.8254,-4.6946,-4.6021,-4.5407,-4.4621,-4.4138,-4.3776,-4.2516,-4.1843,-4.155,-4.1084,-4.0179,-3.9272,0.0,0.0,0.0,0.0,0.0,0.0,0.0,0.0,0.0,0.0,0.0,0.0,0.0,0.0,0.0,0.0,0.0,0.0,-2.9927,-2.8671,-2.8292,-2.9195,-2.752,-2.7434,-2.9317,-2.8948,-2.8635,-2.8437,-2.8952,-2.794,-2.5536,-2.5697,-2.501,-2.3427,-1.9534,-1.6698,-1.4674,-1.1578,-1.0636,-1.1588,-1.5966,-2.0771,-2.5727,-2.9776,-3.2381,-3.3918,-3.3932,-3.3316,-3.2285,-3.0957,-3.0737,-3.1227,-3.2327,-3.4639,-3.7436,-3.9902,-4.1261,-4.2827,-4.6853,-4.854,-4.9706,-5.211,-5.3483,-5.424,-5.424,-5.4772,-5.5051,-5.4189,-5.3552,-5.3161,-5.3169,-5.3293,-5.4018,-5.5882,-5.7139,-5.9111,-6.259,-6.103,-6.041,-6.2773,-6.0687,-5.9293,-5.995,-5.9151,-5.8565,-5.8497,-5.9894,-6.0339,-5.9473,-5.9473,-5.9423,-5.9277,-5.7153,-5.5962,-5.5909,-5.4461,-5.3701,-5.3608,-5.2884,-5.2475,-5.2289,-4.976,-4.8583,-4.8406,-4.6467,-4.5598,-4.5485,-4.4621,-4.381,-4.3051,-4.2275,-4.1533,-4.0912,-4.0912,-4.0204,-3.9232,0.0,0.0,0.0,0.0,0.0,0.0,0.0,0.0,0.0,0.0,0.0,0.0,0.0,0.0,0.0,0.0,0.0,0.0,-2.8348,-2.8017,-2.7953,-2.823,-2.7862,-2.795,-2.8642,-2.8933,-2.9042,-2.899,-2.9093,-2.8481,-2.7225,-2.6107,-2.4872,-2.3466,-2.0241,-1.8759,-1.8391,-1.5062,-1.488,-1.6908,-1.7911,-2.2141,-2.7936,-2.8571,-3.151,-3.5105,-3.3697,-3.2897,-3.2429,-3.191,-3.2943,-3.4701,-3.6188,-3.7723,-3.922,-4.0522,-4.2322,-4.4381,-4.6702,-4.9095,-5.1241,-5.2461,-5.3051,-5.3341,-5.3397,-5.2901,-5.2238,-5.1529,-4.9846,-4.8546,-4.8705,-4.9802,-5.1895,-5.5598,-5.8632,-6.1758,-6.5234,-6.47,-6.3965,-6.3965,-6.2206,-6.0794,-6.0349,-5.9921,-5.9393,-5.8693,-5.937,-5.9473,-5.8646,-5.9165,-5.8546,-5.6447,-5.6126,-5.5589,-5.4731,-5.3532,-5.2289,-5.1063,-5.1491,-5.0898,-4.9377,-4.8949,-4.8185,-4.7135,-4.6256,-4.5465,-4.4714,-4.3952,-4.3116,-4.224,-4.1481,-4.1067,-4.0912,-4.0912,-4.0427,-3.9723,0.0,0.0,0.0,0.0,0.0,0.0,0.0,0.0,0.0,0.0,0.0,0.0,0.0,0.0,0.0,0.0,0.0,0.0,0.0,-2.8456,-2.8434,-2.8858,-2.8543,-2.8574,-2.9042,-2.9814,-2.9795,-2.8944,-3.0146,-2.9843,-2.8173,-2.8618,-2.8097,-2.669,-2.422,-2.2899,-2.2407,-1.9583,-1.9217,0.0,0.0,-2.4369,-2.8429,-2.9032,-3.127,-3.4002,-3.3454,-3.3487,-3.396,-3.4922,-3.6073,-3.7381,-3.8633,-3.9676,-4.0722,-4.2274,-4.3667,-4.5223,-4.7517,-4.9387,-5.0885,-5.1788,-5.2198,-5.2231,-5.1649,-5.1228,-5.0444,-4.8652,-4.6978,-4.587,-4.5979,-4.7096,-4.9163,-5.2757,-5.6358,-5.9755,-6.2838,-6.362,-6.3848,-6.373,-6.2871,-6.1913,-6.096,-6.0789,-6.0453,-5.9807,-5.9621,-5.9169,-5.8338,-5.8377,-5.7686,-5.6086,-5.5821,-5.5072,-5.3789,-5.2639,-5.1602,-5.0673,-5.0785,-5.0139,-4.88,-4.8455,-4.7727,-4.6735,-4.5901,-4.5147,-4.4485,-4.336,-4.2345,-4.1481,-4.1067,-4.0687,-4.0429,-4.0774,-4.0156,-3.9117,0.0,0.0,0.0,0.0,0.0,0.0,0.0,0.0,0.0,0.0,0.0,0.0,0.0,0.0,0.0,0.0,0.0,0.0,0.0,0.0,-2.9314,-3.0085,-2.9414,-2.9333,-2.9965,-3.0897,-3.0543,-2.887,-3.1291,-3.1223,-2.8824,-3.149,-3.2033,-3.0728,-2.9004,-2.7555,-2.6275,-2.4314,-2.3402,-2.3452,-2.5368,-2.6924,-2.8357,0.0,-3.1583,-3.238,-3.339,-3.4478,-3.5781,-3.8151,-3.9072,-3.9382,-4.0411,-4.129,-4.2381,-4.4408,-4.5147,-4.5905,-4.8671,-4.9538,-4.9889,-5.0914,-5.1295,-5.1044,-4.9649,-4.9454,-4.8739,-4.572,-4.4558,-4.4136,-4.4246,-4.5104,-4.6735,-4.9571,-5.2961,-5.6253,-5.917,-6.0891,-6.2226,-6.3223,-6.3144,-6.2653,-6.1779,-6.1473,-6.1244,-6.1,-5.9949,-5.9006,-5.833,-5.7368,-5.6681,-5.6395,-5.5434,-5.4183,-5.2726,-5.1726,-5.1175,-5.1063,-5.0302,-4.9732,-4.9296,-4.8125,-4.7302,-4.6684,-4.5457,-4.4733,-4.4303,-4.2725,-4.1566,-4.0763,-4.0636,-4.0187,-3.9629,-4.0342,-3.9572,-3.8144,0.0,0.0,0.0,0.0,0.0,0.0,0.0,0.0,0.0,0.0,-3.2397,-3.2578,0.0,0.0,0.0,0.0,0.0,0.0,0.0,0.0,0.0,-3.025,-3.0238,-3.0275,-3.039,-3.0635,-3.0595,-3.0247,-3.0698,-3.0644,-3.0154,-3.0535,-3.0578,-3.0288,-2.9404,-2.9019,-2.8927,-2.7183,-2.6839,-2.7482,-2.7695,-2.8651,-3.0067,-3.1227,0.0,0.0,-3.4043,-3.4439,-3.5315,-3.7404,-3.9071,-4.0709,-4.2775,-4.4129,-4.5041,-4.5433,-4.6419,-4.7607,-4.8631,-4.9697,-5.0717,-5.1753,-5.1211,-5.0098,-4.8731,-4.6828,-4.4806,-4.286,-4.194,-4.1661,-4.2338,-4.4291,-4.7103,-5.1126,-5.4155,-5.7681,-6.245,-6.287,-6.3308,-6.4941,-6.3887,-6.2929,-6.2752,-6.1387,-6.0432,-6.0286,-5.8738,-5.7934,-5.8282,-5.6793,-5.5055,-5.3183,-5.2924,-5.2119,-5.0631,-5.043,-4.9986,-4.9336,-4.9187,-4.89,-4.8489,-4.787,-4.7014,-4.5963,-4.5329,-4.4265,-4.2888,-4.1859,-4.0926,-4.0008,-3.9278,-3.8905,-3.8801,-3.8962,-3.8797,-3.8384,0.0,0.0,0.0,0.0,0.0,0.0,0.0,-3.4334,-3.5959,-3.5984,-3.5469,-3.4726,-3.3751,-3.3251,-3.2968,0.0,0.0,0.0,0.0,0.0,0.0,0.0,-3.0265,-3.032,-3.04,-3.0913,-3.0749,-2.9871,0.0,-3.0695,-2.979,-3.0076,-3.014,-3.0029,-2.9457,-2.921,-2.9184,-2.8487,-2.8428,-2.8865,-2.9537,-3.0311,-3.1182,0.0,0.0,0.0,-3.38,-3.4215,-3.5155,-3.6818,-3.8199,-3.9812,-4.3049,-4.4569,-4.5263,-4.6041,-4.6969,-4.7969,-4.9091,-5.0015,-5.0918,-5.1825,-5.0897,-4.928,-4.7335,-4.5255,-4.315,-4.1131,-4.0419,-4.0704,-4.241,-4.4066,-4.6283,-4.9668,-5.2873,-5.5989,-5.8947,-6.1054,-6.2437,-6.2832,-6.2969,-6.2637,-6.1738,-6.0856,-6.0106,-5.9522,-5.7792,-5.6851,-5.6993,-5.535,-5.3895,-5.2791,-5.2066,-5.1338,-5.0645,-4.986,-4.928,-4.8909,-4.8909,-4.8569,-4.7935,-4.7695,-4.6812,-4.5404,-4.4759,-4.3495,-4.1864,-4.1028,-4.011,-3.9185,-3.8755,-3.8594,-3.8594,-3.8594,-3.8026,-3.7158,0.0,0.0,0.0,0.0,0.0,0.0,0.0,-3.5085,-3.691,-3.8441,-3.8147,-3.6948,-3.4764,-3.4273,-3.4043,0.0,0.0,0.0,0.0,0.0,0.0,0.0,0.0,0.0,-3.0235,0.0,0.0,-2.9743,-3.1113,0.0,0.0,0.0,0.0,0.0,-2.9632,-2.9208,-2.8845,-2.9005,-2.9211,0.0,0.0,-3.1525,-3.2049,0.0,0.0,0.0,0.0,-3.4,-3.4778,-3.608,-3.6904,-3.8016,-4.1607,-4.3479,-4.4592,-4.5688,-4.6901,-4.8163,-4.9625,-5.0539,-5.1254,-5.1923,-5.08,-4.8821,-4.6031,-4.3998,-4.2054,-3.9847,-3.9528,-4.0338,-4.2685,-4.3957,-4.5415,-4.7764,-5.0694,-5.333,-5.5138,-5.8533,-6.08,-6.0683,-6.2051,-6.2324,-6.0566,-6.0234,-5.9638,-5.8429,-5.6471,-5.5223,-5.5017,-5.3696,-5.2827,-5.2593,-5.144,-5.0789,-5.0738,-4.9506,-4.8909,-4.8909,-4.8909,-4.8532,-4.7879,-4.7695,-4.6683,-4.5092,-4.4085,-4.2706,-4.1056,-4.0035,-3.9138,-3.8424,-3.8375,-3.8291,-3.8162,-3.8201,-3.7242,-3.595,0.0,0.0,0.0,0.0,0.0,0.0,0.0,-3.5577,-3.7317,-3.7447,-3.8174,-3.8221,-3.7017,-3.6174,-3.5597,0.0,0.0,0.0,0.0,0.0,0.0,0.0,0.0,0.0,0.0,0.0,0.0,-3.1476,-3.1626,0.0,0.0,0.0,0.0,0.0,0.0,-2.9682,-2.8975,-2.9,0.0,0.0,0.0,0.0,0.0,0.0,0.0,0.0,0.0,-3.3971,-3.3717,-3.4861,-3.5307,-3.5715,-3.7686,-4.0772,-4.3664,-4.3494,-4.5941,-4.8934,-5.0051,-5.1315,-5.2386,-5.2585,-5.1319,-4.9051,-4.5279,-4.2657,-4.0535,-3.8796,-3.9097,-4.0204,-4.1908,-4.3618,-4.5336,-4.7026,-4.8307,-5.0793,-5.5675,-5.735,-5.8949,-6.1308,-6.2422,-6.2324,-6.0566,-5.9746,-5.8544,-5.6679,-5.4013,-5.2481,-5.2442,-5.2223,-5.1635,-5.0599,-5.0152,-4.9792,-4.9555,-4.9131,-4.8909,-4.8909,-4.8909,-4.8874,-4.8749,-4.7959,-4.6737,-4.519,-4.3589,-4.2026,-4.0442,-3.8723,-3.7976,-3.7864,-3.7685,-3.7256,-3.6795,-3.6841,-3.6464,-3.5745,0.0,0.0,0.0,0.0,0.0,0.0,-3.3851,-3.5974,-3.7753,-3.8687,-3.9209,-3.9252,-3.8543,-3.7758,-3.7066,-3.6512,0.0,0.0,0.0,0.0,0.0,0.0,0.0,0.0,0.0,0.0,-3.2691,-3.4049,-3.3528,0.0,0.0,0.0,0.0,0.0,0.0,-3.0579,-3.0488,-3.0083,0.0,0.0,0.0,0.0,0.0,0.0,0.0,0.0,0.0,0.0,-3.4103,-3.4755,-3.4909,-3.4942,-3.5665,-3.8054,-4.0931,-4.2701,-4.4813,-4.7197,-4.999,-5.1526,-5.2474,-5.3131,-5.0937,-4.7889,-4.5205,-4.1889,-3.9167,-3.8501,-3.9062,-4.0369,-4.254,-4.3953,-4.5179,-4.6348,-4.7324,-4.8855,-5.1492,-5.3033,-5.4899,-5.7539,-5.8613,-5.9082,-5.8906,-5.8082,-5.6563,-5.4144,-5.2845,-5.1937,-5.141,-5.1276,-5.0932,-5.0309,-4.9968,-4.9684,-4.9415,-4.9061,-4.8909,-4.8909,-4.8909,-4.8767,-4.8513,-4.7897,-4.6597,-4.4794,-4.3412,-4.1595,-3.9567,-3.8402,-3.8119,-3.8352,-3.778,-3.7924,-3.8305,-3.7148,-3.6407,-3.5794,0.0,0.0,0.0,0.0,0.0,-3.2434,-3.4304,-3.613,-3.7877,-3.949,-3.9827,-3.9845,-3.9701,-3.9039,-3.8496,-3.8182,-3.6721,0.0,0.0,0.0,0.0,0.0,0.0,0.0,0.0,0.0,-3.4042,-3.5984,-3.5372,-3.6082,0.0,0.0,-3.4729,-3.4291,0.0,0.0,0.0,0.0,0.0,0.0,0.0,0.0,0.0,0.0,0.0,0.0,0.0,0.0,0.0,0.0,0.0,-3.485,-3.5123,-3.6364,-3.8259,-4.0962,-4.3527,-4.6096,-4.9039,-5.1004,-5.2344,-5.2844,-5.0199,-4.7017,-4.5186,-4.166,-3.8847,-3.9094,-3.985,-4.1171,-4.3457,-4.4632,-4.5433,-4.6036,-4.6702,-4.7545,-4.8679,-5.0115,-5.1914,-5.4258,-5.5293,-5.6172,-5.7051,-5.6252,-5.4798,-5.2601,-5.2057,-5.1544,-5.0937,-5.0799,-5.0663,-5.0477,-5.0056,-4.9735,-4.9544,-4.8882,-4.8556,-4.8537,-4.8296,-4.8046,-4.7758,-4.7166,-4.5998,-4.4351,-4.2807,-4.0999,-3.9073,-3.8055,-3.8021,-3.8517,-3.7858,-3.8171,-3.8764,-3.7097,-3.6056,-3.533,0.0,0.0,0.0,0.0,0.0,0.0,-3.4304,-3.5979,-3.761,-3.9289,-3.9623,-3.9931,-4.0534,-3.9989,-3.9884,-4.0607,-3.7561,0.0,0.0,0.0,0.0,0.0,0.0,0.0,0.0,0.0,-3.4346,-3.6883,-3.6875,-3.8172,-4.0622,-3.8406,-3.6938,-3.6084,0.0,0.0,0.0,0.0,0.0,0.0,0.0,0.0,-3.8718,0.0,0.0,0.0,0.0,0.0,0.0,0.0,0.0,0.0,0.0,-3.6084,-3.6043,-3.7694,-4.2014,-4.6404,-4.6981,-4.9666,-5.2132,-5.1404,-4.9207,-4.6768,-4.5076,-4.2102,-3.9909,-4.0712,-4.1629,-4.2798,-4.4472,-4.5605,-4.6268,-4.6207,-4.6264,-4.6914,-4.8652,-4.9668,-5.084,-5.2539,-5.3496,-5.4375,-5.5234,-5.4428,-5.3452,-5.2571,-5.1503,-5.0917,-5.0898,-5.0905,-5.0899,-5.0899,-5.0252,-4.9897,-4.9878,-4.8447,-4.7701,-4.7701,-4.6903,-4.6513,-4.6479,-4.5624,-4.4784,-4.3877,-4.154,-4.0059,-3.9178,-3.7496,-3.7283,-3.7982,-3.7714,-3.7445,-3.7136,-3.6323,-3.5301,-3.4221,0.0,0.0,0.0,0.0,0.0,0.0,0.0,-3.599,-3.7216,-3.7605,-3.8879,-3.9557,-3.9027,-3.9302,-3.962,-3.9799,-3.8321,0.0,0.0,0.0,0.0,0.0,0.0,0.0,0.0,0.0,-3.704,-3.964,-3.968,-4.0969,-4.3352,-4.0089,-3.8339,-3.7763,-3.4672,-3.3379,0.0,0.0,0.0,0.0,0.0,-3.9637,-3.9991,0.0,0.0,0.0,0.0,0.0,0.0,0.0,0.0,0.0,0.0,0.0,0.0,-3.8983,-4.0546,-4.2366,-4.5268,-4.7052,-4.8094,-4.8223,-4.6425,-4.4348,-4.3354,-4.1341,-3.9944,-4.0799,-4.2149,-4.3537,-4.4656,-4.5642,-4.6289,-4.6267,-4.6289,-4.6484,-4.7051,-4.7871,-4.9277,-5.1543,-5.3633,-5.4745,-5.4383,-5.3468,-5.2527,-5.1618,-5.1139,-5.0898,-5.0898,-5.0909,-5.0797,-5.0558,-5.0312,-4.9974,-4.9551,-4.8498,-4.7876,-4.7683,-4.6884,-4.6494,-4.6477,-4.5587,-4.4765,-4.3859,-4.1505,-4.0024,-3.9178,-3.7579,-3.7029,-3.717,-3.7198,-3.7121,-3.6818,-3.5316,-3.4843,-3.4635,0.0,0.0,0.0,0.0,0.0,0.0,0.0,-3.5811,-3.6712,-3.6899,-3.8261,-3.906,-3.8733,-3.9202,-3.9789,-4.0396,-3.9721,0.0,0.0,0.0,0.0,0.0,0.0,0.0,-3.5942,-3.6962,-3.8769,-4.1347,-4.1742,-4.3035,-4.5089,-4.2311,-4.052,-3.949,-3.6606,-3.516,0.0,0.0,0.0,0.0,-4.0602,-4.1192,-4.1217,0.0,0.0,0.0,0.0,0.0,0.0,0.0,0.0,0.0,0.0,0.0,0.0,0.0,-4.0691,-4.0654,-4.3969,-4.5396,-4.6051,-4.639,-4.4713,-4.2965,-4.2863,-4.1488,-4.0545,-4.1707,-4.3097,-4.4354,-4.523,-4.5894,-4.6308,-4.6308,-4.6308,-4.6406,-4.6738,-4.7539,-4.8808,-5.0723,-5.2949,-5.3847,-5.2626,-5.2511,-5.2154,-5.1215,-5.1037,-5.0947,-5.0906,-5.0898,-5.0668,-5.0162,-4.9978,-4.9491,-4.8658,-4.7669,-4.7064,-4.6773,-4.5955,-4.5565,-4.553,-4.4382,-4.3608,-4.3009,-4.0618,-3.9305,0.0,-3.718,-3.6685,-3.6811,-3.6163,-3.5876,-3.5644,-3.4058,-3.3558,-3.346,0.0,0.0,0.0,0.0,0.0,0.0,0.0,-3.5471,-3.6155,-3.6814,-3.7669,-3.8496,-3.9264,-3.9508,-4.0295,-4.197,0.0,0.0,0.0,0.0,0.0,0.0,0.0,0.0,-3.6788,-3.7892,-3.9673,-4.2096,-4.3109,-4.4386,-4.588,-4.4662,-4.306,-4.1122,-3.9293,-3.748,0.0,0.0,0.0,0.0,-4.2549,-4.2818,0.0,0.0,0.0,0.0,0.0,0.0,0.0,0.0,0.0,0.0,0.0,0.0,0.0,0.0,0.0,0.0,0.0,-4.4617,-4.5518,-4.553,-4.3909,-4.2518,-4.3332,-4.2363,0.0,-4.3281,-4.435,-4.5254,-4.6051,-4.6265,-4.6308,-4.6308,-4.6308,-4.6582,-4.7383,-4.8359,-4.9316,-5.0176,-5.1719,-5.2051,-5.0449,-5.1629,-5.2157,-5.1277,-5.1137,-5.105,-5.0929,-5.0906,-5.0492,-4.9629,-4.9305,-4.859,-4.7448,-4.6308,-4.5598,-4.5316,-4.4429,-4.4005,-4.3952,-4.2426,-4.1724,-4.156,-3.9185,-3.8096,-3.7918,-3.6406,-3.618,-3.6582,-3.4772,-3.4034,-3.3796,-3.2638,-3.1788,-3.1182,0.0,0.0,0.0,0.0,0.0,0.0,0.0,0.0,0.0,0.0,-3.6928,-3.8126,-3.7706,-3.8965,-4.0208,0.0,0.0,0.0,0.0,0.0,0.0,0.0,0.0,0.0,-3.77,-3.9356,-4.0829,-4.2096,-4.3805,-4.5082,-4.5861,-4.394,-4.2716,-4.1992,-3.9368,-3.7718,0.0,0.0,0.0,0.0,-4.1938,-4.2213,0.0,0.0,0.0,0.0,-4.0406,-4.0809,0.0,0.0,0.0,0.0,0.0,0.0,0.0,0.0,-4.2684,-4.2253,-4.3984,0.0,-4.3585,-4.3029,-4.2556,-4.2308,0.0,-4.2889,-4.3397,-4.4429,-4.5349,-4.6034,-4.6249,-4.6289,-4.6308,-4.6308,-4.6308,-4.6367,-4.6582,-4.8496,-5.0195,-5.1016,-5.2051,-5.2285,-5.1211,-5.1415,-5.1507,-5.1282,-5.1176,-5.1087,-5.1056,-5.0966,-5.0221,-4.8759,-4.8636,-4.8341,-4.7785,-4.6606,-4.5872,-4.5594,-4.4512,-4.4005,-4.3952,-4.2682,-4.1956,-4.1578,-3.9474,-3.8056,-3.7163,-3.6215,-3.5214,-3.4283,-3.3978,-3.323,-3.2259,-3.1544,-3.1251,-3.104,0.0,0.0,0.0,0.0,0.0,0.0,0.0,0.0,0.0,0.0,0.0,-3.7615,-3.7268,-3.9156,0.0,0.0,0.0,0.0,0.0,0.0,0.0,0.0,0.0,-3.8604,-3.8604,-4.0441,-4.182,-4.2694,-4.4638,-4.5702,-4.588,-4.5124,-4.3962,-4.2419,-3.9611,-3.8663,0.0,0.0,0.0,-4.2138,-4.2561,0.0,0.0,0.0,0.0,0.0,-4.0282,-4.0878,0.0,-4.1223,-4.1481,-4.181,0.0,0.0,0.0,0.0,-4.368,-4.3689,-4.5022,-4.4355,-4.3181,-4.2748,-4.2739,-4.2861,-4.2938,-4.3651,-4.4433,-4.4902,-4.5683,-4.6308,-4.6308,-4.6308,-4.6308,-4.6308,-4.6308,-4.6582,-4.7383,-4.9062,-5.0508,-5.1308,-5.1816,-5.1914,-5.1445,-5.1363,-5.1334,-5.1299,-5.1219,-5.1152,-5.1111,-5.103,-5.0206,-4.845,-4.8392,-4.7866,-4.6753,-4.6009,-4.5469,-4.5151,-4.4042,-4.3478,-4.3395,-4.1807,-4.1011,-4.0718,-3.8564,-3.7502,-3.7099,-3.543,-3.4477,-3.3967,-3.3074,-3.215,-3.1237,-3.0653,-3.0362,-3.0125,0.0,0.0,0.0,0.0,0.0,0.0,0.0,0.0,0.0,0.0,0.0,0.0,0.0,0.0,0.0,0.0,0.0,0.0,0.0,0.0,0.0,0.0,0.0,-3.9681,-3.9681,-4.141,-4.2728,-4.3603,-4.5418,-4.615,-4.5919,-4.6607,-4.5404,-4.2583,-4.0442,-4.0184,0.0,-4.1675,-4.2444,-4.3441,-4.354,0.0,0.0,0.0,0.0,0.0,0.0,0.0,0.0,-4.2021,-4.2413,-4.2574,-4.2307,0.0,0.0,0.0,0.0,0.0,-4.5905,-4.526,-4.4192,-4.3723,-4.3695,-4.379,-4.3798,-4.4427,-4.5039,-4.5176,-4.5781,-4.6308,-4.6308,-4.6308,-4.6308,-4.6308,-4.6406,-4.7109,-4.8848,-4.9726,-5.0449,-5.1133,-5.1328,-5.1348,-5.123,-5.1328,-5.1385,-5.1327,-5.132,-5.1252,-5.1125,-5.1111,-5.0267,-4.8457,-4.8392,-4.7445,-4.5481,-4.5245,-4.4954,-4.4553,-4.3596,-4.3025,-4.2742,-4.0908,-3.9979,-3.968,-3.7441,-3.672,-3.697,-3.4517,-3.3845,-3.4177,-3.2357,-3.1278,-3.0697,-3.0149,-2.9611,-2.9144,0.0,0.0,0.0,0.0,0.0,0.0,0.0,0.0,0.0,0.0,0.0,0.0,0.0,0.0,0.0,0.0,0.0,0.0,0.0,0.0,0.0,-4.2758,-4.1873,-4.1431,-4.1431,-4.2592,-4.3622,-4.4492,-4.5708,-4.615,-4.5899,-4.5796,-4.4614,-4.2555,-4.2984,-4.2585,-4.1655,-4.3082,-4.367,-4.3649,-4.3479,0.0,0.0,0.0,0.0,0.0,0.0,0.0,0.0,-4.2002,-4.2897,-4.37,-4.1625,0.0,0.0,0.0,0.0,0.0,-4.5795,-4.6987,-4.7435,-4.5144,-4.4595,-4.4624,-4.469,-4.4856,-4.5215,-4.5957,-4.6211,-4.6308,-4.6308,-4.6308,-4.6308,-4.6308,-4.6914,-4.8008,-4.9766,-5.0117,-5.0254,-5.0371,-5.0996,-5.1133,-5.0449,-5.0996,-5.1406,-5.1386,-5.1333,-5.1272,-5.1187,-5.1136,-5.0267,-4.8457,-4.8392,-4.7545,-4.5764,-4.547,-4.5176,-4.4832,-4.4448,-4.3746,-4.276,-4.1787,-4.0769,-3.9696,-3.7689,-3.6349,-3.5453,-3.4076,-3.3196,-3.2722,-3.2389,-3.1765,-3.1007,-3.0677,-3.0086,-2.9418,0.0,0.0,0.0,0.0,0.0,0.0,0.0,0.0,0.0,0.0,0.0,0.0,0.0,0.0,0.0,0.0,0.0,0.0,0.0,0.0,-4.4624,-4.3797,-4.3355,-4.276,-4.1933,-4.335,-4.4316,-4.4748,-4.6699,-4.7086,-4.5981,-4.5285,-4.4214,-4.2898,-4.3318,-4.3122,-4.2536,-4.3742,-4.4375,-4.4514,0.0,0.0,0.0,0.0,0.0,0.0,0.0,0.0,0.0,0.0,-4.3546,-4.3915,-4.2333,0.0,0.0,0.0,0.0,0.0,-4.5806,-4.6606,-4.7222,-4.6939,-4.7582,-4.8191,-4.7762,-4.7747,-4.7656,-4.7109,-4.6992,-4.6992,-4.6992,-4.6992,-4.7305,-4.8242,-4.873,-4.9277,-5.0098,-5.0195,-5.0195,-5.0195,-5.0527,-5.0781,-5.084,-5.1172,-5.1211,-5.0781,-5.072,-5.0666,-5.0561,-5.0038,-4.9356,-4.8483,-4.7958,-4.7096,-4.5807,-4.5673,-4.5389,-4.4882,-4.4209,-4.3305,-4.211,-4.0828,-3.9958,-3.928,-3.6705,-3.5792,-3.5956,-3.3792,-3.295,-3.295,-3.2371,-3.1711,-3.1007,-3.0318,-2.9837,-2.9448,0.0,0.0,0.0,0.0,0.0,0.0,0.0,0.0,0.0,0.0,0.0,0.0,0.0,0.0,0.0,0.0,0.0,0.0,0.0,0.0,-4.4998,-4.4335,-4.4297,-4.3747,-4.2562,-4.3939,-4.4788,-4.5067,-4.732,-4.7726,-4.6337,-4.5312,-4.4376,-4.3568,-4.3678,-4.3671,-4.3588,-4.4349,-4.4917,-4.5214,0.0,0.0,0.0,0.0,0.0,0.0,0.0,0.0,0.0,0.0,0.0,0.0,0.0,0.0,0.0,-4.3806,-4.449,-4.546,-4.5711,-4.619,-4.6947,-4.8294,-4.9373,-5.0131,-5.0268,-5.0067,-4.9588,-4.8672,-4.8319,-4.8104,-4.7949,-4.7734,-4.8105,-4.9648,-5.0078,-5.0273,-5.0449,-5.0488,-5.0488,-5.0488,-5.0488,-5.0644,-5.1074,-5.1289,-5.0976,-4.9961,-5.0078,-5.0056,-4.9716,-4.9,-4.8479,-4.8202,-4.7488,-4.667,-4.5807,-4.5807,-4.5539,-4.499,-4.3952,-4.2855,-4.1632,-4.0109,-3.9287,-3.8943,-3.6124,-3.555,-3.6435,-3.3643,-3.2791,-3.316,-3.2335,-3.1638,-3.0985,-2.9946,-2.9538,-2.9448,0.0,0.0,0.0,0.0,0.0,0.0,0.0,0.0,0.0,0.0,0.0,0.0,0.0,0.0,0.0,0.0,0.0,0.0,0.0,0.0,-4.4374,-4.4297,-4.4297,-4.4248,-4.4149,-4.437,-4.4943,-4.5818,-4.6823,-4.7245,-4.7104,-4.6205,-4.5375,-4.4613,-4.5306,-4.5188,-4.4531,-4.5216,-4.5409,-4.5211,-4.5125,0.0,0.0,0.0,0.0,0.0,0.0,0.0,0.0,0.0,0.0,0.0,0.0,0.0,-4.4247,-4.3474,-4.4263,-4.5412,-4.5436,-4.6936,-4.8537,-4.8656,-4.7617,-4.7375,-5.0502,-4.995,-4.9254,-5.0819,-5.0439,-4.9627,-4.8925,-4.8144,-4.791,-4.8848,-4.9668,-5.0469,-5.1211,-5.1308,-5.1308,-5.1308,-5.1308,-5.1035,-5.0351,-5.0957,-5.0723,-4.9101,-4.9746,-4.9782,-4.8835,-4.8668,-4.8202,-4.7317,-4.7172,-4.667,-4.5807,-4.5807,-4.5623,-4.5266,-4.4192,-4.3083,-4.1942,-4.0822,-3.9863,-3.8994,-3.6961,-3.6014,-3.5724,-3.3635,-3.2657,-3.2476,-3.2388,-3.1839,-3.0988,-3.0118,-2.9655,-2.9448,0.0,0.0,0.0,0.0,0.0,0.0,0.0,0.0,0.0,0.0,0.0,0.0,0.0,0.0,0.0,0.0,0.0,0.0,0.0,-4.4025,-4.4297,-4.4297,-4.4816,-4.4792,-4.4135,-4.5238,-4.6024,-4.6461,-4.6242,-4.6499,-4.7181,-4.6309,-4.5468,-4.4739,-4.55,-4.5426,-4.4708,-4.5413,-4.5661,-4.5541,-4.5294,-4.4601,0.0,0.0,0.0,0.0,0.0,0.0,0.0,0.0,-4.4005,-4.3949,-4.3633,-4.3818,-4.4121,-4.3985,-4.3989,-4.4216,-4.5053,-4.5597,-4.6385,-4.814,-4.7374,-4.7243,-5.1219,-5.2054,-5.1712,-5.0729,-5.1573,-5.191,-5.0058,-4.9004,-4.8867,-5.0234,-5.0723,-5.123,-5.209,-5.2207,-5.1816,-5.0781,-5.0644,-5.0312,-4.9473,-4.9668,-4.9355,-4.8183,-4.8398,-4.8417,-4.8042,-4.743,-4.7164,-4.7326,-4.621,-4.5421,-4.5065,-4.4523,-4.417,-4.3984,-4.3788,-4.2822,-4.1154,-4.0076,-3.9417,-3.8994,-3.7049,-3.6047,-3.5688,-3.4203,-3.3132,-3.2371,-3.2161,-3.1784,-3.1257,-3.0563,-3.0054,-2.9655,0.0,0.0,0.0,0.0,0.0,0.0,0.0,0.0,0.0,0.0,0.0,0.0,0.0,0.0,0.0,0.0,0.0,0.0,-4.2676,-4.3242,-4.366,-4.3912,-4.4399,-4.447,-4.4009,-4.5251,-4.5879,-4.5849,-4.5621,-4.6087,-4.7181,-4.6343,-4.5838,-4.5632,-4.5853,-4.5806,-4.5564,-4.5718,-4.5807,-4.5766,-4.5446,-4.4948,0.0,0.0,0.0,0.0,0.0,0.0,0.0,0.0,-4.4005,-4.4005,-4.4005,-4.4005,-4.3996,-4.3922,-4.3746,-4.3734,-4.4498,-4.4701,-4.52,-4.7179,-4.7153,-4.7531,-5.0969,-5.2225,-5.2466,-5.174,-5.2419,-5.2457,-5.0173,-4.9062,-4.8945,-5.035,-5.0605,-5.0918,-5.1797,-5.168,-5.0976,-4.9551,-4.9629,-4.9336,-4.8183,-4.8574,-4.8301,-4.6894,-4.7031,-4.6953,-4.6406,-4.5731,-4.5623,-4.6173,-4.4961,-4.4264,-4.4215,-4.3615,-4.3136,-4.2787,-4.2948,-4.227,-4.0797,-3.9632,-3.9101,-3.8994,-3.7165,-3.6193,-3.5824,-3.4434,-3.3284,-3.2371,-3.202,-3.1747,-3.1428,-3.0808,-3.0251,-2.9788,0.0,0.0,0.0,0.0,0.0,0.0,0.0,0.0,0.0,0.0,0.0,0.0,0.0,0.0,0.0,0.0,0.0,0.0,-4.1848,-4.1898,-4.2268,-4.3047,-4.2852,-4.3119,-4.397,-4.4254,-4.4191,-4.3807,-4.4927,-4.6061,-4.7151,-4.6426,-4.6624,-4.7526,-4.654,-4.6589,-4.7318,-4.6253,-4.5807,-4.5773,-4.5643,-4.5438,-4.5201,0.0,0.0,0.0,0.0,0.0,0.0,0.0,-4.4005,-4.4005,-4.4005,-4.4005,-4.3838,-4.3039,-4.3557,-4.4264,-4.3736,-4.4556,-4.5615,-4.5837,-4.6741,-4.8007,-4.9555,-4.9844,-5.0803,-5.4269,-5.301,-5.0785,-4.9114,-4.8158,-4.785,-4.8651,-4.8843,-4.9199,-5.0058,-4.9433,-4.8574,-4.7695,-4.8359,-4.8183,-4.6445,-4.7832,-4.7773,-4.5176,-4.5781,-4.5527,-4.3789,-4.3641,-4.3604,-4.3603,-4.3463,-4.3379,-4.3398,-4.331,-4.2807,-4.1887,-4.1687,-4.1409,-4.1029,-3.9718,-3.9101,-3.9008,-3.7392,-3.6522,-3.6046,-3.4106,-3.2943,-3.2371,-3.2037,-3.1747,-3.1428,-3.0845,-3.0272,-2.9788,0.0,0.0,0.0,0.0,0.0,0.0,0.0,0.0,0.0,0.0,0.0,0.0,0.0,0.0,0.0,0.0,0.0,0.0,-4.1072,-4.1581,-4.2013,-4.2248,-4.3091,-4.3314,-4.281,-4.3112,-4.3596,-4.4216,-4.414,-4.4161,-4.426,-4.4837,-4.5352,-4.5781,-4.6103,-4.6039,-4.5718,-4.5833,-4.5514,-4.4987,-4.5441,-4.5559,-4.5448,0.0,0.0,0.0,0.0,0.0,0.0,0.0,0.0,0.0,-4.4005,-4.4005,-4.3838,-4.3039,-4.2631,-4.2464,-4.2635,-4.262,-4.2945,-4.4531,-4.6153,-4.7811,-4.9397,-5.0338,-5.1506,-5.376,-5.2248,-5.0368,-4.988,-4.8593,-4.7676,-4.7928,-4.7968,-4.8281,-4.916,-4.9062,-4.8359,-4.6855,-4.6914,-4.6387,-4.4648,-4.4941,-4.4922,-4.4141,-4.4336,-4.4258,-4.373,-4.3671,-4.3645,-4.3604,-4.2916,-4.2525,-4.249,-4.1858,-4.139,-4.1047,-4.0169,-3.9623,-3.9334,-3.9363,-3.8968,-3.8228,-3.7745,-3.704,-3.6032,-3.3864,-3.2844,-3.2653,-3.237,-3.2055,-3.1711,-3.1162,-3.0605,-3.0097,0.0,0.0,0.0,0.0,0.0,0.0,0.0,0.0,0.0,0.0,0.0,0.0,0.0,0.0,0.0,0.0,0.0,0.0,0.0,-4.1314,-4.152,-4.1855,-4.2451,-4.2705,-4.2491,-4.271,-4.2958,-4.3296,-4.3429,-4.3319,-4.3021,-4.4164,-4.4981,-4.5531,-4.6078,-4.6019,-4.5547,-4.5845,-4.5439,-4.4669,-4.539,-4.5654,-4.5577,0.0,0.0,0.0,0.0,0.0,0.0,0.0,0.0,0.0,-4.4005,-4.4005,-4.3838,-4.3039,-4.2463,-4.2172,-4.2561,-4.2479,-4.2812,-4.4882,-4.6388,-4.7672,-4.9007,-5.1057,-5.2715,-5.2804,-5.1642,-5.0294,-4.9311,-4.7984,-4.7164,-4.7496,-4.7261,-4.7361,-4.8262,-4.8086,-4.7226,-4.5469,-4.5566,-4.5097,-4.3317,-4.3476,-4.3554,-4.3161,-4.3164,-4.3047,-4.2715,-4.2715,-4.2694,-4.2646,-4.2052,-4.1694,-4.1656,-4.0743,-4.043,-4.0674,-3.9295,-3.8501,-3.8261,-3.8437,-3.8116,-3.7411,-3.7076,-3.63,-3.5133,-3.3608,-3.2905,-3.2763,-3.2489,-3.2196,-3.184,-3.1298,-3.0767,-3.0208,0.0,0.0,0.0,0.0,0.0,0.0,0.0,0.0,0.0,0.0,0.0,0.0,0.0,0.0,0.0,0.0,0.0,0.0,0.0,0.0,-4.0964,-4.1766,-4.1491,-4.177,-4.2775,-4.2872,-4.2445,-4.1479,-4.2729,-4.3144,-4.2756,-4.397,-4.5099,-4.6056,-4.6135,-4.6136,-4.6057,-4.5916,-4.529,-4.4446,-4.5235,-4.5499,-4.5383,-4.546,0.0,0.0,0.0,0.0,0.0,0.0,0.0,0.0,-4.4005,-4.4005,-4.3838,-4.3039,-4.2742,-4.2742,-4.3001,-4.3279,-4.401,-4.6129,-4.7129,-4.7857,-4.8836,-5.193,-5.3928,-5.156,-5.123,-5.0571,-4.8066,-4.696,-4.6626,-4.7272,-4.6708,-4.6506,-4.7343,-4.6797,-4.5644,-4.3906,-4.4394,-4.4157,-4.2358,-4.2963,-4.3103,-4.2244,-4.2242,-4.1973,-4.123,-4.1191,-4.1191,-4.1191,-4.0996,-4.088,-4.0877,-3.9898,-3.9746,-4.0449,-3.8775,-3.7837,-3.7578,-3.7203,-3.6875,-3.6551,-3.5826,-3.487,-3.3802,-3.3378,-3.3015,-3.2721,-3.233,-3.2004,-3.1668,-3.1132,-3.0587,-3.0053,0.0,0.0,0.0,0.0,0.0,0.0,0.0,0.0,0.0,0.0,0.0,0.0,0.0,0.0,0.0,0.0,0.0,0.0,0.0,0.0,-4.1033,-4.1851,-4.2579,-4.2937,-4.2794,-4.3429,-4.2723,-4.0661,-4.1718,-4.1696,-4.0684,-4.2562,-4.3709,-4.4204,-4.4955,-4.4909,-4.4247,-4.4122,-4.3502,-4.2699,-4.3453,-4.3709,-4.3701,-4.4335,-4.4375,0.0,0.0,0.0,0.0,0.0,0.0,0.0,-4.4005,-4.4005,-4.3838,-4.3039,-4.2352,-4.1905,-4.2112,-4.1788,-4.2028,-4.4851,-4.735,-4.9579,-5.1296,-5.232,-5.24,-5.0637,-5.1346,-5.1505,-4.8925,-4.8245,-4.772,-4.6573,-4.6297,-4.6264,-4.6467,-4.6384,-4.5624,-4.3836,-4.3795,-4.3216,-4.1449,-4.1509,-4.1585,-4.1363,-4.1422,-4.1387,-4.1211,-4.1191,-4.1191,-4.1191,-4.0454,-4.0025,-3.9983,-3.903,-3.8611,-3.8722,-3.761,-3.6965,-3.6765,-3.7081,-3.6694,-3.5751,-3.5584,-3.4971,-3.4031,-3.289,-3.2383,-3.2213,-3.105,-3.0549,-3.0432,-2.9833,-2.9347,-2.8871,0.0,0.0,0.0,0.0,0.0,0.0,0.0,0.0,0.0,0.0,0.0,0.0,0.0,0.0,0.0,0.0,0.0,0.0,0.0,0.0,-4.1123,-4.2057,-4.3428,-4.3918,-4.3389,-4.3782,-4.3002,-4.0958,-4.1507,-4.1368,-4.0654,-4.226,-4.3413,-4.4192,-4.4682,-4.4452,-4.3706,-4.3632,-4.3041,-4.2249,-4.2999,-4.3247,-4.3189,-4.358,-4.3559,-4.3375,-4.3686,0.0,0.0,0.0,0.0,0.0,0.0,0.0,-4.3188,-4.1999,-4.1349,-4.1058,-4.1143,-4.1237,-4.197,-4.4672,-4.7173,-4.9189,-4.9932,-5.0407,-5.0447,-4.9598,-5.0456,-5.0579,-4.7977,-4.746,-4.7138,-4.6277,-4.6128,-4.6139,-4.6184,-4.6225,-4.5764,-4.4429,-4.4271,-4.3574,-4.1799,-4.1683,-4.1366,-4.0482,-4.0872,-4.0781,-3.9956,-4.0331,-4.0391,-3.9961,-3.9443,-3.9156,-3.9087,-3.8156,-3.7841,-3.8174,-3.6863,-3.6105,-3.5886,-3.597,-3.5652,-3.5046,-3.4536,-3.4061,-3.3511,-3.2132,-3.1578,-3.1486,-3.0497,-3.0106,-3.0024,-2.942,-2.9072,-2.8765,0.0,0.0,0.0,0.0,0.0,0.0,0.0,0.0,0.0,0.0,0.0,0.0,0.0,0.0,0.0,0.0,0.0,0.0,0.0,0.0,0.0,-4.2294,-4.384,-4.4461,-4.4036,-4.389,-4.3076,-4.159,-4.146,-4.1423,-4.1504,-4.2415,-4.3537,-4.4782,-4.466,-4.4268,-4.369,-4.3377,-4.2794,-4.2122,-4.2708,-4.2881,-4.2775,-4.2853,-4.2733,-4.2556,-4.2669,-4.2879,-4.3087,-4.3013,0.0,0.0,0.0,0.0,-4.2147,-4.0958,-4.029,-4.0007,-4.0141,-4.1196,-4.2745,-4.4738,-4.6679,-4.7993,-4.7591,-4.8056,-4.8584,-4.8584,-4.9221,-4.9099,-4.6821,-4.6359,-4.6286,-4.618,-4.6084,-4.6053,-4.6173,-4.6072,-4.5692,-4.4864,-4.4629,-4.3812,-4.2013,-4.2034,-4.1418,-3.9601,-4.0352,-4.0194,-3.8596,-3.9234,-3.9335,-3.8613,-3.8391,-3.8268,-3.8182,-3.726,-3.7108,-3.7752,-3.6284,-3.5475,-3.5242,-3.484,-3.4626,-3.4534,-3.3477,-3.3001,-3.2892,-3.1386,-3.0735,-3.064,-2.9993,-2.9732,-2.9637,-2.9142,-2.887,-2.8645,0.0,0.0,0.0,0.0,0.0,0.0,0.0,0.0,0.0,0.0,0.0,0.0,0.0,0.0,0.0,0.0,0.0,0.0,0.0,0.0,0.0,-4.2462,-4.3304,-4.3907,-4.418,-4.3382,-4.25,-4.159,-4.0903,-4.1138,-4.2256,-4.2527,-4.3388,-4.4692,-4.4042,-4.3746,-4.3592,-4.2088,-4.1333,-4.1167,-4.1143,-4.1101,-4.1107,-4.1724,-4.1945,-4.198,-4.2508,-4.2733,-4.2694,-4.2222,-4.2115,0.0,0.0,0.0,-4.081,-4.1293,-3.9918,-3.8395,-3.9082,-4.1279,-4.3498,-4.3985,-4.5737,-4.7375,-4.7473,-4.7588,-4.7667,-4.7667,-4.8311,-4.8535,-4.7443,-4.7184,-4.6892,-4.6149,-4.6052,-4.6095,-4.6105,-4.555,-4.4823,-4.3899,-4.3114,-4.1958,-4.0138,-4.0698,-4.0463,-3.8708,-3.9436,-3.9566,-3.8646,-3.866,-3.8663,-3.8594,-3.7851,-3.7436,-3.7354,-3.6433,-3.5988,-3.6033,-3.5678,-3.5483,-3.5439,-3.5046,-3.4771,-3.4534,-3.3477,-3.3001,-3.2867,-3.1041,-3.016,-2.9839,-2.8774,-2.8216,-2.8017,-2.794,-2.7536,-2.7013,0.0,0.0,0.0,0.0,0.0,0.0,0.0,0.0,0.0,0.0,0.0,0.0,0.0,0.0,0.0,0.0,0.0,0.0,0.0,0.0,0.0,-4.1826,-4.3006,-4.3378,-4.282,-4.2806,-4.2184,-4.0921,-4.0067,-4.0607,-4.2389,-4.2037,-4.311,-4.5262,-4.404,-4.3556,-4.3562,-4.2342,-4.1539,-4.1073,-4.1393,-4.1222,-4.0784,-4.0998,-4.1066,-4.1115,-4.137,-4.1685,-4.1922,-4.1567,-4.1651,-4.1857,-4.1562,0.0,0.0,0.0,-3.828,-3.7802,-3.8652,-3.9491,-4.0735,-4.3281,-4.4286,-4.5068,-4.6491,-4.6796,-4.6776,-4.6776,-4.7056,-4.7182,-4.6793,-4.6699,-4.6541,-4.6129,-4.6078,-4.5932,-4.5445,-4.5085,-4.4572,-4.3702,-4.3254,-4.2519,-4.1241,-4.1078,-4.0312,-3.8536,-3.8816,-3.8487,-3.715,-3.7559,-3.7629,-3.7166,-3.6777,-3.6541,-3.6462,-3.6056,-3.578,-3.5645,-3.5576,-3.5532,-3.5493,-3.5209,-3.4964,-3.4675,-3.3041,-3.2332,-3.218,-3.0302,-2.9345,-2.9011,-2.8349,-2.794,-2.7701,-2.7701,-2.7504,-2.7195,0.0,0.0,0.0,0.0,0.0,0.0,0.0,0.0,0.0,0.0,0.0,0.0,0.0,0.0,0.0,0.0,0.0,0.0,0.0,0.0,0.0,-4.1331,-4.2406,-4.261,-4.1735,-4.1816,-4.1289,-4.0067,-3.9212,-3.9914,-4.205,-4.1736,-4.3106,-4.5712,-4.4365,-4.3701,-4.3549,-4.2732,-4.2011,-4.1441,-4.1694,-4.1264,-4.0479,-4.0275,-4.0062,-3.99,-4.0131,-4.0477,-4.0864,-4.0794,-4.1043,-4.1255,-4.0603,-3.997,0.0,0.0,0.0,-3.6762,-3.7555,-3.7694,-3.843,-4.1771,-4.2843,-4.3522,-4.5231,-4.591,-4.6171,-4.6205,-4.6191,-4.6193,-4.6199,-4.6199,-4.6189,-4.6138,-4.6134,-4.5823,-4.4947,-4.4631,-4.4195,-4.3364,-4.3094,-4.2549,-4.1438,-4.0983,-3.9931,-3.7926,-3.801,-3.7402,-3.5688,-3.6451,-3.6551,-3.5698,-3.5877,-3.5878,-3.5592,-3.5369,-3.5251,-3.5292,-3.5287,-3.5237,-3.5154,-3.4956,-3.4518,-3.3847,-3.2475,-3.1719,-3.1374,-2.9751,-2.8862,-2.8491,-2.8285,-2.7992,-2.7701,-2.7701,-2.7609,-2.7413,0.0,0.0,0.0,0.0,0.0,0.0,0.0,0.0,0.0,0.0,0.0,0.0,-4.4653,-4.3155,-4.2057,-4.1944,-4.1235,-4.0797,-4.0797,-4.0607,-4.0769,-4.1361,-4.1236,0.0,-4.1801,-4.0207,-3.9319,-3.9175,-3.8358,-3.9058,-4.119,-4.2039,-4.3618,-4.5681,-4.5021,-4.4301,-4.3554,-4.2732,-4.2363,-4.2242,-4.1334,-4.0443,-3.9632,-3.9445,-3.8845,-3.8238,-3.9073,-3.9373,-3.9465,-3.9754,-3.9892,-3.9963,-4.0303,-3.8799,-3.7034,0.0,0.0,0.0,-3.5027,-3.6681,-3.8384,-3.8927,-4.1615,-4.4059,-4.3806,-4.4963,-4.6113,-4.6189,-4.6207,-4.6192,-4.6206,-4.6199,-4.6196,-4.6196,-4.6196,-4.5884,-4.5027,-4.4185,-4.3344,-4.2471,-4.1692,-4.0562,-3.887,-3.9415,-3.8795,-3.622,-3.6742,-3.6462,-3.4852,-3.5537,-3.5598,-3.4781,-3.5562,-3.5604,-3.4765,-3.3889,-3.3771,-3.4468,-3.44,-3.432,-3.4257,-3.4064,-3.2983,-3.1326,-3.1864,-3.1543,-3.0604,-2.972,-2.9023,-2.8504,-2.8473,-2.8152,-2.7701,-2.7701,-2.743,-2.6989,0.0,0.0,0.0,0.0,0.0,0.0,0.0,0.0,0.0,0.0,0.0,0.0,0.0,-4.3045,-4.2523,-4.1338,-4.0926,-4.0752,-4.0797,-4.0542,-4.0481,-4.0625,-4.1369,-4.1324,-4.0336,-4.0176,-3.9535,-3.8388,-3.7067,-3.7793,-4.0392,-4.0214,-4.1278,-4.3336,-4.3767,-4.3806,-4.3487,-4.2728,-4.2109,-4.164,-4.1741,-4.1256,-4.0412,-4.0253,-3.9972,-3.9649,-3.9439,-3.9668,-3.9969,-3.9251,-3.9364,-3.9777,-3.9626,-3.8599,-3.7291,-3.632,-3.5034,-3.4105,-3.4821,-3.5195,-3.6037,-3.8722,-3.9585,-4.0238,-4.2047,-4.3374,-4.4289,-4.4432,-4.4949,-4.5533,-4.6092,-4.6199,-4.6024,-4.5459,-4.5361,-4.4874,-4.3429,-4.2958,-4.2257,-4.0854,-4.0448,-3.9805,-3.8617,-3.8285,-3.774,-3.6805,-3.6484,-3.5825,-3.4696,-3.4956,-3.4737,-3.3881,-3.4171,-3.4178,-3.3867,-3.3533,-3.347,-3.3698,-3.363,-3.3537,-3.3409,-3.2782,-3.1759,-3.0441,-3.0086,-2.9889,-2.9805,-2.9508,-2.916,-2.8803,-2.8578,-2.8272,-2.794,-2.7757,-2.758,-2.7384,0.0,0.0,0.0,0.0,0.0,0.0,0.0,0.0,0.0,-4.3223,0.0,0.0,0.0,0.0,-4.3202,-4.1363,-4.0926,-4.0862,-4.1177,-4.09,-4.0832,-4.1027,-4.1749,-4.1425,-3.9939,-4.0111,-3.9386,-3.7634,-3.6566,-3.7084,-3.9096,-3.888,-3.9755,-4.1472,-4.1961,-4.2525,-4.3023,-4.2561,-4.2245,-4.2031,-4.1935,-4.1688,-4.1328,-4.0907,-4.0523,-4.0223,-4.0247,-3.9993,-3.9688,-3.9623,-3.9354,-3.901,-3.8871,-3.8037,-3.6777,-3.5096,-3.4278,-3.4018,-3.449,-3.4494,-3.5075,-3.806,-3.8212,-3.8271,-4.074,-4.1801,-4.2416,-4.2971,-4.3594,-4.4302,-4.5199,-4.5334,-4.5222,-4.4955,-4.4894,-4.4286,-4.2549,-4.2256,-4.1715,-4.0333,-3.9905,-3.9399,-3.8523,-3.7686,-3.7077,-3.6785,-3.622,-3.5402,-3.4255,-3.4503,-3.4261,-3.3386,-3.3091,-3.2965,-3.2967,-3.2695,-3.2669,-3.2861,-3.2825,-3.2721,-3.256,-3.17,-3.0553,-2.9223,-2.8548,-2.8397,-2.864,-2.8869,-2.8807,-2.8565,-2.8524,-2.8337,-2.8075,-2.78,-2.7657,-2.7522,0.0,0.0,0.0,0.0,0.0,0.0,0.0,0.0,-4.4023,-4.4844,0.0,0.0,0.0,0.0,0.0,-4.2208,-4.1313,-4.1197,-4.199,-4.1665,-4.1829,-4.265,-4.2269,-4.1597,-4.0707,-3.9895,-3.8621,-3.6907,-3.6851,-3.6977,-3.7295,-3.8251,-3.9285,-4.0303,-3.9785,-4.0497,-4.2091,-4.2186,-4.2765,-4.3476,-4.1785,-4.1596,-4.2225,-4.1213,-4.0306,-3.9785,-4.1325,-4.0286,-3.8503,-4.0732,-3.9745,-3.7642,-3.8109,-3.698,-3.5274,-3.4152,-3.3998,-3.4148,0.0,0.0,0.0,-3.6717,-3.7568,-3.852,-3.9868,-4.0262,-4.0681,-4.193,-4.2199,-4.2507,-4.3453,-4.3549,-4.377,-4.465,-4.4796,-4.4228,-4.2507,-4.2151,-4.1757,-4.0942,-4.0087,-3.9208,-3.833,-3.7598,-3.6802,-3.5964,-3.5908,-3.5168,-3.3495,-3.4099,-3.4099,-3.3246,-3.2461,-3.2062,-3.2052,-3.1288,-3.126,-3.1962,-3.1969,-3.1897,-3.1739,-3.0868,-2.9431,-2.7638,-2.7452,-2.7255,-2.7133,-2.781,-2.7945,-2.7765,-2.8288,-2.835,-2.8088,-2.7815,-2.7567,-2.7388,0.0,0.0,0.0,0.0,0.0,0.0,-4.4968,-4.4737,-4.4492,0.0,0.0,0.0,-4.4283,-4.3923,-4.3509,-4.2983,-4.2685,-4.2647,-4.2918,-4.2656,-4.2554,-4.2698,-4.2443,-4.1806,-4.079,-3.9364,-3.8083,-3.6974,-3.5764,-3.56,-3.6429,-3.6718,-3.7468,-3.8584,-3.8433,-3.8776,-3.9499,-4.0196,-4.1027,-4.1855,-4.1366,-4.1973,-4.3061,-4.2162,-4.1602,-4.1287,-4.1158,-4.0597,-3.9802,-3.9085,-3.9047,-3.9057,-3.7669,-3.6423,-3.5312,-3.4371,-3.4173,-3.4245,-3.4124,0.0,0.0,0.0,0.0,0.0,-3.6967,-3.7834,-3.8532,-3.9131,-3.9872,-4.0684,-4.1582,-4.1256,-4.1146,-4.2013,-4.2551,-4.2507,-4.1434,-4.1174,-4.0767,-3.9909,-3.9057,-3.8167,-3.7304,-3.6554,-3.6005,-3.5772,-3.5843,-3.5168,-3.3495,-3.2421,-3.1736,-3.1505,-3.1272,-3.1154,-3.1153,-3.0949,-3.0957,-3.1198,-3.1111,-3.1012,-3.0905,-2.9971,-2.9236,-2.8614,-2.7255,-2.6597,-2.6533,-2.7634,-2.8056,-2.8059,-2.8631,-2.8676,-2.8363,-2.8088,-2.7826,-2.76,0.0,0.0,0.0,0.0,0.0,-4.5946,-4.5512,-4.5502,-4.5351,0.0,0.0,0.0,-4.4653,-4.4139,-4.3846,-4.3846,-4.313,-4.3014,-4.3782,-4.2946,-4.2682,-4.3311,-4.3124,-4.2515,-4.1461,-4.05,-3.9197,-3.7539,-3.6227,-3.5555,-3.5478,-3.5559,-3.5996,-3.6746,-3.682,-3.7027,-3.7372,-3.8285,-3.9652,-4.1191,-4.1191,-4.2138,-4.3431,-4.2542,-4.2134,-4.2026,-4.1893,-4.1119,-4.003,-3.9306,-3.9024,-3.8651,-3.6607,-3.5792,-3.5417,-3.4542,-3.4305,-3.4328,-3.4293,-3.4305,-3.4626,-3.5764,0.0,0.0,-3.6139,-3.614,-3.5995,-3.6677,-3.7108,-3.7605,-3.843,-3.837,-3.8434,-3.9215,-3.9691,-4.0192,-4.0815,-4.073,-4.0435,-3.9926,-3.909,-3.8222,-3.734,-3.6591,-3.6023,-3.5679,-3.5732,-3.5056,-3.3394,-3.1724,-3.0791,-3.0767,-3.0789,-3.0795,-3.0764,-3.0786,-3.0839,-3.0894,-3.0796,-3.0717,-3.0619,-2.9694,-2.9238,-2.9051,-2.7545,-2.6625,-2.6273,-2.731,-2.7466,-2.7185,-2.8106,-2.8261,-2.8014,-2.8085,-2.794,-2.7686,0.0,0.0,-4.5835,-4.5997,-4.6052,-4.6125,-4.6202,-4.6265,-4.6308,0.0,-4.6289,-4.6238,-4.6115,-4.5285,-4.4736,-4.4736,-4.3227,-4.2957,-4.4497,-4.2899,-4.2527,-4.4008,-4.38,-4.3141,-4.2071,-4.2007,-4.0681,-3.8037,-3.7305,-3.6152,-3.4594,-3.4791,-3.4954,-3.5114,-3.5288,-3.5521,-3.585,-3.683,-3.8603,-4.0781,-4.0976,-4.2065,-4.3484,-4.2554,-4.2093,-4.2053,-4.2769,-4.1429,-3.9481,-4.0217,-3.9073,-3.705,-3.5438,-3.5222,-3.543,-3.4621,-3.4416,-3.4416,-3.4397,-3.4416,-3.4759,-3.618,-3.5423,0.0,-3.6358,-3.5033,-3.3712,-3.4653,-3.4419,-3.4269,-3.4911,-3.5395,-3.5958,-3.674,-3.6925,-3.7838,-4.0378,-4.052,-4.0392,-4.0465,-3.9707,-3.8866,-3.8097,-3.7269,-3.6482,-3.5778,-3.5466,-3.4695,-3.3246,-3.1653,-3.0751,-3.0687,-3.0745,-3.0757,-3.0709,-3.0761,-3.0819,-3.0895,-3.0827,-3.0765,-3.066,-2.9891,-2.9466,-2.9274,-2.8219,-2.7274,-2.6508,-2.7019,-2.6611,-2.5829,-2.7114,-2.7433,-2.7242,-2.7717,-2.7702,-2.7455,0.0,-4.5807,-4.5867,-4.6052,-4.6091,-4.6139,-4.6265,-4.6289,-4.6308,-4.6308,-4.6206,-4.6131,-4.6102,-4.577,-4.5568,-4.5568,-4.4659,-4.4246,-4.4574,-4.358,-4.3064,-4.3231,-4.2524,-4.157,-4.0388,-3.9694,-3.8364,-3.6366,-3.6216,-3.5615,-3.4612,-3.4636,-3.4822,-3.5106,-3.5146,-3.5397,-3.5908,-3.7475,-3.8113,-3.8184,-3.959,-4.1509,-4.3412,-4.2536,-4.1721,-4.1065,-4.1228,-4.0075,-3.8452,-3.847,-3.7255,-3.5756,-3.5771,-3.5383,-3.4835,-3.4499,-3.4439,-3.4473,-3.4397,-3.445,-3.4547,-3.4797,-3.457,0.0,-3.495,-3.469,-3.4254,-3.394,-3.3879,-3.3894,-3.4055,-3.4237,-3.4893,-3.6475,-3.6708,-3.7386,-3.9411,-3.9558,-3.9676,-4.0269,-3.9581,-3.8969,-3.8788,-3.7525,-3.6657,-3.651,-3.4643,-3.3374,-3.3064,-3.1503,-3.0632,-3.0622,-3.0687,-3.0739,-3.0782,-3.0737,-3.0749,-3.082,-3.0811,-3.0732,-3.0617,-3.0448,-3.0298,-3.013,-2.9206,-2.8581,-2.8177,-2.7608,-2.6701,-2.5792,-2.6692,-2.678,-2.6427,-2.6543,-2.6259,-2.5946,-4.5729,-4.5807,-4.5854,-4.6053,-4.6098,-4.6145,-4.6288,-4.6308,-4.6308,-4.6308,-4.6173,-4.6098,-4.6098,-4.5925,-4.5807,-4.5807,-4.5065,-4.4594,-4.4594,-4.3382,-4.2614,-4.2509,-4.1707,-4.1112,-4.0807,-3.9871,-3.8903,-3.7893,-3.6961,-3.6066,-3.524,-3.4789,-3.4565,-3.4525,-3.4915,-3.5142,-3.529,-3.6557,-3.7429,-3.8105,-3.9801,-4.0945,-4.1552,-4.1069,-4.0582,-4.01,-3.9649,-3.8663,-3.7549,-3.7437,-3.676,-3.5924,-3.5753,-3.5552,-3.5292,-3.4793,-3.4596,-3.4539,-3.4506,-3.4517,-3.4528,-3.4473,-3.4409,0.0,0.0,-3.385,-3.3157,-3.2821,-3.2184,-3.1684,-3.1615,-3.2175,-3.3097,-3.4478,-3.4766,-3.5597,-3.7887,-3.8377,-3.881,-3.9657,-3.8912,-3.8514,-3.8954,-3.7904,-3.7033,-3.6631,-3.4327,-3.3136,-3.3535,-3.1637,-3.0741,-3.1183,-3.0839,-3.0704,-3.0799,-3.0776,-3.0768,-3.0801,-3.0792,-3.0757,-3.0647,-3.0614,-3.0543,-3.0416,-2.9952,-2.9347,-2.8669,-2.8226,-2.7355,-2.6368,-2.7185,-2.7024,-2.6435,-2.709,-2.6833,-2.6193,-4.5835,-4.5712,-4.5646,-4.5819,-4.5859,-4.5902,-4.6034,-4.6191,-4.6308,-4.6288,-4.6186,-4.6095,-4.608,-4.5914,-4.5807,-4.5807,-4.491,-4.4342,-4.4342,-4.2725,-4.1777,-4.1777,-4.1145,-4.0938,-4.1204,-4.0544,-3.9938,-3.941,-3.7857,-3.6686,-3.5878,-3.5015,-3.4433,-3.4143,-3.4639,-3.4955,-3.5117,-3.5777,-3.6942,-3.8496,-4.0158,-4.0489,-3.9929,-3.9684,-3.9451,-3.9114,-3.8083,-3.727,-3.6671,-3.6671,-3.6555,-3.6316,-3.5617,-3.5648,-3.5837,-3.5144,-3.4802,-3.4658,-3.4658,-3.4532,-3.4384,-3.4491,-3.4394,-3.4297,0.0,0.0,0.0,-3.2184,-3.1158,-3.0272,-3.0161,-3.0853,-3.1763,-3.2692,-3.2998,-3.3838,-3.5878,-3.6699,-3.7593,-3.9054,-3.807,-3.7811,-3.9143,-3.8313,-3.7274,-3.6266,-3.4109,-3.3216,-3.4035,-3.1782,-3.0864,-3.171,-3.0991,-3.0633,-3.0762,-3.0781,-3.0791,-3.0801,-3.0789,-3.0757,-3.0672,-3.0607,-3.0516,-3.0413,-3.0377,-2.9778,-2.888,-2.888,-2.8281,-2.7408,-2.7743,-2.7214,-2.6405,-2.744,-2.7245,-2.6454,-4.5982,-4.5354,-4.4841,-4.4931,-4.4994,-4.5057,-4.5136,-4.5801,-4.6288,-4.6212,-4.6145,-4.6072,-4.6027,-4.588,-4.5807,-4.5807,-4.4369,-4.346,-4.346,-4.1874,-4.0951,-4.0951,-4.0855,-4.0385,-3.9503,-3.994,-3.9366,-3.7686,-3.7291,-3.6686,-3.5878,-3.5015,-3.4726,-3.4934,-3.4315,-3.5077,-3.6813,-3.6916,-3.7141,-3.7597,-3.9213,-4.0262,-4.077,-3.9917,-3.9083,-3.8141,-3.6555,-3.5916,-3.5839,-3.5839,-3.5809,-3.5761,-3.5496,-3.5429,-3.5429,-3.516,-3.499,-3.487,-3.487,-3.4231,-3.3719,-3.4414,-3.4003,-3.3623,-3.4315,0.0,-3.3919,-3.319,0.0,-3.2783,-3.2772,0.0,0.0,-3.3259,-3.3489,-3.3459,-3.3209,-3.3917,-3.5644,-3.8911,-3.7184,-3.6928,-3.9942,-3.8701,-3.6963,-3.5201,-3.362,-3.3112,-3.398,-3.1674,-3.07,-3.1507,-3.0873,-3.0548,-3.0618,-3.0745,-3.0808,-3.0798,-3.0738,-3.0669,-3.0603,-3.0539,-3.0386,-3.0157,-3.0143,-2.9897,-2.9504,-2.9504,-2.9345,-2.8969,-2.7575,-2.641,-2.5519,-2.5426,-2.5169,-2.4919,-4.5211,-4.5008,-4.4628,-4.4189,-4.414,-4.4338,-4.4902,-4.5742,-4.6289,-4.6265,-4.6202,-4.6134,-4.6076,-4.5977,-4.5873,-4.5814,-4.5162,-4.4543,-4.4078,-4.2918,-4.2241,-4.2241,-4.0835,-4.0288,-4.0808,-3.9424,-3.8545,-3.828,-3.7017,-3.6235,-3.5878,-3.5135,-3.4642,-3.4399,-3.4128,-3.4618,-3.5682,-3.6155,-3.6711,-3.7402,-3.8504,-3.9162,-3.9384,-3.8418,-3.7489,-3.6651,-3.5955,-3.5704,-3.5704,-3.5704,-3.5704,-3.5698,-3.5608,-3.5483,-3.5385,-3.5302,-3.5157,-3.5015,-3.5015,-3.4652,-3.4347,-3.4686,-3.4405,-3.4138,-3.4475,-3.4131,-3.3668,-3.3331,0.0,0.0,0.0,0.0,0.0,0.0,-3.2005,-3.212,-3.2375,-3.1955,-3.2972,-3.6612,-3.569,-3.5465,-3.7272,-3.7278,-3.6396,-3.4526,-3.3409,-3.314,-3.3906,-3.2026,-3.1312,-3.2171,-3.1509,-3.0946,-3.0548,-3.0715,-3.0804,-3.0809,-3.0721,-3.0661,-3.0593,-3.0527,-3.0416,-3.026,-3.0143,-2.9985,-2.9769,-2.9653,-2.9531,-2.9322,-2.8616,-2.7438,-2.6051,-2.5797,-2.5241,-2.4628,-4.4109,-4.4133,-4.3936,-4.3345,-4.3262,-4.3664,-4.4824,-4.5742,-4.6289,-4.6268,-4.6238,-4.6167,-4.608,-4.6027,-4.5953,-4.5821,-4.5594,-4.522,-4.4632,-4.3788,-4.3189,-4.2957,-4.139,-4.0893,-4.1641,-3.9735,-3.8786,-3.8895,-3.717,-3.6171,-3.5878,-3.5208,-3.4668,-3.4246,-3.4393,-3.4758,-3.5312,-3.5919,-3.6593,-3.7343,-3.7841,-3.7894,-3.7595,-3.7084,-3.64,-3.5704,-3.5704,-3.5704,-3.5704,-3.5704,-3.5704,-3.5704,-3.5704,-3.5608,-3.5477,-3.5477,-3.535,-3.5178,-3.5178,-3.4869,-3.4605,-3.4832,-3.4581,-3.432,-3.4545,-3.3942,-3.3385,-3.362,-3.2989,0.0,0.0,0.0,-3.2177,-3.1317,0.0,-3.1233,-3.1338,-3.081,-3.1642,-3.498,-3.5334,-3.5212,-3.502,-3.6079,-3.6022,-3.4134,-3.334,-3.3115,-3.3563,-3.1996,-3.1463,-3.2314,-3.1623,-3.1009,-3.0495,-3.0706,-3.0799,-3.0801,-3.0717,-3.065,-3.0593,-3.0515,-3.0398,-3.0254,-3.0114,-2.9939,-2.9761,-2.9608,-2.9501,-2.9388,-2.9136,-2.7999,-2.6483,-2.6266,-2.5661,-2.4865,-4.2808,-4.2419,-4.2378,-4.2354,-4.2399,-4.3026,-4.4746,-4.5742,-4.6289,-4.621,-4.6191,-4.6143,-4.6013,-4.6002,-4.5953,-4.5821,-4.5084,-4.4632,-4.4594,-4.3788,-4.2918,-4.2086,-4.2763,-4.2434,-4.0874,-4.1323,-4.0677,-3.8895,-3.7851,-3.6852,-3.5878,-3.5208,-3.4953,-3.5076,-3.5271,-3.5987,-3.7024,-3.7044,-3.7155,-3.7285,-3.7182,-3.6592,-3.5869,-3.6613,-3.64,-3.5704,-3.5704,-3.5704,-3.5704,-3.5704,-3.5704,-3.5704,-3.5704,-3.5704,-3.5679,-3.5679,-3.5559,-3.5391,-3.5391,-3.4538,-3.3846,-3.468,-3.4166,-3.3644,-3.4414,-3.3982,-3.3615,-3.4395,-3.3926,-3.3577,-3.4339,-3.3869,-3.3029,-3.2037,-3.1867,0.0,0.0,-3.0666,-3.2621,-3.5016,-3.6932,-3.7055,-3.4485,-3.5786,-3.6018,-3.4149,-3.3387,-3.2943,-3.2839,-3.1173,-3.0618,-3.1408,-3.0727,-3.0378,-3.0496,-3.0708,-3.0795,-3.0801,-3.0661,-3.0597,-3.0609,-3.0462,-3.0215,-2.9918,-2.991,-2.9726,-2.9427,-2.9417,-2.9407,-2.9322,-2.8467,-2.7361,-2.62,-2.62,-2.6009,-2.5575,-4.2397,-4.1911,-4.1503,-4.1504,-4.1522,-4.2126,-4.3866,-4.5371,-4.6504,-4.7048,-4.7127,-4.7099,-4.7003,-4.6995,-4.6711,-4.5997,-4.5689,-4.5498,-4.5401,-4.462,-4.4272,-4.4504,-4.373,-4.3305,-4.3305,-4.1723,-4.0521,-3.9765,-3.7643,-3.6404,-3.6019,-3.5343,-3.5133,-3.5283,-3.4911,-3.4976,-3.5421,-3.5994,-3.5986,-3.5625,-3.6068,-3.6332,-3.6477,-3.6207,-3.5936,-3.5704,-3.5704,-3.5704,-3.5607,-3.5032,-3.4839,-3.4742,-3.4156,-3.3977,-3.3977,-3.3977,-3.3931,-3.3878,-3.3878,-3.3519,-3.3318,-3.4048,-3.3874,-3.3732,-3.4446,-3.3982,-3.3625,-3.4433,-3.3963,-3.3483,-3.3757,-3.3118,-3.235,-3.1785,-3.0776,-2.9935,0.0,-3.033,-3.1607,-3.3609,-3.4668,-3.4692,-3.3338,-3.4335,-3.4096,-3.1735,-3.1963,-3.2126,-3.1956,-3.1969,-3.2094,-3.2328,-3.2129,-3.1819,-3.1362,-3.0948,-3.0721,-3.0723,-3.0639,-3.059,-3.0527,-3.0439,-3.0273,-3.003,-2.9942,-2.9458,-2.8736,-2.8583,-2.8542,-2.8439,-2.7481,-2.7065,-2.6873,-2.5796,-2.4818,-2.3932,-4.2352,-4.1704,-4.1098,-4.1106,-4.1615,-4.2514,-4.3941,-4.5389,-4.6601,-4.75,-4.7324,-4.7225,-4.7478,-4.7219,-4.6779,-4.6089,-4.6036,-4.5993,-4.5886,-4.5396,-4.5176,-4.5381,-4.4349,-4.375,-4.3692,-4.2237,-4.0962,-3.9842,-3.8103,-3.6889,-3.6188,-3.5523,-3.528,-3.5405,-3.5324,-3.5003,-3.4578,-3.5755,-3.5653,-3.4765,-3.55,-3.6075,-3.6419,-3.5897,-3.5878,-3.6052,-3.5452,-3.5245,-3.511,-3.4234,-3.3944,-3.3847,-3.3281,-3.3107,-3.3107,-3.3107,-3.3107,-3.3107,-3.3107,-3.2995,-3.2993,-3.3349,-3.3306,-3.3356,-3.4024,-3.3531,-3.3175,-3.4001,-3.3757,-3.3191,-3.2568,-3.2731,-3.2478,-3.0902,-3.0263,-2.9931,0.0,-3.0021,-3.0856,-3.2672,-3.3295,-3.3447,-3.309,-3.3874,-3.3378,-3.0887,-3.1525,-3.1758,-3.1063,-3.1912,-3.2418,-3.2448,-3.275,-3.2592,-3.1883,-3.1425,-3.0864,-3.0232,-3.0189,-2.9984,-2.9601,-2.9465,-2.9315,-2.9146,-2.929,-2.8964,-2.8287,-2.8155,-2.8096,-2.8012,-2.7066,-2.6869,-2.6941,-2.5439,-2.4088,-2.2965,-4.2552,-4.1771,-4.1231,-4.1281,-4.2668,-4.4035,-4.4875,-4.5735,-4.6616,-4.7498,-4.6873,-4.666,-4.7421,-4.6773,-4.623,-4.6112,-4.6109,-4.6076,-4.6017,-4.5993,-4.5609,-4.4711,-4.4627,-4.3834,-4.2164,-4.286,-4.1968,-3.9338,-3.9203,-3.8232,-3.6463,-3.5746,-3.5405,-3.5457,-3.6412,-3.595,-3.4559,-3.6253,-3.6093,-3.4745,-3.5496,-3.578,-3.5742,-3.5665,-3.6149,-3.6632,-3.4993,-3.4394,-3.4258,-3.3339,-3.3049,-3.303,-3.2991,-3.2972,-3.2972,-3.2972,-3.2972,-3.2972,-3.2972,-3.2885,-3.2756,-3.2587,-3.2455,-3.2523,-3.3188,-3.2678,-3.2284,-3.3156,-3.3296,-3.2777,-3.1136,-3.2839,-3.3317,-2.9736,-3.0556,-3.1231,-3.0085,-2.9875,-3.0534,-3.2336,-3.2985,-3.3397,-3.3657,-3.4236,-3.3719,-3.1554,-3.2005,-3.1732,-3.0261,-3.1061,-3.1647,-3.1831,-3.2555,-3.2668,-3.2067,-3.2041,-3.1166,-2.9452,-2.9457,-2.8991,-2.8109,-2.784,-2.7655,-2.754,-2.8192,-2.8306,-2.804,-2.804,-2.8021,-2.791,-2.7073,-2.6621,-2.6292,-2.5138,-2.3895,-2.2816,-4.2435,-4.2747,-4.3237,-4.3884,-4.4378,-4.4733,-4.4967,-4.5736,-4.6619,-4.7498,-4.74,-4.7343,-4.7557,-4.7363,-4.6952,-4.6241,-4.6167,-4.615,-4.6079,-4.6072,-4.5931,-4.5648,-4.5021,-4.4432,-4.3943,-4.2937,-4.1995,-4.1139,-3.9248,-3.8066,-3.7555,-3.6151,-3.5525,-3.5629,-3.5885,-3.5118,-3.3673,-3.4717,-3.4925,-3.4612,-3.5418,-3.6071,-3.6458,-3.5206,-3.5264,-3.5878,-3.48,-3.4394,-3.4181,-3.2643,-3.2121,-3.2024,-3.1429,-3.1236,-3.1236,-3.1236,-3.1236,-3.1236,-3.1236,-3.1212,-3.1295,-3.1744,-3.1826,-3.1957,-3.2531,-3.1976,-3.1562,-3.2285,-3.1963,-3.1784,-3.256,-3.2722,-3.2729,-3.2699,-3.2316,-3.1938,-3.1628,-3.1071,-3.1302,-3.2972,-3.2248,-3.2089,-3.3298,-3.2456,-3.1686,-3.135,-3.0996,-3.0576,-3.0081,-3.1541,-3.244,-3.2535,-3.2206,-3.2339,-3.2964,-3.1697,-3.0837,-3.0375,-3.0321,-3.0064,-2.9638,-2.9564,-2.9345,-2.9032,-2.9213,-2.8493,-2.7204,-2.7204,-2.6851,-2.6191,-2.5042,-2.4339,-2.4064,-2.4534,-2.3986,-2.3015,-4.3548,-4.3938,-4.4426,-4.4912,-4.5327,-4.5565,-4.5565,-4.5985,-4.6615,-4.7494,-4.7261,-4.7185,-4.7557,-4.7261,-4.6814,-4.6288,-4.6249,-4.6226,-4.6154,-4.5798,-4.5557,-4.5472,-4.4282,-4.3588,-4.3557,-4.2224,-4.1473,-4.1364,-3.9186,-3.8135,-3.8084,-3.6389,-3.5629,-3.5708,-3.5721,-3.5254,-3.4462,-3.4922,-3.5307,-3.5603,-3.5675,-3.5737,0.0,-3.4761,-3.4466,-3.4447,-3.3576,-3.3267,-3.3054,-3.1719,-3.1275,-3.1197,-3.0733,-3.0598,-3.0598,-3.0598,-3.0598,-3.052,-3.0133,-3.0037,-3.0008,-2.9946,-3.0238,-3.0663,-3.1256,-3.1246,-3.1207,-3.16,-3.1543,-3.1371,-3.1162,-3.197,-3.2852,-3.3389,-3.2464,-3.1673,-3.1673,-3.1582,-3.1769,-3.2401,-3.2301,-3.2441,-3.315,-3.1846,-3.1083,-3.1332,-3.096,-3.0583,-3.024,-3.1607,-3.2508,-3.2746,-3.3159,-3.3337,-3.3305,-3.2678,-3.1618,-3.0136,-2.9994,-2.9661,-2.9149,-2.8965,-2.8771,-2.8574,-2.883,-2.8166,-2.6907,-2.6907,-2.6423,-2.5616,-2.4821,-2.4039,-2.3506,-2.4384,-2.4022,-2.3107,-4.499,-4.5088,-4.5168,-4.5168,-4.5792,-4.63,-4.63,-4.6308,-4.6566,-4.7329,-4.6766,-4.6535,-4.718,-4.6691,-4.6202,-4.5988,-4.6065,-4.6052,-4.5876,-4.5153,-4.4714,-4.4651,-4.2961,-4.2039,-4.2038,-4.1024,-4.0546,-4.0638,-3.8956,-3.82,-3.8277,-3.6532,-3.5718,-3.5722,-3.5772,-3.5699,-3.557,-3.5672,-3.6026,-3.6472,-3.5915,-3.5179,-3.4394,-3.4274,-3.3702,-3.2817,-3.1942,-3.171,-3.1676,-3.0868,-3.0598,-3.0598,-3.0598,-3.0598,-3.0578,-3.0462,-3.0424,-3.023,-2.9364,-2.9132,-2.8916,-2.8042,-2.8401,-2.9137,-2.9811,-3.0426,-3.0856,-3.0928,-3.1411,-3.111,-2.8829,-3.0832,-3.2828,-3.2809,-3.1783,-3.0998,-3.0998,-3.1691,-3.2014,-3.1485,-3.2574,0.0,-3.3047,-3.1937,-3.1351,-3.1605,-3.1495,-3.1132,-3.0501,-3.142,-3.2171,-3.2615,-3.4141,-3.4535,-3.3604,-3.3952,-3.2704,-2.9868,-2.9437,-2.8821,-2.8044,-2.771,-2.7518,-2.7524,-2.8015,-2.7759,-2.6988,-2.6959,-2.6412,-2.5579,-2.5374,-2.4668,-2.3822,-2.4431,-2.3986,-2.3107,-4.499,-4.5578,-4.6066,-4.6066,-4.6202,-4.63,-4.63,-4.6308,-4.6351,-4.6507,-4.6392,-4.6082,-4.5519,-4.5961,-4.5722,-4.4284,-4.4805,-4.4923,-4.4192,-4.3997,-4.3886,-4.3814,-4.2148,-4.1178,-4.1132,-3.961,-3.9151,-3.9815,-3.8127,-3.767,-3.8335,-3.6602,-3.5782,-3.5786,-3.5797,-3.5047,-3.381,-3.4516,-3.4491,-3.4046,-3.5236,-3.5179,-3.4327,-3.3662,-3.283,-3.1918,-3.1111,-3.1241,-3.1676,-3.0868,-3.0598,-3.0598,-3.0598,-3.0598,-3.0462,-2.9747,-2.9534,-2.9345,-2.8455,-2.8223,-2.818,-2.8008,-2.8081,-2.8377,-2.9104,-2.9364,-2.9589,-3.0029,-3.0194,-3.0098,-2.9532,-2.9665,-3.0506,-3.2483,-3.1783,-3.0998,-3.0998,-3.1691,-3.2158,-3.2041,-3.185,-3.1944,-3.2546,-3.1893,-3.1813,-3.2725,-3.1972,-3.115,-3.0388,-3.1299,-3.1958,-3.2193,-3.2201,-3.3134,-3.5097,-3.3175,-3.2246,-3.2348,-3.0706,-2.9756,-2.9447,-2.9374,-2.9211,-2.9014,-2.8899,-2.8345,-2.7537,-2.7326,-2.6361,-2.502,-2.4815,-2.4245,-2.3627,-2.4168,-2.3837,-2.3107,-4.5554,-4.5913,-4.6214,-4.6296,-4.63,-4.63,-4.63,-4.6305,-4.6306,-4.6306,-4.6306,-4.5976,-4.51,-4.5368,-4.5111,-4.3808,-4.4078,-4.4154,-4.3729,-4.328,-4.2801,-4.2323,-4.1074,-4.0148,-3.9667,-3.8422,-3.8383,-3.9653,-3.7529,-3.7144,-3.8367,-3.6615,-3.5819,-3.5866,-3.6313,-3.6073,-3.5345,-3.5773,-3.5697,-3.5256,-3.5132,-3.4575,-3.3743,-3.2895,-3.1983,-3.1137,-3.0734,-3.0851,-3.112,-3.0733,-3.0598,-3.0598,-3.0598,-3.0288,-2.9843,-2.9418,-2.8977,-2.8436,-2.7561,-2.7329,-2.7232,-2.6807,-2.702,-2.7413,-2.7764,-2.8104,-2.8402,-2.8644,-2.86,-2.8755,-2.9551,-3.0143,-3.0732,-3.1448,-3.1677,-3.146,-3.0504,-3.1071,-3.1338,-3.0671,-3.0643,-3.0895,-3.1457,-3.1434,-3.1605,-3.2133,-3.1983,-3.1323,-3.0105,-3.1058,-3.1753,-3.1999,-3.2416,-3.3298,-3.4665,-3.3865,-3.3231,-3.2776,-3.1317,-3.0576,-3.045,-2.9932,-2.957,-2.9343,-2.9093,-2.8459,-2.7554,-2.6939,-2.5977,-2.4888,-2.4676,-2.4141,-2.3505,-2.3622,-2.3435,-2.3107,-4.6041,-4.6057,-4.6095,-4.6206,-4.6243,-4.6269,-4.6269,-4.6275,-4.63,-4.63,-4.6144,-4.5695,-4.4816,-4.4719,-4.4309,-4.3237,-4.3313,-4.3352,-4.3159,-4.2494,-4.181,-4.1129,-4.0091,-3.9218,-3.8516,-3.7454,-3.7661,-3.9174,-3.7152,-3.6857,-3.8105,-3.6747,-3.6024,-3.5945,-3.6808,-3.6991,-3.6679,-3.6874,-3.6807,-3.644,-3.5077,-3.4037,-3.3206,-3.2348,-3.1439,-3.0623,-3.062,-3.0607,-3.0606,-3.0607,-3.0598,-3.0598,-3.0598,-2.9998,-2.9268,-2.9074,-2.8416,-2.7542,-2.6687,-2.6435,-2.63,-2.5662,-2.5971,-2.6493,-2.6663,-2.7064,-2.7452,-2.7574,-2.7381,-2.7711,-2.9382,-3.0278,-3.0767,-3.0739,-3.1293,-3.1245,-2.9802,-3.0264,-3.0264,-2.8941,-2.9721,-3.0287,-3.0084,-3.112,-3.1547,-3.0888,-3.167,-3.1564,-3.0129,-3.1157,-3.1876,-3.2115,-3.3317,-3.4184,-3.4639,-3.4751,-3.4208,-3.3067,-3.1703,-3.1068,-3.1021,-3.0067,-2.9492,-2.9283,-2.9031,-2.8413,-2.7471,-2.6579,-2.5865,-2.5295,-2.4914,-2.4361,-2.369,-2.3446,-2.3247,-2.3107,-4.5915,-4.5915,-4.592,-4.593,-4.6045,-4.6128,-4.6128,-4.6216,-4.63,-4.63,-4.5617,-4.4797,-4.3918,-4.3821,-4.3159,-4.15,-4.2064,-4.2181,-4.1402,-4.1265,-4.1187,-4.1109,-3.957,-3.8643,-3.8496,-3.6875,-3.6499,-3.7429,-3.7201,-3.716,-3.7308,-3.7157,-3.6646,-3.5937,-3.6816,-3.6366,-3.4992,-3.5773,-3.5624,-3.4816,-3.4659,-3.4061,-3.322,-3.2397,-3.1508,-3.0694,-3.0687,-3.0645,-3.0591,-3.061,-3.0598,-3.0598,-3.0598,-2.9998,-2.9132,-2.8358,-2.7503,-2.6648,-2.5836,-2.5604,-2.5584,-2.5526,-2.5565,-2.5797,-2.6532,-2.6747,-2.6935,-2.7497,-2.7381,-2.7711,-2.9382,-2.8475,-2.8407,-3.1294,-3.0337,-2.9179,-2.8997,-2.9531,-2.9359,-2.7913,-2.9777,-3.0453,-2.8523,-3.1452,-3.2324,-2.9531,-3.1099,-3.1818,-3.0926,-3.2027,-3.2717,-3.2802,-3.4085,-3.5515,-3.7061,-3.486,-3.4072,-3.465,-3.2138,-3.0922,-3.0885,-3.0058,-2.955,-2.9283,-2.8888,-2.8322,-2.7627,-2.6859,-2.6609,-2.6618,-2.5694,-2.4986,-2.4468,-2.427,-2.3716,-2.3107,-4.5816,-4.5828,-4.5853,-4.5889,-4.594,-4.5832,-4.5326,-4.5335,-4.5223,-4.4738,-4.4879,-4.4465,-4.3079,-4.2923,-4.2435,-4.1207,-4.0932,-4.0698,-4.0346,-3.9879,-3.9372,-3.8843,-3.818,-3.7561,-3.7003,-3.6319,-3.6366,-3.7202,-3.7203,-3.7472,-3.7965,-3.7441,-3.673,-3.5918,-3.6304,-3.6102,-3.5509,-3.5841,-3.5477,-3.4606,-3.4099,-3.3359,-3.25,-3.1699,-3.1111,-3.0762,-3.0756,-3.073,-3.0656,-3.0618,-3.0597,-3.0505,-2.9977,-2.9255,-2.8415,-2.7532,-2.6653,-2.591,-2.5588,-2.5507,-2.5507,-2.5507,-2.5507,-2.5584,-2.5913,-2.5929,-2.5924,-2.6178,-2.6807,-2.7522,-2.8202,-2.8883,-2.9429,-2.9639,-2.9402,-2.882,-2.7727,-2.7734,-2.7458,-2.651,-2.717,-2.7596,-2.7338,-2.94,-3.0649,-3.0387,-3.1956,-3.2361,-3.1071,-3.2142,-3.3032,-3.3549,-3.385,-3.4795,-3.6484,-3.4975,-3.4372,-3.4684,-3.2606,-3.1616,-3.1579,-3.0283,-2.9472,-2.9031,-2.8602,-2.8192,-2.7847,-2.7429,-2.7038,-2.6629,-2.5758,-2.4993,-2.4343,-2.3789,-2.337,-2.3107,-4.5712,-4.5734,-4.5752,-4.5796,-4.5632,-4.5293,-4.473,-4.451,-4.4098,-4.3265,-4.3772,-4.3749,-4.2531,-4.2162,-4.1771,-4.1148,-4.0307,-3.98,-3.98,-3.906,-3.8337,-3.7711,-3.7438,-3.7009,-3.6402,-3.6129,-3.6275,-3.6854,-3.7107,-3.7402,-3.777,-3.7399,-3.6757,-3.5935,-3.6255,-3.6246,-3.5973,-3.5738,-3.5252,-3.4608,-3.3476,-3.2658,-3.2017,-3.1219,-3.0876,-3.0839,-3.0815,-3.0764,-3.068,-3.0369,-3.0254,-3.0145,-2.95,-2.8574,-2.7605,-2.697,-2.6188,-2.5506,-2.5495,-2.5503,-2.5499,-2.5507,-2.5499,-2.5492,-2.5507,-2.5432,-2.5346,-2.5308,-2.6465,-2.7476,-2.7411,-2.9154,-3.0161,-2.8858,-2.8874,-2.8516,-2.6996,-2.6661,-2.6446,-2.607,-2.647,-2.6919,-2.724,-2.8864,-3.0106,-3.062,-3.2147,-3.248,-3.117,-3.2406,-3.3321,-3.3734,-3.3997,-3.4695,-3.5897,-3.5033,-3.4612,-3.4583,-3.287,-3.2164,-3.2341,-3.0603,-2.945,-2.882,-2.8435,-2.8164,-2.7965,-2.7632,-2.7264,-2.6858,-2.611,-2.5319,-2.4554,-2.3997,-2.3493,-2.3095,-4.5594,-4.5594,-4.5594,-4.5594,-4.5009,-4.4511,-4.4491,-4.3879,-4.3102,-4.2223,-4.2241,-4.2345,-4.2391,-4.1635,-4.1109,-4.1109,-4.0307,-3.98,-3.98,-3.906,-3.8591,-3.8572,-3.775,-3.7301,-3.7282,-3.6441,-3.5992,-3.6012,-3.6872,-3.6852,-3.6052,-3.6891,-3.6833,-3.6031,-3.6891,-3.6813,-3.5934,-3.5076,-3.4705,-3.4549,-3.2812,-3.211,-3.2013,-3.1218,-3.0907,-3.0891,-3.082,-3.0797,-3.0657,-2.973,-2.9405,-2.9405,-2.9315,-2.8167,-2.681,-2.681,-2.6171,-2.5495,-2.5495,-2.5498,-2.5503,-2.5508,-2.5503,-2.5499,-2.5505,-2.5503,-2.5452,-2.533,-2.6575,-2.7644,-2.7431,-2.8776,-2.9851,-2.9701,-2.8867,-2.7932,-2.7112,-2.6888,-2.6841,-2.6972,-2.8959,-2.9826,-2.8511,-3.0845,-3.1618,-2.9564,-3.1155,-3.1955,-3.1336,-3.3011,-3.3716,-3.3135,-3.4918,-3.5878,-3.5897,-3.5033,-3.4612,-3.4583,-3.2772,-3.2329,-3.3022,-3.101,-2.9582,-2.8682,-2.8484,-2.825,-2.7943,-2.7272,-2.7288,-2.7628,-2.7017,-2.6214,-2.5384,-2.5384,-2.4405,-2.3082,-4.4836,-4.4701,-4.4528,-4.3989,-4.3692,-4.3347,-4.2749,-4.2492,-4.2077,-4.1249,-4.1228,-4.1295,-4.1303,-4.1171,-4.1109,-4.1109,-3.9801,-3.8982,-3.8982,-3.7633,-3.6833,-3.6833,-3.6558,-3.6402,-3.6402,-3.5564,-3.5115,-3.5115,-3.5389,-3.5389,-3.5115,-3.5408,-3.5057,-3.4236,-3.4528,-3.4489,-3.4216,-3.3923,-3.3476,-3.2872,-3.2325,-3.1738,-3.1192,-3.0921,-3.0823,-3.0845,-3.0855,-3.0486,-2.9921,-2.9583,-2.8686,-2.7686,-2.7662,-2.7294,-2.6751,-2.6156,-2.5784,-2.5567,-2.5518,-2.5508,-2.5505,-2.5495,-2.5505,-2.5498,-2.5492,-2.597,-2.6378,-2.6324,-2.7537,-2.856,-2.8504,-2.9265,-2.9707,-2.9103,-2.8219,-2.7305,-2.6505,-2.5718,-2.5268,-2.5347,-2.6451,-2.7047,-2.6661,-2.878,-3.0178,-3.0206,-3.196,-3.2806,-3.2347,-3.3264,-3.4089,-3.4721,-3.4661,-3.5025,-3.5897,-3.4903,-3.4461,-3.4583,-3.287,-3.1811,-3.1362,-3.0641,-3.0075,-2.9606,-2.8758,-2.834,-2.8242,-2.7951,-2.785,-2.777,-2.6552,-2.5782,-2.5279,-2.4212,-2.3511,-2.3095,-4.3951,-4.3855,-4.3682,-4.3181,-4.2835,-4.2431,-4.1885,-4.1554,-4.1195,-4.0699,-4.0717,-4.0751,-4.0751,-4.089,-4.0872,-4.0598,-3.9364,-3.8454,-3.8123,-3.6794,-3.5992,-3.5992,-3.568,-3.5504,-3.5504,-3.4666,-3.4217,-3.4217,-3.4217,-3.4217,-3.4217,-3.4217,-3.3925,-3.3396,-3.3396,-3.3396,-3.3377,-3.3045,-3.2597,-3.2071,-3.1738,-3.1289,-3.08,-3.08,-3.0606,-3.0353,-3.0396,-2.985,-2.9052,-2.8691,-2.7849,-2.6884,-2.6554,-2.6439,-2.631,-2.5754,-2.5605,-2.5586,-2.5554,-2.5548,-2.5544,-2.5531,-2.5525,-2.5592,-2.5903,-2.6437,-2.6921,-2.7199,-2.8236,-2.9085,-2.8988,-2.9534,-2.962,-2.8415,-2.7725,-2.6923,-2.5771,-2.5065,-2.4995,-2.5928,-2.6453,-2.7014,-2.7642,-2.8854,-2.9739,-3.0116,-3.1607,-3.2493,-3.2464,-3.3613,-3.4344,-3.4488,-3.4247,-3.4457,-3.5184,-3.4506,-3.4245,-3.4363,-3.3238,-3.2057,-3.0868,-3.0692,-3.0399,-2.9933,-2.8918,-2.8283,-2.7931,-2.7865,-2.754,-2.6994,-2.6052,-2.5394,-2.4875,-2.3909,-2.3353,-2.3082,-4.3019,-4.3,-4.2989,-4.2923,-4.225,-4.1712,-4.1712,-4.1027,-4.0496,-4.0496,-4.0602,-4.0681,-4.0681,-4.0696,-4.0405,-3.9646,-3.8968,-3.8214,-3.7337,-3.6477,-3.6009,-3.5992,-3.5174,-3.4705,-3.4705,-3.3788,-3.3279,-3.3221,-3.3221,-3.3221,-3.3221,-3.3221,-3.3221,-3.3221,-3.3221,-3.3221,-3.3162,-3.2343,-3.2013,-3.1934,-3.1133,-3.08,-3.08,-3.08,-3.0294,-2.9592,-2.9592,-2.9006,-2.8088,-2.7269,-2.6968,-2.6777,-2.5957,-2.5651,-2.5598,-2.5604,-2.5604,-2.5601,-2.5601,-2.5589,-2.5602,-2.5598,-2.5599,-2.5829,-2.6698,-2.6997,-2.7272,-2.7969,-2.8773,-2.9303,-2.904,-2.9608,-2.9523,-2.7701,-2.7361,-2.6744,-2.5049,-2.491,-2.5796,-2.7992,-2.8392,-2.9087,-3.0584,-3.0488,-3.0109,-2.9522,-3.0455,-3.1307,-3.192,-3.3963,-3.4447,-3.2951,-3.3759,-3.4161,-3.3998,-3.3985,-3.3979,-3.3949,-3.3797,-3.2928,-3.1395,-3.1137,-3.0595,-2.9839,-2.8962,-2.8072,-2.7207,-2.7207,-2.6571,-2.5601,-2.5535,-2.5028,-2.4291,-2.4225,-2.3721,-2.304,-4.2157,-4.2029,-4.1843,-4.1229,-4.0934,-4.0804,-4.0804,-4.0631,-4.0496,-4.0496,-4.0527,-4.0549,-4.0549,-4.0063,-3.9398,-3.8562,-3.841,-3.802,-3.7191,-3.6377,-3.5945,-3.5991,-3.5174,-3.4705,-3.4705,-3.3183,-3.209,-3.1425,-3.1425,-3.1425,-3.1425,-3.1425,-3.1425,-3.1425,-3.1425,-3.1425,-3.1405,-3.1191,-3.1114,-3.1094,-3.0878,-3.08,-3.08,-3.08,-3.0294,-2.9592,-2.9592,-2.8616,-2.7289,-2.7074,-2.6558,-2.5977,-2.5762,-2.5659,-2.5595,-2.5598,-2.5595,-2.5601,-2.5601,-2.5598,-2.5595,-2.5598,-2.6081,-2.6777,-2.7605,-2.8314,-2.8858,-2.9034,-2.9634,-3.0123,-3.0051,-2.9595,-2.886,-2.7789,-2.703,-2.621,-2.5164,-2.548,-2.6023,-2.6588,-2.7706,-2.8565,-2.896,-2.9388,-2.9837,-3.0269,-3.0969,-3.1666,-3.2316,-3.3571,-3.4178,-3.3961,-3.3723,-3.3739,-3.3998,-3.386,-3.3613,-3.3317,-3.3894,-3.3556,-3.2434,-3.1596,-3.1031,-3.0636,-2.9215,-2.8135,-2.7356,-2.7356,-2.6722,-2.5671,-2.4971,-2.4521,-2.4208,-2.3445,-2.3139,-2.3065,-4.1017,-4.1013,-4.0967,-4.0526,-4.0455,-4.0452,-4.0452,-4.0487,-4.0495,-4.0452,-4.0484,-4.0508,-4.0503,-4.0133,-3.9398,-3.8157,-3.785,-3.7374,-3.6607,-3.5772,-3.5502,-3.5971,-3.4393,-3.369,-3.41,-3.2402,-3.127,-3.08,-3.08,-3.08,-3.08,-3.08,-3.08,-3.08,-3.08,-3.08,-3.08,-3.08,-3.08,-3.08,-3.08,-3.08,-3.0761,-3.0392,-2.9728,-2.8947,-2.8558,-2.7543,-2.6411,-2.6411,-2.6085,-2.57,-2.57,-2.5684,-2.5658,-2.5649,-2.5614,-2.5595,-2.5607,-2.5601,-2.5698,-2.6087,-2.6556,-2.7216,-2.8414,-2.9055,-2.9499,-2.9877,-3.0242,-3.0467,-3.0413,-2.9636,-2.8721,-2.7885,-2.7281,-2.6638,-2.5767,-2.6289,-2.7032,-2.7703,-2.8219,-2.877,-2.9467,-2.9455,-2.957,-3.0008,-3.0556,-3.1054,-3.1526,-3.2575,-3.3395,-3.3863,-3.3657,-3.3629,-3.3855,-3.386,-3.3764,-3.3648,-3.3907,-3.3586,-3.2767,-3.1662,-3.0901,-3.0364,-2.8757,-2.7586,-2.6844,-2.6802,-2.5991,-2.4831,-2.4586,-2.4258,-2.386,-2.3247,-2.3144,-2.3241,-3.9912,-4.0148,-4.0316,-4.0316,-4.0362,-4.0407,-4.0407,-4.0441,-4.0458,-4.0415,-4.0444,-4.0476,-4.0474,-4.0265,-3.9538,-3.8108,-3.7232,-3.6498,-3.5895,-3.5155,-3.5051,-3.5768,-3.3547,-3.2571,-3.3176,-3.1615,-3.0776,-3.0776,-3.0799,-3.0742,-3.0626,-3.0626,-3.0626,-3.0626,-3.0626,-3.0626,-3.0626,-3.0626,-3.0547,-3.041,-3.041,-3.041,-3.0351,-2.965,-2.8869,-2.801,-2.7269,-2.645,-2.5707,-2.5707,-2.5707,-2.5707,-2.5707,-2.5697,-2.5703,-2.5703,-2.5654,-2.5609,-2.5593,-2.5704,-2.6009,-2.6864,-2.7178,-2.7683,-2.9233,-2.9602,-2.9783,-3.047,-3.0608,-3.0563,-3.0457,-2.9602,-2.8766,-2.8261,-2.782,-2.7332,-2.6777,-2.7437,-2.8445,-2.9698,-2.9437,-2.9631,-3.0819,-3.0242,-2.9731,-2.9599,-3.0083,-3.0502,-3.0713,-3.172,-3.2577,-3.3194,-3.349,-3.3643,-3.3643,-3.3732,-3.3864,-3.4023,-3.3556,-3.3073,-3.2533,-3.1349,-3.0455,-2.9712,-2.8105,-2.6934,-2.6192,-2.5949,-2.5002,-2.3761,-2.4212,-2.4028,-2.3494,-2.3336,-2.3372,-2.3436,-3.958,-3.9791,-3.9982,-3.9982,-4.0215,-4.0407,-4.0407,-4.0415,-4.0415,-4.0407,-4.0405,-4.0424,-4.0424,-3.9152,-3.8201,-3.7939,-3.6536,-3.5656,-3.5649,-3.5524,-3.5249,-3.4839,-3.3714,-3.282,-3.224,-3.1226,-3.072,-3.072,-3.077,-3.045,-2.9788,-2.9788,-2.9788,-2.9788,-2.9788,-2.9788,-2.9788,-2.9788,-2.9357,-2.8693,-2.8693,-2.8693,-2.8674,-2.8557,-2.7952,-2.7172,-2.7055,-2.645,-2.5707,-2.5707,-2.5707,-2.5707,-2.5707,-2.5709,-2.5694,-2.5703,-2.5683,-2.5678,-2.5613,-2.6145,-2.6883,-2.7715,-2.8473,-2.9272,-3.0266,-3.0499,-3.0535,-3.0664,-3.0637,-3.0595,-3.0567,-2.9207,-2.849,-2.9707,-2.8098,-2.7106,-2.8338,-2.9198,-2.9802,-3.0026,-3.1046,-3.1553,-3.111,-3.1439,-3.132,-3.0476,-3.1277,-3.1901,-3.2161,-3.2506,-3.2622,-3.2393,-3.3092,-3.3452,-3.3452,-3.2967,-3.2753,-3.2774,-3.203,-3.1627,-3.1506,-3.0464,-2.9911,-2.9712,-2.8105,-2.6934,-2.6149,-2.5439,-2.4588,-2.3689,-2.3552,-2.3506,-2.3482,-2.3295,-2.333,-2.3471,-3.9285,-3.9489,-3.9679,-3.9679,-3.9918,-4.0119,-4.0119,-4.0252,-4.0344,-4.0355,-4.0372,-4.0398,-4.0353,-3.9265,-3.838,-3.7934,-3.6769,-3.5873,-3.5463,-3.5102,-3.4778,-3.4496,-3.3242,-3.2137,-3.1267,-3.0433,-3.0005,-3.0005,-2.9567,-2.916,-2.8849,-2.8845,-2.8871,-2.8905,-2.8905,-2.8905,-2.8905,-2.8907,-2.8674,-2.8303,-2.8303,-2.8303,-2.8244,-2.7776,-2.7348,-2.6938,-2.6469,-2.6039,-2.5707,-2.5707,-2.5707,-2.5707,-2.5707,-2.5707,-2.5709,-2.5697,-2.6015,-2.6342,-2.6313,-2.6906,-2.7757,-2.8589,-2.9094,-2.9622,-3.0499,-3.0694,-3.0694,-3.0694,-3.0672,-3.0653,-3.0653,-2.9171,-2.8356,-2.9554,-2.8329,-2.776,-2.9411,-3.0326,-3.1112,-3.1979,-3.2305,-3.2463,-3.2504,-3.2364,-3.2043,-3.1541,-3.1859,-3.207,-3.2162,-3.2151,-3.1869,-3.1236,-3.201,-3.247,-3.2537,-3.2371,-3.2245,-3.2169,-3.1691,-3.1189,-3.0619,-3.007,-2.9567,-2.9065,-2.7441,-2.6536,-2.6113,-2.4864,-2.4118,-2.3739,-2.3617,-2.3613,-2.366,-2.3526,-2.3542,-2.3638,-3.9007,-3.9219,-3.9414,-3.9414,-3.9635,-3.9796,-3.9796,-4.003,-4.0206,-4.0206,-4.03,-4.0286,-4.003,-3.928,-3.8473,-3.7661,-3.6787,-3.5933,-3.5055,-3.4513,-3.4174,-3.4061,-3.2275,-3.0968,-3.0292,-2.9484,-2.9061,-2.9057,-2.8401,-2.8026,-2.7868,-2.789,-2.7926,-2.7951,-2.7978,-2.8002,-2.8002,-2.8008,-2.7874,-2.7698,-2.7698,-2.7698,-2.762,-2.6957,-2.6703,-2.6606,-2.5941,-2.5707,-2.5707,-2.5707,-2.5707,-2.5707,-2.5707,-2.5707,-2.5746,-2.5941,-2.6718,-2.7459,-2.7257,-2.7805,-2.8595,-2.9259,-2.9557,-2.9874,-3.0558,-3.0694,-3.0694,-3.0694,-3.0694,-3.0694,-3.0694,-2.94,-2.8722,-2.9984,-2.9207,-2.9083,-3.0925,-3.1672,-3.2485,-3.3707,-3.3454,-3.3316,-3.3683,-3.3267,-3.2881,-3.2637,-3.2635,-3.2606,-3.2515,-3.215,-3.149,-3.0483,-3.0999,-3.1453,-3.1727,-3.1694,-3.163,-3.1518,-3.1187,-3.0599,-2.9814,-2.9653,-2.9243,-2.8509,-2.6898,-2.6204,-2.6077,-2.4465,-2.3806,-2.3806,-2.3806,-2.3806,-2.3795,-2.3747,-2.375,-2.3753,-3.8738,-3.895,-3.9129,-3.9129,-3.935,-3.9539,-3.9539,-3.9762,-3.9935,-3.9924,-4.0138,-4.0005,-3.9183,-3.8386,-3.7553,-3.6689,-3.5862,-3.5028,-3.4155,-3.4048,-3.3716,-3.3045,-3.0694,-2.9366,-2.9308,-2.8502,-2.8081,-2.8012,-2.8061,-2.7689,-2.6903,-2.697,-2.6965,-2.6924,-2.7048,-2.7102,-2.7103,-2.7092,-2.6625,-2.5883,-2.5883,-2.5883,-2.5883,-2.5824,-2.5805,-2.5785,-2.5726,-2.5707,-2.5707,-2.5707,-2.5707,-2.5707,-2.5707,-2.5707,-2.5863,-2.6664,-2.8044,-2.9139,-2.8311,-2.8732,-2.9418,-2.9476,-3.0041,-3.0616,-3.0694,-3.0694,-3.0694,-3.0694,-3.0694,-3.0694,-3.0694,-2.9929,-3.0063,-3.244,-3.1458,-3.1207,-3.35,-3.3876,-3.3923,-3.3975,-3.4535,-3.4617,-3.3864,-3.4347,-3.4396,-3.3648,-3.4215,-3.4517,-3.4308,-3.3463,-3.2255,-3.0644,-3.0454,-3.0761,-3.1518,-3.0796,-3.0438,-3.0415,-2.9651,-2.9181,-2.8978,-2.8966,-2.884,-2.8509,-2.6898,-2.6204,-2.6077,-2.4465,-2.3806,-2.3806,-2.3806,-2.3806,-2.3795,-2.3795,-2.3795,-2.3764,-3.8707,-3.878,-3.8851,-3.8851,-3.9073,-3.9245,-3.9245,-3.9489,-3.9717,-3.9881,-3.953,-3.9184,-3.9012,-3.7797,-3.6861,-3.6519,-3.5733,-3.5092,-3.477,-3.427,-3.3439,-3.2148,-3.0667,-2.964,-2.9088,-2.8291,-2.7598,-2.7035,-2.6549,-2.615,-2.5867,-2.5902,-2.5912,-2.5932,-2.5982,-2.6031,-2.6076,-2.611,-2.5953,-2.5697,-2.5701,-2.5702,-2.5703,-2.5706,-2.5707,-2.5765,-2.6313,-2.6508,-2.6508,-2.6508,-2.6508,-2.6508,-2.6508,-2.6508,-2.6781,-2.8206,-2.9052,-2.9604,-2.9763,-3.0054,-3.0292,-3.0245,-3.0475,-3.0703,-3.0704,-3.0694,-3.0694,-3.0694,-3.0694,-3.0694,-3.0694,-2.9991,-2.9887,-3.1375,-3.0582,-3.067,-3.3137,-3.2983,-3.3173,-3.4683,-3.4638,-3.4534,-3.4661,-3.4916,-3.4949,-3.4592,-3.4831,-3.4907,-3.4687,-3.3275,-3.1965,-3.0832,-3.0239,-3.0068,-3.0385,-3.0068,-2.9878,-2.9744,-2.9306,-2.9034,-2.8905,-2.8773,-2.8675,-2.8545,-2.7423,-2.6934,-2.6808,-2.5208,-2.4538,-2.4483,-2.3994,-2.3806,-2.3806,-2.3806,-2.3806,-2.3774,-3.8707,-3.8707,-3.8707,-3.8707,-3.8851,-3.8979,-3.8979,-3.9192,-3.9452,-3.9616,-3.9263,-3.8769,-3.8156,-3.7134,-3.629,-3.5755,-3.5171,-3.4827,-3.4827,-3.3796,-3.2699,-3.1621,-3.049,-2.9609,-2.9015,-2.7947,-2.7104,-2.651,-2.5628,-2.5229,-2.5274,-2.5293,-2.5329,-2.536,-2.5398,-2.5437,-2.5479,-2.5515,-2.5595,-2.5675,-2.566,-2.5687,-2.5697,-2.5701,-2.5878,-2.6192,-2.6798,-2.717,-2.7406,-2.7406,-2.7406,-2.7406,-2.7406,-2.7601,-2.805,-2.9241,-2.9788,-3.0099,-3.0644,-3.0798,-3.0795,-3.0734,-3.0735,-3.0733,-3.07,-3.0704,-3.0698,-3.0697,-3.0694,-3.0694,-3.0694,-3.0205,-3.0088,-3.0962,-3.0579,-3.0849,-3.2822,-3.2787,-3.3161,-3.4834,-3.4743,-3.4721,-3.5216,-3.5266,-3.5226,-3.5145,-3.511,-3.4793,-3.4074,-3.2345,-3.1007,-3.0199,-2.9598,-2.9288,-2.9288,-2.9551,-2.9636,-2.9482,-2.9363,-2.9217,-2.9048,-2.8845,-2.8743,-2.8651,-2.7786,-2.726,-2.6916,-2.557,-2.4846,-2.4574,-2.4013,-2.3806,-2.3806,-2.3806,-2.3753,-2.3667,-3.8707,-3.8707,-3.8707,-3.8707,-3.8707,-3.8707,-3.8707,-3.8921,-3.9101,-3.9101,-3.9556,-3.8906,-3.6385,-3.632,-3.5812,-3.412,-3.3995,-3.3995,-3.4014,-3.2382,-3.1441,-3.1503,-2.9895,-2.8996,-2.8996,-2.7355,-2.6512,-2.6508,-2.5636,-2.5215,-2.5212,-2.5269,-2.5298,-2.5293,-2.536,-2.539,-2.5394,-2.5408,-2.5476,-2.5608,-2.5608,-2.5636,-2.5708,-2.5708,-2.6259,-2.7004,-2.7024,-2.7575,-2.8303,-2.8303,-2.8303,-2.8303,-2.8303,-2.8908,-2.9612,-2.9612,-3.0177,-3.08,-3.08,-3.08,-3.0807,-3.08,-3.0796,-3.0774,-3.0715,-3.0704,-3.0708,-3.0707,-3.0694,-3.0694,-3.0694,-3.0694,-3.0982,-3.1852,-3.2007,-3.2256,-3.3001,-3.3844,-3.435,-3.4222,-3.4974,-3.5477,-3.542,-3.5405,-3.5342,-3.5218,-3.5145,-3.4315,-3.252,-3.0767,-2.9449,-2.8655,-2.8488,-2.8426,-2.8407,-2.927,-2.9701,-2.9701,-2.9701,-2.9579,-2.9402,-2.918,-2.9034,-2.8838,-2.7846,-2.6952,-2.6149,-2.5335,-2.4538,-2.3824,-2.3795,-2.3806,-2.3806,-2.3806,-2.3667,-2.3452,-3.8707,-3.8707,-3.8707,-3.8707,-3.8707,-3.8707,-3.8707,-3.8765,-3.8896,-3.9073,-3.8225,-3.7214,-3.6212,-3.5116,-3.4032,-3.2976,-3.3568,-3.4235,-3.4808,-3.3253,-3.2325,-3.2332,-3.0154,-2.8931,-2.8931,-2.7893,-2.7338,-2.7332,-2.6465,-2.6044,-2.6038,-2.5485,-2.5234,-2.5223,-2.5247,-2.5288,-2.533,-2.5335,-2.5371,-2.5466,-2.5463,-2.5862,-2.6476,-2.6466,-2.7034,-2.7914,-2.8525,-2.8919,-2.9135,-2.9135,-2.9178,-2.9202,-2.9202,-2.9786,-3.0431,-3.0431,-3.0606,-3.08,-3.08,-3.08,-3.0807,-3.08,-3.08,-3.0796,-3.0774,-3.0728,-3.0699,-3.0703,-3.0704,-3.0694,-3.0694,-3.0694,-3.0791,-3.104,-3.16,-3.2291,-3.311,-3.3455,-3.4031,-3.5115,-3.4949,-3.4911,-3.5419,-3.5435,-3.5372,-3.5335,-3.5196,-3.4855,-3.4315,-3.3091,-3.2034,-3.1222,-3.0518,-2.988,-2.9326,-2.957,-2.9701,-2.9701,-2.955,-2.9453,-2.9402,-2.918,-2.9034,-2.8887,-2.8572,-2.793,-2.6971,-2.6156,-2.5371,-2.4592,-2.4013,-2.3806,-2.3806,-2.3806,-2.3764,-2.3646,-3.8707,-3.8707,-3.8707,-3.8707,-3.8707,-3.8707,-3.8707,-3.8707,-3.875,-3.8921,-3.7868,-3.6658,-3.5439,-3.4211,-3.3063,-3.2017,-3.3107,-3.4061,-3.4575,-3.3339,-3.2449,-3.2203,-2.9777,-2.8745,-2.9395,-2.8593,-2.8172,-2.8172,-2.6975,-2.6402,-2.6383,-2.5568,-2.5191,-2.5191,-2.5191,-2.5225,-2.5266,-2.5266,-2.5481,-2.5839,-2.5841,-2.6401,-2.7246,-2.7287,-2.789,-2.8736,-2.9271,-2.9696,-3.0003,-2.9987,-3.0017,-3.0073,-3.0076,-3.0407,-3.0798,-3.08,-3.08,-3.08,-3.08,-3.08,-3.0804,-3.0796,-3.0798,-3.08,-3.0797,-3.0765,-3.0749,-3.0734,-3.0714,-3.0694,-3.0694,-3.0691,-3.0694,-3.0694,-3.1428,-3.2182,-3.271,-3.3351,-3.4136,-3.5102,-3.5054,-3.5107,-3.5455,-3.5457,-3.5402,-3.5327,-3.4915,-3.4649,-3.4649,-3.3378,-3.2381,-3.1881,-3.095,-3.0218,-2.9711,-3.0021,-3.0171,-3.0171,-2.9373,-2.9343,-2.9978,-2.9471,-2.9,-2.8614,-2.848,-2.7732,-2.6531,-2.5955,-2.5244,-2.4483,-2.3976,-2.3806,-2.3806,-2.3806,-2.3742,-2.3635,-3.8707,-3.8707,-3.8707,-3.8707,-3.8707,-3.8707,-3.8707,-3.8707,-3.8707,-3.8707,-3.8149,-3.6814,-3.4377,-3.3545,-3.2578,-3.1151,-3.2437,-3.3431,-3.3648,-3.2862,-3.2136,-3.1523,-2.9197,-2.8637,-3.0173,-2.928,-2.8872,-2.9032,-2.7415,-2.6612,-2.6612,-2.5797,-2.5421,-2.5421,-2.5421,-2.5421,-2.5421,-2.5421,-2.588,-2.66,-2.66,-2.7181,-2.8018,-2.8148,-2.8738,-2.9496,-2.9502,-3.0058,-3.0761,-3.072,-3.074,-3.0799,-3.0809,-3.0792,-3.0794,-3.0799,-3.08,-3.08,-3.08,-3.08,-3.08,-3.08,-3.08,-3.0807,-3.08,-3.0801,-3.08,-3.0808,-3.0757,-3.0701,-3.0701,-3.0697,-3.0733,-3.081,-3.1545,-3.2143,-3.2202,-3.3604,-3.4618,-3.4618,-3.5313,-3.5727,-3.5537,-3.5507,-3.5418,-3.5223,-3.453,-3.4109,-3.4109,-3.253,-3.1575,-3.1436,-3.0612,-3.0082,-2.9945,-3.0453,-3.0762,-3.0875,-2.9279,-2.9317,-3.0762,-2.9698,-2.8798,-2.8051,-2.7745,-2.6721,-2.526,-2.5074,-2.452,-2.3806,-2.3806,-2.3806,-2.3806,-2.3806,-2.3678,-2.3508,-3.8707,-3.8707,-3.8707,-3.8707,-3.8707,-3.8707,-3.8707,-3.8707,-3.8707,-3.8707,-3.75,-3.5993,-3.4278,-3.2871,-3.1424,-2.9856,-3.066,-3.1854,-3.3294,-3.2769,-3.2348,-3.2195,-3.0571,-2.9822,-3.0192,-2.8733,-2.8599,-2.9917,-2.886,-2.8363,-2.8344,-2.7529,-2.7166,-2.7166,-2.7166,-2.7166,-2.7166,-2.7166,-2.7275,-2.7433,-2.7433,-2.799,-2.8832,-2.8877,-2.9463,-3.0275,-3.0376,-3.0477,-3.0571,-3.0665,-3.0733,-3.0806,-3.0798,-3.0807,-3.0794,-3.0794,-3.0798,-3.08,-3.08,-3.08,-3.08,-3.08,-3.08,-3.0803,-3.0807,-3.0798,-3.0801,-3.08,-3.0755,-3.0701,-3.0701,-3.0697,-3.0923,-3.16,-3.2458,-3.3235,-3.3876,-3.4866,-3.5523,-3.5523,-3.5678,-3.5782,-3.5736,-3.5582,-3.5464,-3.5357,-3.5093,-3.4942,-3.4942,-3.4516,-3.3951,-3.3257,-3.2991,-3.2531,-3.1813,-3.0063,-2.9751,-3.0893,-2.9889,-2.9608,-2.9908,-2.837,-2.7447,-2.7031,-2.696,-2.6214,-2.5063,-2.5031,-2.452,-2.3806,-2.3806,-2.3806,-2.3806,-2.3806,-2.3774,-2.3678,-3.8707,-3.8707,-3.8707,-3.8707,-3.8707,-3.8707,-3.8707,-3.8707,-3.8707,-3.8707,-3.7624,-3.6268,-3.4703,-3.3087,-3.1327,-2.9326,-3.002,-3.1123,-3.2513,-3.2252,-3.1798,-3.1188,-3.0424,-2.9508,-2.8408,-2.795,-2.8523,-3.0211,-2.9338,-2.8891,-2.8872,-2.8077,-2.7701,-2.7701,-2.7701,-2.7701,-2.7701,-2.7701,-2.7924,-2.8268,-2.8268,-2.8811,-2.9634,-2.9656,-2.9982,-3.0413,-3.0477,-3.0467,-3.0438,-3.0678,-3.0739,-3.0725,-3.078,-3.0794,-3.0801,-3.0791,-3.0795,-3.0798,-3.08,-3.08,-3.08,-3.08,-3.08,-3.08,-3.08,-3.079,-3.0796,-3.0796,-3.0779,-3.0756,-3.0758,-3.0718,-3.098,-3.1859,-3.273,-3.3584,-3.4385,-3.5255,-3.5795,-3.5795,-3.5795,-3.575,-3.5659,-3.5532,-3.5416,-3.5312,-3.5242,-3.5209,-3.5209,-3.516,-3.4916,-3.4444,-3.3973,-3.3502,-3.3022,-3.1733,-3.1472,-3.2213,-3.0132,-2.9532,-3.0227,-2.8969,-2.7857,-2.6926,-2.6498,-2.5698,-2.4659,-2.4628,-2.4291,-2.3806,-2.3806,-2.3806,-2.3806,-2.3806,-2.3806,-2.3742,-3.8707,-3.8707,-3.8707,-3.8707,-3.8707,-3.8707,-3.8707,-3.8707,-3.8707,-3.8707,-3.7881,-3.6666,-3.4986,-3.3243,-3.1372,-2.9372,-3.009,-3.1028,-3.1878,-3.1797,-3.1254,-3.0167,-2.9756,-2.8681,-2.6816,-2.7204,-2.8217,-2.9765,-2.9185,-2.8891,-2.8891,-2.8363,-2.8122,-2.8122,-2.8122,-2.8122,-2.8122,-2.8122,-2.8516,-2.9127,-2.9127,-2.9548,-3.0199,-3.0254,-3.0272,-3.0278,-3.0296,-3.0319,-3.0381,-3.0621,-3.0652,-3.059,-3.0728,-3.0767,-3.0795,-3.0801,-3.0791,-3.0794,-3.0798,-3.08,-3.08,-3.08,-3.08,-3.08,-3.08,-3.08,-3.08,-3.08,-3.0797,-3.0859,-3.0985,-3.0973,-3.1254,-3.2273,-3.3048,-3.3798,-3.4614,-3.5333,-3.5795,-3.5795,-3.5795,-3.5732,-3.5579,-3.549,-3.54,-3.5262,-3.5254,-3.5231,-3.5209,-3.5226,-3.5193,-3.5119,-3.4423,-3.4008,-3.3958,-3.3664,-3.358,-3.3684,-3.049,-2.9668,-3.0903,-2.9823,-2.8442,-2.6908,-2.618,-2.5268,-2.4266,-2.4173,-2.3999,-2.3816,-2.3806,-2.3806,-2.3806,-2.3806,-2.3774,-2.3689,-3.8707,-3.8707,-3.8707,-3.8707,-3.8707,-3.8707,-3.8707,-3.8707,-3.8707,-3.8707,-3.7386,-3.5826,-3.4156,-3.1916,-3.0393,-3.0081,-3.0797,-3.1618,-3.2445,-3.205,-3.1686,-3.1447,-2.9608,-2.8506,-2.8309,-2.7053,-2.6934,-2.8045,-2.8631,-2.8891,-2.8911,-2.9555,-2.986,-2.986,-2.986,-2.986,-2.986,-2.986,-2.9917,-3.0013,-3.0013,-3.0089,-3.0192,-3.0213,-3.0219,-3.0214,-3.0285,-3.0375,-3.0448,-3.0397,-3.0433,-3.0537,-3.0609,-3.0678,-3.0719,-3.0774,-3.0799,-3.0792,-3.0794,-3.0798,-3.08,-3.08,-3.08,-3.08,-3.08,-3.08,-3.08,-3.08,-3.0797,-3.1035,-3.1796,-3.1867,-3.2357,-3.3988,-3.4292,-3.4633,-3.5503,-3.5736,-3.5795,-3.5795,-3.5795,-3.5786,-3.575,-3.5703,-3.5599,-3.5464,-3.5457,-3.5371,-3.5218,-3.5304,-3.5312,-3.5193,-3.5078,-3.5013,-3.4996,-3.3565,-3.3152,-3.376,-3.1844,-3.0966,-3.1006,-2.8799,-2.7089,-2.59,-2.5789,-2.5115,-2.4116,-2.3929,-2.3858,-2.3886,-2.3816,-2.3806,-2.3806,-2.3806,-2.3678,-2.3497,-3.8609,-3.8658,-3.8692,-3.8609,-3.8658,-3.8707,-3.8707,-3.8707,-3.8707,-3.8707,-3.8083,-3.7019,-3.5385,-3.3018,-3.1366,-3.0907,-3.1213,-3.1733,-3.2546,-3.2379,-3.1892,-3.1069,-3.0091,-2.8793,-2.7135,-2.6404,-2.6079,-2.6141,-2.7987,-2.8891,-2.8911,-2.9784,-3.0211,-3.0211,-3.0211,-3.0211,-3.0211,-3.0211,-3.0211,-3.0211,-3.0211,-3.0211,-3.0211,-3.0211,-3.0211,-3.0206,-3.0279,-3.0315,-3.034,-3.0381,-3.0397,-3.0407,-3.0513,-3.0567,-3.0614,-3.0716,-3.075,-3.0752,-3.0785,-3.0795,-3.0796,-3.08,-3.08,-3.08,-3.08,-3.08,-3.0937,-3.1426,-3.1532,-3.1793,-3.2675,-3.2809,-3.3179,-3.4399,-3.4583,-3.486,-3.5686,-3.5795,-3.5795,-3.5795,-3.5795,-3.5782,-3.5742,-3.5728,-3.5632,-3.5507,-3.5464,-3.5402,-3.5312,-3.5297,-3.5266,-3.5209,-3.5209,-3.5209,-3.5209,-3.4475,-3.4249,-3.4568,-3.3377,-3.2222,-3.1094,-2.9074,-2.7607,-2.6613,-2.6107,-2.5283,-2.4348,-2.4641,-2.4419,-2.3896,-2.3827,-2.3806,-2.3806,-2.3806,-2.3667,-2.347]},{"header":{"parameterUnit":"m.s-1","parameterCategory":1,"la1":30.6,"la2":28.766,"lo1":-90.7593,"lo2":-88.6598,"dy":0.0162,"dx":0.0183,"nx":116,"ny":114,"refTime":"2023-04-13T00:00:00:Z","depth":0,"parameterNumber":3,"parameterNumberName":"V-component_of_WINDS"},"data":[0.0,0.0,0.0,0.0,0.0,0.0,0.0,0.0,0.0,0.0,0.0,0.0,0.0,0.0,0.0,0.0,0.0,0.0,0.0,0.0,0.0,0.0,0.0,0.0,0.0,0.0,0.0,0.0,0.0,0.0,0.0,0.0,0.0,0.0,0.0,0.0,0.0,0.0,0.0,0.0,0.0,0.0,0.0,0.0,0.0,0.0,0.0,0.0,0.0,0.0,0.0,0.0,0.0,0.0,0.0,0.0,0.0,0.0,0.0,0.0,0.0,0.0,0.0,0.0,0.0,0.0,0.0,0.0,0.0,0.0,0.0,0.0,0.0,0.0,0.0,0.0,0.0,0.0,0.0,0.0,0.0,0.0,0.0,0.0,0.0,0.0,0.0,0.0,0.0,0.0,0.0,0.0,0.0,0.0,0.0,0.0,0.0,0.0,0.0,0.0,0.0,0.0,0.0,0.0,0.0,0.0,0.0,0.0,0.0,0.0,0.0,0.0,0.0,0.0,0.0,0.0,0.0,0.0,0.0,0.0,0.0,0.0,0.0,0.0,0.0,0.0,0.0,0.0,0.0,0.0,0.0,0.0,0.0,0.0,0.0,0.0,0.0,0.0,0.0,0.0,0.0,0.0,0.0,0.0,0.0,0.0,0.0,0.0,0.0,0.0,0.0,0.0,0.0,0.0,0.0,0.0,0.0,0.0,0.0,0.0,0.0,0.0,0.0,0.0,0.0,0.0,0.0,0.0,0.0,0.0,0.0,0.0,0.0,0.0,0.0,0.0,0.0,0.0,0.0,0.0,0.0,0.0,0.0,0.0,0.0,0.0,0.0,0.0,0.0,0.0,0.0,0.0,0.0,0.0,0.0,0.0,0.0,0.0,0.0,0.0,0.0,0.0,0.0,0.0,0.0,0.0,0.0,0.0,0.0,0.0,0.0,0.0,0.0,0.0,0.0,0.0,0.0,0.0,0.0,0.0,0.0,0.0,0.0,0.0,0.0,0.0,0.0,0.0,0.0,0.0,0.0,0.0,0.0,0.0,0.0,0.0,0.0,0.0,0.0,0.0,0.0,0.0,0.0,0.0,0.0,0.0,0.0,0.0,0.0,0.0,0.0,0.0,0.0,0.0,0.0,0.0,0.0,0.0,0.0,0.0,0.0,0.0,0.0,0.0,0.0,0.0,0.0,0.0,0.0,0.0,0.0,0.0,0.0,0.0,0.0,0.0,0.0,0.0,0.0,0.0,0.0,0.0,0.0,0.0,0.0,0.0,0.0,0.0,0.0,0.0,0.0,0.0,0.0,0.0,0.0,0.0,0.0,0.0,0.0,0.0,0.0,0.0,0.0,0.0,0.0,0.0,0.0,0.0,0.0,0.0,0.0,0.0,0.0,0.0,0.0,0.0,0.0,0.0,0.0,0.0,0.0,0.0,0.0,0.0,0.0,0.0,0.0,0.0,0.0,0.0,0.0,0.0,0.0,0.0,0.0,0.0,0.0,0.0,0.0,0.0,0.0,0.0,0.0,0.0,0.0,0.0,0.0,0.0,0.0,0.0,0.0,0.0,0.0,0.0,0.0,0.0,0.0,0.0,0.0,0.0,0.0,0.0,0.0,0.0,0.0,0.0,0.0,0.0,0.0,0.0,0.0,0.0,0.0,0.0,0.0,0.0,0.0,0.0,0.0,0.0,0.0,0.0,0.0,0.0,0.0,0.0,0.0,0.0,0.0,0.0,0.0,0.0,0.0,0.0,0.0,0.0,0.0,0.0,0.0,0.0,0.0,0.0,0.0,0.0,0.0,0.0,0.0,0.0,0.0,0.0,0.0,0.0,0.0,0.0,0.0,0.0,0.0,0.0,0.0,0.0,0.0,0.0,0.0,0.0,0.0,0.0,0.0,0.0,0.0,0.0,0.0,0.0,0.0,0.0,0.0,0.0,0.0,0.0,0.0,0.0,0.0,0.0,0.0,0.0,0.0,0.0,0.0,0.0,0.0,0.0,0.0,0.0,0.0,0.0,0.0,0.0,0.0,0.0,0.0,0.0,0.0,0.0,0.0,0.0,0.0,0.0,0.0,0.0,0.0,0.0,0.0,0.0,0.0,0.0,0.0,0.0,0.0,0.0,0.0,0.0,0.0,0.0,0.0,0.0,0.0,0.0,0.0,0.0,0.0,0.0,0.0,0.0,0.0,0.0,0.0,0.0,0.0,0.0,0.0,0.0,0.0,0.0,0.0,0.0,0.0,0.0,0.0,0.0,0.0,0.0,0.0,0.0,0.0,0.0,0.0,0.0,0.0,0.0,0.0,0.0,0.0,0.0,0.0,0.0,0.0,0.0,0.0,0.0,0.0,0.0,0.0,0.0,0.0,0.0,0.0,0.0,0.0,0.0,0.0,0.0,0.0,0.0,0.0,0.0,0.0,0.0,0.0,0.0,0.0,0.0,0.0,0.0,0.0,0.0,0.0,0.0,0.0,0.0,0.0,0.0,0.0,0.0,0.0,0.0,0.0,0.0,0.0,0.0,0.0,0.0,0.0,0.0,0.0,0.0,0.0,0.0,0.0,0.0,0.0,0.0,0.0,0.0,0.0,0.0,0.0,0.0,0.0,0.0,0.0,0.0,0.0,0.0,0.0,0.0,0.0,0.0,0.0,0.0,0.0,0.0,0.0,0.0,0.0,0.0,0.0,0.0,0.0,0.0,0.0,0.0,0.0,0.0,0.0,0.0,0.0,0.0,0.0,0.0,0.0,0.0,0.0,0.0,0.0,0.0,0.0,0.0,0.0,0.0,0.0,0.0,0.0,0.0,0.0,0.0,0.0,0.0,0.0,0.0,0.0,0.0,0.0,0.0,0.0,0.0,0.0,0.0,0.0,0.0,0.0,0.0,0.0,0.0,0.0,0.0,0.0,0.0,0.0,0.0,0.0,0.0,0.0,0.0,0.0,0.0,0.0,0.0,0.0,0.0,0.0,0.0,0.0,0.0,0.0,0.0,0.0,0.0,0.0,0.0,0.0,0.0,0.0,0.0,0.0,0.0,0.0,0.0,0.0,0.0,0.0,0.0,0.0,0.0,0.0,0.0,0.0,0.0,0.0,0.0,0.0,0.0,0.0,0.0,0.0,0.0,0.0,0.0,0.0,0.0,0.0,0.0,0.0,0.0,0.0,0.0,0.0,0.0,0.0,0.0,0.0,0.0,0.0,0.0,0.0,0.0,0.0,0.0,0.0,0.0,0.0,0.0,0.0,0.0,0.0,0.0,0.0,0.0,0.0,0.0,0.0,0.0,0.0,0.0,0.0,0.0,0.0,0.0,0.0,0.0,0.0,0.0,0.0,0.0,0.0,0.0,0.0,0.0,0.0,0.0,0.0,0.0,0.0,0.0,0.0,0.0,0.0,0.0,0.0,0.0,0.0,0.0,0.0,0.0,0.0,0.0,0.0,0.0,0.0,0.0,0.0,0.0,0.0,0.0,0.0,0.0,0.0,0.0,0.0,0.0,0.0,0.0,0.0,0.0,0.0,0.0,0.0,0.0,0.0,0.0,0.0,0.0,0.0,0.0,0.0,0.0,0.0,0.0,0.0,0.0,0.0,0.0,0.0,0.0,0.0,0.0,0.0,0.0,0.0,0.0,0.0,0.0,0.0,0.0,0.0,0.0,0.0,0.0,0.0,0.0,0.0,0.0,0.0,0.0,0.0,0.0,0.0,0.0,0.0,0.0,0.0,0.0,0.0,0.0,0.0,0.0,0.0,0.0,0.0,0.0,0.0,0.0,0.0,0.0,0.0,0.0,0.0,0.0,0.0,0.0,0.0,0.0,0.0,0.0,0.0,0.0,0.0,0.0,0.0,0.0,0.0,0.0,0.0,0.0,0.0,0.0,0.0,0.0,0.0,0.0,0.0,0.0,0.0,0.0,0.0,0.0,0.0,0.0,0.0,0.0,0.0,0.0,0.0,0.0,0.0,0.0,0.0,0.0,0.0,0.0,0.0,0.0,0.0,0.0,0.0,0.0,0.0,0.0,0.0,0.0,0.0,0.0,0.0,0.0,0.0,0.0,0.0,0.0,0.0,0.0,0.0,0.0,0.0,0.0,0.0,0.0,0.0,0.0,0.0,0.0,0.0,0.0,0.0,0.0,0.0,0.0,0.0,0.0,0.0,0.0,0.0,0.0,0.0,0.0,0.0,0.0,0.0,0.0,0.0,0.0,0.0,0.0,0.0,0.0,0.0,0.0,0.0,0.0,0.0,0.0,0.0,0.0,0.0,0.0,0.0,0.0,0.0,0.0,0.0,0.0,0.0,0.0,0.0,0.0,0.0,0.0,0.0,0.0,0.0,0.0,0.0,0.0,0.0,0.0,0.0,0.0,0.0,0.0,0.0,0.0,0.0,0.0,0.0,0.0,0.0,0.0,0.0,0.0,0.0,0.0,0.0,0.0,0.0,0.0,0.0,0.0,0.0,0.0,0.0,0.0,0.0,0.0,0.0,0.0,0.0,0.0,0.0,0.0,0.0,0.0,0.0,0.0,0.0,0.0,0.0,0.0,0.0,0.0,0.0,0.0,0.0,0.0,0.0,0.0,0.0,0.0,0.0,0.0,0.0,0.0,0.0,0.0,0.0,0.0,0.0,0.0,0.0,0.0,0.0,0.0,0.0,0.0,0.0,0.0,0.0,0.0,0.0,0.0,0.0,0.0,0.0,0.0,0.0,0.0,0.0,0.0,0.0,0.0,0.0,0.0,0.0,0.0,0.0,0.0,0.0,0.0,0.0,0.0,0.0,0.0,0.0,0.0,0.0,0.0,0.0,0.0,0.0,0.0,0.0,0.0,0.0,0.0,0.0,0.0,0.0,0.0,0.0,0.0,0.0,0.0,0.0,0.0,0.0,0.0,0.0,0.0,0.0,0.0,0.0,0.0,0.0,0.0,0.0,0.0,0.0,0.0,0.0,0.0,0.0,0.0,0.0,0.0,0.0,0.0,0.0,0.0,0.0,0.0,0.0,0.0,0.0,0.0,0.0,0.0,0.0,0.0,0.0,0.0,0.0,0.0,0.0,0.0,0.0,0.0,0.0,0.0,0.0,0.0,0.0,0.0,0.0,0.0,0.0,0.0,0.0,0.0,0.0,0.0,0.0,0.0,0.0,0.0,0.0,0.0,0.0,0.0,0.0,0.0,0.0,0.0,0.0,0.0,0.0,0.0,0.0,0.0,0.0,0.0,0.0,0.0,0.0,0.0,0.0,0.0,0.0,0.0,0.0,0.0,0.0,0.0,0.0,0.0,0.0,0.0,0.0,0.0,0.0,0.0,0.0,0.0,0.0,0.0,0.0,0.0,0.0,0.0,0.0,0.0,0.0,0.0,0.0,0.0,0.0,0.0,0.0,0.0,0.0,0.0,0.0,0.0,0.0,0.0,0.0,0.0,0.0,0.0,0.0,0.0,0.0,0.0,0.0,0.0,0.0,0.0,0.0,0.0,0.0,0.0,0.0,0.0,0.0,0.0,0.0,0.0,0.0,0.0,0.0,0.0,0.0,0.0,0.0,0.0,0.0,0.0,0.0,0.0,0.0,0.0,0.0,0.0,0.0,0.0,0.0,0.0,0.0,0.0,0.0,0.0,0.0,0.0,0.0,0.0,0.0,0.0,0.0,0.0,0.0,0.0,0.0,0.0,0.0,0.0,0.0,0.0,0.0,0.0,0.0,0.0,0.0,0.0,0.0,0.0,0.0,0.0,0.0,0.0,0.0,0.0,0.0,0.0,0.0,0.0,0.0,0.0,0.0,0.0,0.0,0.0,0.0,0.0,0.0,0.0,0.0,0.0,0.0,0.0,0.0,0.0,0.0,0.0,0.0,0.0,0.0,0.0,0.0,0.0,0.0,0.0,0.0,0.0,0.0,0.0,0.0,0.0,0.0,0.0,0.0,0.0,0.0,0.0,0.0,0.0,0.0,0.0,0.0,0.0,0.0,0.0,0.0,0.0,0.0,0.0,0.0,0.0,0.0,0.0,0.0,0.0,0.0,0.0,0.0,0.0,0.0,0.0,0.0,0.0,0.0,0.0,0.0,0.0,0.0,0.0,0.0,0.0,0.0,0.0,0.0,0.0,0.0,0.0,0.0,0.0,-2.1026,-2.0968,0.0,0.0,0.0,0.0,0.0,0.0,0.0,0.0,0.0,0.0,0.0,0.0,0.0,0.0,0.0,0.0,0.0,0.0,0.0,0.0,0.0,0.0,0.0,0.0,0.0,0.0,0.0,0.0,0.0,0.0,0.0,0.0,0.0,0.0,0.0,0.0,0.0,-0.1199,-0.0337,0.0586,0.1525,0.0706,-0.0822,-0.3001,0.0,0.0,0.0,0.0,0.0,0.0,0.0,0.0,0.0,0.0,0.0,0.0,0.0,0.0,0.0,0.0,0.0,0.0,0.0,0.0,0.0,0.0,0.0,0.0,0.0,0.0,0.0,0.0,0.0,0.0,0.0,0.0,0.0,0.0,0.0,0.0,0.0,0.0,0.0,0.0,0.0,0.0,0.0,0.0,0.0,0.0,0.0,0.0,0.0,0.0,0.0,0.0,0.0,0.0,0.0,0.0,0.0,0.0,0.0,0.0,0.0,0.0,0.0,0.0,0.0,0.0,0.0,0.0,0.0,0.0,-2.2807,-2.2496,0.0,0.0,0.0,0.0,0.0,0.0,0.0,0.0,0.0,0.0,0.0,0.0,0.0,0.0,0.0,0.0,0.0,0.0,0.0,0.0,0.0,0.0,0.0,0.1471,0.2559,0.212,0.3062,0.3212,0.0,0.0,0.0,0.0,0.0,0.0,0.0,-0.1205,-0.0604,-0.0371,0.1402,0.2322,0.2405,0.2964,0.1705,-0.1087,-0.3214,0.0,0.0,0.0,0.0,0.0,0.0,0.0,0.0,0.0,0.0,0.0,0.0,0.0,0.0,0.0,0.0,0.0,0.0,0.0,0.0,0.0,0.0,0.0,0.0,0.0,0.0,0.0,0.0,0.0,0.0,0.0,0.0,0.0,0.0,0.0,0.0,0.0,0.0,0.0,0.0,0.0,0.0,0.0,0.0,0.0,0.0,0.0,0.0,0.0,0.0,0.0,0.0,0.0,0.0,0.0,0.0,0.0,0.0,0.0,0.0,0.0,0.0,0.0,-2.0615,-2.196,-2.2935,-2.4695,-2.5863,-2.6554,-2.5058,-2.4533,-2.473,-2.4042,0.0,0.0,0.0,0.0,0.0,0.0,0.0,0.0,0.0,0.0,0.0,0.0,0.0,0.0,0.0,0.0,0.0,0.0,0.0,0.0,0.0,0.21,0.3247,0.4341,0.3993,0.3739,0.3847,0.0,0.0,0.0,0.0,0.0,0.1005,0.1438,0.1928,0.2463,0.423,0.506,0.5055,0.4156,0.3328,0.2579,-0.0531,-0.2361,-0.326,0.0,0.0,0.0,0.0,0.0,0.0,0.0,0.0,0.0,0.0,0.0,0.0,0.0,0.0,0.0,0.0,0.0,0.0,0.0,0.0,0.0,0.0,0.0,0.0,0.0,0.0,0.0,0.0,0.0,0.0,0.0,0.0,0.0,0.0,0.0,0.0,0.0,0.0,0.0,0.0,0.0,-1.4231,-1.294,0.0,0.0,0.0,0.0,0.0,0.0,0.0,0.0,0.0,0.0,0.0,0.0,0.0,-1.6997,-1.7893,-1.8959,-1.9542,-1.9639,-2.2155,-2.3695,-2.4396,-2.6126,-2.7723,-2.9094,-2.8856,0.0,-2.4776,-2.4666,0.0,0.0,0.0,0.0,0.0,0.0,0.0,0.0,0.0,0.0,0.0,0.0,0.0,0.0,0.0,0.0,0.0,0.0,0.0,0.0,0.0,0.4366,0.5962,0.6531,0.6598,0.6204,0.5155,0.4159,0.0,0.0,0.0,0.218,0.2211,0.29,0.4271,0.6309,0.6949,0.7253,0.734,0.6446,0.5502,0.4409,0.258,0.0377,-0.2005,-0.3036,0.0,0.0,0.0,0.0,0.0,0.0,0.0,0.0,0.0,0.0,0.0,0.0,0.0,0.0,0.0,0.0,0.0,0.0,0.0,0.0,0.0,0.0,0.0,0.0,0.0,0.0,0.0,0.0,0.0,0.0,0.0,0.0,0.0,0.0,0.0,0.0,0.0,0.0,0.0,-1.5299,-1.4192,-1.226,-1.249,-1.2214,0.0,0.0,0.0,0.0,0.0,0.0,0.0,0.0,0.0,-1.6998,-1.745,-1.8102,-1.9117,-1.9831,-2.0239,-2.0467,-2.2727,-2.4399,-2.5502,-2.7252,-2.8579,-2.9571,-2.9571,-2.826,-2.6133,-2.6133,-2.5142,-2.3584,0.0,0.0,0.0,0.0,-2.3383,-2.4726,0.0,0.0,0.0,0.0,0.0,0.0,0.0,0.0,0.0,0.0,0.0,0.0,0.3317,0.6146,0.824,0.8988,0.9068,0.8528,0.7138,0.5732,0.4455,0.3297,0.3161,0.3251,0.3575,0.4965,0.7073,0.9882,0.959,0.9478,0.9482,0.8611,0.7555,0.6225,0.5087,0.2638,-0.0674,-0.1496,-0.3123,-0.5219,0.0,0.0,0.0,0.0,0.0,0.0,0.0,0.0,0.0,0.0,0.0,0.0,0.0,0.0,0.0,0.0,0.0,0.0,0.0,0.0,0.0,0.0,0.0,0.0,0.0,0.0,0.0,0.0,0.0,0.0,0.0,0.0,0.0,0.0,0.0,0.0,0.0,-1.4997,-1.3949,-1.1802,-1.1982,-1.1664,0.0,0.0,0.0,0.0,0.0,0.0,-1.4426,-1.4782,-1.5973,-1.8117,-1.852,-1.9144,-2.0217,-2.0432,-2.0737,-2.1143,-2.3059,-2.4701,-2.6124,-2.7827,-2.8975,-2.9571,-2.9571,-2.8718,-2.7381,-2.7215,-2.6159,-2.4477,-2.4024,-2.3499,-2.3068,-2.3178,-2.4173,-2.57,0.0,0.0,0.0,0.0,0.0,0.0,0.0,0.0,0.0,0.0,0.0,0.2066,0.4213,0.6407,0.8936,1.1922,1.0647,0.9878,1.0324,0.729,0.541,0.5271,0.4769,0.4954,0.5924,0.846,1.0703,1.2492,1.2229,1.1961,1.1621,1.0093,0.9249,0.8792,0.6409,0.3907,0.1462,0.0236,-0.1717,-0.4083,-0.54,0.0,0.0,0.0,0.0,0.0,0.0,0.0,0.0,0.0,0.0,0.0,0.0,0.0,0.0,0.0,0.0,0.0,0.0,0.0,0.0,0.0,0.0,0.0,0.0,0.0,0.0,0.0,0.0,0.0,0.0,0.0,0.0,0.0,0.0,0.0,0.0,0.0,0.0,-1.147,-1.1887,0.0,0.0,0.0,0.0,-1.1326,-1.2302,-1.3278,-1.4093,-1.5279,-1.6862,-1.8976,-1.9318,-1.9849,-2.0743,-2.0761,-2.1108,-2.179,-2.3266,-2.4709,-2.6059,-2.756,-2.872,-2.9571,-2.9571,-2.8874,-2.7767,-2.7334,-2.6489,-2.5323,-2.4876,-2.4225,-2.3508,-2.395,-2.5412,-2.7311,0.0,0.0,0.0,0.0,0.0,0.0,0.0,0.0,-0.435,-0.2704,-0.0103,0.2797,0.5911,0.8365,1.0694,1.3021,1.2376,1.153,1.0775,0.8296,0.6897,0.7014,0.6735,0.8034,1.1123,1.3027,1.4412,1.5352,1.5202,1.4535,1.3326,1.2216,1.0856,0.9334,0.8442,0.645,0.3639,0.1995,-0.0474,-0.3305,-0.4058,-0.5917,0.0,0.0,0.0,0.0,0.0,0.0,0.0,0.0,0.0,0.0,0.0,0.0,0.0,0.0,0.0,0.0,0.0,0.0,0.0,0.0,0.0,0.0,0.0,0.0,0.0,0.0,0.0,0.0,0.0,0.0,0.0,0.0,0.0,0.0,0.0,0.0,0.0,-1.1587,-1.1545,0.0,-1.0429,-1.091,-1.1121,-1.0796,-1.1294,-1.2617,-1.4885,-1.542,-1.6994,-1.9766,-1.9941,-2.0226,-2.0727,-2.0733,-2.0759,-2.0823,-2.179,-2.2885,-2.4174,-2.5723,-2.6879,-2.7568,-2.8437,-2.8122,-2.7013,-2.7132,-2.6609,-2.5791,-2.5644,-2.5207,-2.4702,-2.4601,-2.5856,-2.7752,0.0,0.0,0.0,0.0,0.0,0.0,0.0,0.0,-0.3916,-0.2504,-0.0035,0.2764,0.5867,0.858,1.1235,1.3779,1.3634,1.3096,1.2405,0.9936,0.8576,0.8779,0.9309,1.1435,1.54,1.6462,1.7361,1.8184,1.7709,1.6645,1.4983,1.4117,1.2586,1.0506,0.9838,0.8002,0.5322,0.3324,0.0635,-0.2369,-0.3433,-0.5585,-0.8283,0.0,0.0,0.0,0.0,0.0,0.0,0.0,0.0,0.0,0.0,0.0,0.0,0.0,0.0,0.0,0.0,0.0,0.0,0.0,0.0,0.0,0.0,0.0,0.0,0.0,0.0,0.0,0.0,0.0,0.0,0.0,0.0,0.0,0.0,-1.2045,-1.1988,-1.1228,-1.1368,-1.1209,-1.0294,-1.0595,-1.0802,-1.0795,-1.1029,-1.224,-1.482,-1.5445,-1.6889,-1.9565,-2.0132,-2.0448,-2.0533,-2.0539,-2.0406,-2.0146,-2.0783,-2.1674,-2.294,-2.4613,-2.5627,-2.6242,-2.7638,-2.7581,-2.6609,-2.6875,-2.6573,-2.603,-2.6168,-2.5892,-2.5405,-2.5225,-2.6088,-2.7492,0.0,0.0,0.0,0.0,0.0,0.0,0.0,-0.489,-0.3438,-0.2875,-0.0464,0.1979,0.4066,0.6967,1.0314,1.4163,1.4282,1.4496,1.5257,1.2179,1.0408,1.0666,1.2427,1.5008,1.8408,1.8694,1.9507,2.0928,1.9705,1.8265,1.6615,1.5757,1.4388,1.2558,1.0583,0.8528,0.6467,0.4272,0.1653,-0.124,-0.361,-0.5969,-0.8304,0.0,0.0,0.0,0.0,0.0,0.0,0.0,0.0,0.0,0.0,0.0,0.0,0.0,0.0,0.0,0.0,0.0,0.0,0.0,0.0,0.0,0.0,0.0,0.0,0.0,0.0,0.0,0.0,0.0,0.0,0.0,0.0,0.0,-1.0844,-1.1882,-1.209,-1.0531,-1.1484,-1.1877,-1.086,-1.1406,-1.1704,-1.1419,-1.1535,-1.2255,-1.3808,-1.5287,-1.6841,-1.8336,-1.9883,-2.0533,-2.0279,-2.0273,-2.0134,-1.9869,-2.026,-2.1136,-2.2489,-2.4192,-2.5253,-2.5808,-2.7158,-2.7306,-2.6591,-2.6573,-2.6325,-2.6058,-2.6408,-2.6078,-2.547,-2.5837,-2.6168,-2.6814,0.0,0.0,0.0,0.0,0.0,0.0,-0.692,-0.5665,-0.4348,-0.2986,-0.0847,0.1596,0.429,0.6552,0.9094,1.2218,1.2798,1.3081,1.3346,1.2687,1.285,1.4074,1.5599,1.7646,2.0314,2.0884,2.1208,2.1247,2.1098,1.9848,1.7581,1.6603,1.5296,1.37,1.2218,1.0485,0.8507,0.578,0.2961,0.0115,-0.2733,-0.5552,-0.8209,0.0,0.0,0.0,0.0,0.0,0.0,0.0,0.0,0.0,0.0,0.0,0.0,0.0,0.0,0.0,0.0,0.0,0.0,0.0,0.0,0.0,0.0,0.0,0.0,0.0,0.0,0.0,0.0,0.0,0.0,0.0,-0.9752,-1.018,-1.0542,-1.1209,-1.1608,-1.1609,-1.1799,-1.1887,-1.1711,-1.1684,-1.1643,-1.1562,-1.1596,-1.2255,-1.3808,-1.5287,-1.6841,-1.8336,-1.9715,-2.0352,-2.0279,-2.0086,-1.9857,-1.9579,-1.9971,-2.0245,-2.0532,-2.3061,-2.4158,-2.4154,-2.6406,-2.705,-2.6564,-2.6315,-2.6122,-2.6021,-2.614,-2.5874,-2.5405,-2.5221,-2.6039,-2.7482,0.0,0.0,0.0,0.0,0.0,0.0,-0.7432,-0.6264,-0.5036,-0.3935,-0.1774,0.0595,0.3017,0.5504,0.8061,1.0709,1.1862,1.2732,1.3347,1.44,1.5507,1.6692,1.831,1.9933,2.1573,2.2044,2.2125,2.1827,2.1761,2.0647,1.8632,1.8024,1.6809,1.5019,1.3718,1.2186,1.0364,0.6837,0.3778,0.0986,-0.2808,-0.6027,-0.8712,-1.0118,-1.1799,-1.355,-1.4697,-1.6269,-1.7799,-1.7756,0.0,0.0,0.0,0.0,0.0,0.0,0.0,0.0,0.0,0.0,0.0,0.0,0.0,0.0,0.0,0.0,0.0,0.0,0.0,0.0,0.0,0.0,0.0,0.0,-0.9744,-1.0163,-1.0762,-1.1199,-1.1572,-1.1925,-1.1942,-1.1938,-1.1962,-1.1809,-1.1684,-1.1623,-1.1619,-1.1972,-1.2892,-1.4374,-1.5816,-1.7206,-1.8603,-1.9537,-1.9941,-1.9784,-1.9573,-1.9366,-1.9585,-1.9618,-1.9618,-2.244,-2.352,-2.336,-2.6012,-2.6857,-2.6307,-2.6113,-2.5819,-2.5534,0.0,0.0,0.0,0.0,-2.6143,-2.7626,0.0,0.0,0.0,0.0,0.0,0.0,-0.8157,-0.6789,-0.5637,-0.5301,-0.2911,-0.0594,0.1071,0.4092,0.7031,0.9495,1.1279,1.2984,1.4785,1.6708,1.8096,1.8754,2.0486,2.167,2.2225,2.2396,2.2444,2.2394,2.1855,2.0957,1.9776,1.953,1.8444,1.6606,1.5216,1.383,1.2274,0.7996,0.4577,0.1627,-0.3159,-0.6783,-0.9488,-1.0858,-1.2401,-1.4033,-1.532,-1.6266,-1.7073,-1.8373,0.0,0.0,0.0,0.0,0.0,0.0,0.0,0.0,0.0,0.0,0.0,0.0,0.0,0.0,0.0,0.0,0.0,0.0,0.0,0.0,0.0,0.0,0.0,0.0,-0.9617,-1.0364,-1.1214,-1.1571,-1.174,-1.1757,-1.1938,-1.1965,-1.1843,-1.1816,-1.1755,-1.163,-1.1619,-1.1619,-1.1619,-1.3035,0.0,0.0,0.0,-1.8463,-1.947,-1.9499,-1.9289,-1.9094,-1.9104,-1.9144,-1.92,-2.1937,-2.3037,-2.2986,-2.5717,-2.6582,-2.6076,-2.5984,-2.5479,-2.4748,-2.5148,-2.5074,-2.4817,-2.531,-2.6254,-2.7369,0.0,0.0,0.0,0.0,0.0,0.0,-0.9009,-0.766,-0.6404,-0.5711,-0.3172,-0.0806,0.0786,0.297,0.5464,0.8365,1.0191,1.29,1.6985,1.8279,1.9342,2.0385,2.1148,2.1675,2.1883,2.2142,2.2273,2.2309,2.1668,2.1367,2.1407,1.977,1.904,1.8972,1.718,1.6027,1.5115,1.0825,0.6654,0.2548,-0.1969,-0.6166,-0.9911,-1.1654,-1.3874,-1.5979,-1.5807,-1.6928,-1.8213,-1.6026,-1.6077,-1.6696,-1.4489,-1.4282,0.0,0.0,0.0,0.0,0.0,0.0,0.0,0.0,0.0,0.0,0.0,0.0,0.0,0.0,0.0,0.0,0.0,0.0,0.0,-0.7072,-0.8485,-0.9823,-1.0941,-1.1119,-1.1339,-1.1743,-1.1759,-1.1738,-1.1823,-1.1728,-1.165,-1.1619,-1.1619,-1.1619,-1.1619,-1.3035,-1.4431,-1.5695,-1.6962,-1.8228,-1.947,-1.9259,-1.9018,-1.8758,-1.8773,0.0,-1.8584,-2.0335,-2.1692,-2.2691,-2.4474,-2.5705,-2.6417,-2.5757,-2.5056,-2.433,-2.4413,-2.4395,-2.4312,-2.4427,-2.5625,-2.7185,0.0,0.0,0.0,0.0,0.0,0.0,-0.932,-0.7929,-0.6726,-0.6274,-0.3886,-0.1628,-0.0038,0.1738,0.3867,0.6472,0.9787,1.3404,1.7309,1.9412,2.1244,2.2929,2.3308,2.3515,2.3545,2.3441,2.3312,2.3096,2.2828,2.2741,2.2759,2.1423,2.1029,2.1329,1.9685,1.8747,1.8109,1.3818,0.9567,0.5115,-0.1581,-0.6563,-1.0202,-1.2248,-1.4476,-1.6476,-1.6063,-1.609,-1.6097,-1.4137,-1.304,-1.2354,-1.138,-1.1032,-1.0954,0.0,0.0,0.0,0.0,0.0,0.0,0.0,0.0,0.0,0.0,0.0,0.0,0.0,0.0,-0.2913,-0.3239,0.0,-0.426,-0.5692,-0.7268,-0.8599,-0.9405,-1.0386,-1.1139,-1.1645,-1.166,-1.1647,-1.1718,-1.166,-1.1619,-1.1619,-1.1548,-1.1504,-1.1504,-1.2199,-1.3114,-1.4296,-1.5683,-1.6925,-1.821,-1.8686,-1.8813,-1.868,-1.8408,-1.8258,-1.8237,-2.0179,-2.1506,-2.2371,-2.4539,-2.5791,-2.6269,-2.5408,-2.4762,-2.4202,-2.4202,-2.4202,-2.4341,-2.5343,-2.634,-2.7316,0.0,0.0,0.0,0.0,0.0,0.0,0.0,-0.81,-0.697,-0.6844,-0.464,-0.2506,-0.1083,0.0556,0.2623,0.5329,0.9813,1.3927,1.721,2.0186,2.2807,2.4955,2.5354,2.541,2.5259,2.4929,2.4536,2.4142,2.4143,2.4134,2.4091,2.3449,2.3278,2.352,2.2245,2.1628,2.1221,1.7431,1.3514,0.9247,0.1701,-0.4118,-0.8459,-1.0007,-1.2882,-1.5959,-1.4963,-1.3611,-1.2092,-1.089,-0.8995,-0.7257,-0.7907,-0.7736,-0.7351,-0.7974,-0.866,0.0,0.0,0.0,0.0,0.0,0.0,0.0,0.0,-0.2144,-0.1471,-0.148,-0.1086,-0.1076,-0.2272,-0.2275,-0.2622,-0.4313,-0.5829,-0.7127,-0.7868,-0.933,-1.0637,-1.136,-1.1527,-1.1619,-1.1619,-1.1619,-1.1619,-1.1619,-1.1477,-1.1392,-1.1392,-1.1246,-1.1905,-1.334,-1.4534,-1.5807,-1.7301,-1.8271,-1.8632,-1.8523,-1.8082,-1.7847,-1.7906,-2.0218,-2.1529,-2.2138,-2.4905,-2.5963,-2.5736,-2.5041,-2.4537,-2.4202,-2.4202,-2.4202,-2.4399,-2.6003,-2.6856,-2.7353,0.0,0.0,0.0,0.0,0.0,0.0,0.0,0.0,-0.7322,-0.7253,-0.4961,-0.302,-0.2107,-0.0356,0.2472,0.6785,1.027,1.395,1.7998,2.0585,2.2861,2.4853,2.5526,2.5608,2.5133,2.5204,2.5174,2.506,2.4529,2.4728,2.5555,2.4939,2.4844,2.5186,2.4501,2.4349,2.4465,2.2425,1.9392,1.5707,1.3229,0.6709,-0.1416,-0.0766,-0.6349,-1.4088,-1.0517,-0.8205,-0.6357,-0.3705,-0.3093,-0.339,-0.3292,-0.4543,-0.5939,-0.5694,-0.6418,-0.7213,-0.6708,-0.6296,-0.5925,-0.5622,-0.3729,-0.1651,0.0,0.0997,0.2404,0.3303,0.2534,0.167,0.1526,-0.0468,-0.2244,-0.2552,-0.3884,-0.5417,-0.7196,-0.778,-0.8708,-1.0709,-1.1324,-1.1619,-1.1619,-1.1619,-1.1619,-1.1619,-1.1477,-1.1392,-1.1392,-1.1246,-1.2312,-1.481,-1.5001,-1.6201,-1.8476,-1.8635,-1.8438,-1.7962,-1.7901,-1.775,-1.7586,-1.9274,-2.0737,-2.2122,-2.4837,-2.5601,-2.4904,-2.4821,-2.4537,-2.4202,-2.4202,-2.4202,-2.4251,-2.444,-2.5674,-2.7112,0.0,0.0,0.0,0.0,0.0,0.0,0.0,0.0,0.0,-0.7645,-0.6252,-0.4756,-0.3236,-0.1412,0.1078,0.4489,0.8067,1.2274,1.7278,2.0653,2.3667,2.633,2.7291,2.7668,2.7424,2.7285,2.7207,2.7195,2.6611,2.655,2.6956,2.6598,2.7056,2.8225,2.7814,2.8248,2.9183,2.7585,2.5202,2.2122,1.7903,1.1795,0.5031,0.3012,-0.1045,-0.5627,-0.5085,-0.3723,0.0,0.0718,0.18,0.1934,0.1145,-0.0049,-0.128,-0.2216,-0.3336,-0.4136,-0.3469,-0.3154,-0.2736,-0.1426,-0.0209,0.1029,0.2125,0.3061,0.3854,0.4093,0.376,0.3128,0.2261,0.1108,0.007,-0.0792,-0.2229,-0.3504,-0.4349,-0.6196,-0.7858,-0.8924,-1.0207,-1.114,-1.1531,-1.1538,-1.1487,-1.1487,-1.1267,-1.1134,-1.1134,-1.0989,-1.1806,-1.3716,-1.457,-1.5799,-1.7467,-1.8149,-1.8263,-1.7871,-1.772,-1.7587,-1.7537,-1.9094,-2.0985,-2.3092,-2.5147,-2.5561,-2.4785,-2.4785,-2.4537,-2.4183,-2.3895,-2.3794,-2.392,-2.4739,-2.5758,-2.6703,0.0,0.0,0.0,0.0,0.0,0.0,0.0,0.0,0.0,0.0,-0.7509,-0.6306,-0.4436,-0.2764,-0.0718,0.1942,0.5728,1.0338,1.5954,1.981,2.3493,2.7015,2.8339,2.8977,2.8955,2.8919,2.8872,2.8872,2.8222,2.8072,2.8381,2.8302,2.9259,3.1044,3.107,3.1962,3.3352,3.2448,3.0955,2.8746,2.4133,1.8478,1.2475,0.9065,0.5632,0.243,0.0387,0.0748,0.2513,0.4846,0.5773,0.5787,0.4703,0.3414,0.2026,0.073,-0.0557,-0.1392,-0.0736,-0.0199,0.0504,0.2126,0.3313,0.4352,0.515,0.5621,0.5829,0.5755,0.5221,0.4508,0.3463,0.2666,0.1776,0.0723,-0.065,-0.1797,-0.2214,-0.4391,-0.6227,-0.6857,-0.8665,-1.0031,-1.0693,-1.1084,-1.1328,-1.1328,-1.109,-1.088,-1.088,-1.0802,-1.1376,-1.275,-1.407,-1.5362,-1.647,-1.7617,-1.804,-1.7762,-1.7575,-1.7485,-1.7537,-1.9405,-2.1391,-2.3503,-2.5031,-2.5295,-2.4611,-2.4611,-2.4413,-2.395,-2.3608,-2.3425,-2.3457,-2.4516,-2.5496,-2.6248,0.0,0.0,0.0,0.0,0.0,0.0,0.0,0.0,0.0,0.0,0.0,0.0,0.0,-0.4618,-0.2834,0.0131,0.3888,0.8516,1.4195,1.7781,2.1583,2.5849,2.7779,2.8685,2.8635,2.9231,2.958,2.958,2.863,2.8757,2.9829,3.0098,3.1267,3.3239,3.4023,3.5054,3.6211,3.6826,3.6589,3.5718,3.4686,2.9263,2.1649,2.0082,1.477,0.7851,0.5575,0.5339,0.6563,0.9352,0.8756,0.6883,0.7032,0.4853,0.2224,0.2437,0.1449,0.036,0.0609,0.1944,0.334,0.368,0.6175,0.8635,0.8786,0.9093,0.9418,0.9703,0.7875,0.6233,0.6275,0.398,0.2079,0.2063,0.0849,-0.0564,-0.1924,-0.2304,-0.3089,-0.486,-0.6694,-0.8027,-0.8551,-1.0185,-1.1237,-1.1237,-1.1033,-1.088,-1.088,-1.0802,-1.1376,-1.275,-1.3927,-1.5066,-1.6172,-1.7343,-1.775,-1.7497,-1.7485,-1.7485,-1.759,-2.0189,-2.1814,-2.2712,-2.4188,-2.4624,-2.422,-2.422,-2.3932,-2.3508,-2.3499,-2.3261,-2.2922,-2.2988,-2.4193,-2.5771,0.0,0.0,0.0,0.0,0.0,0.0,0.0,0.0,0.0,0.0,0.0,0.0,0.0,0.0,0.0,0.0,0.1126,0.5346,1.0809,1.5371,1.9512,2.3183,2.5974,2.7513,2.7741,2.8526,2.8942,2.8942,2.899,2.938,3.0132,3.1248,3.2786,3.4695,3.6365,3.7984,3.9537,4.0537,4.1149,4.1312,3.9555,3.3358,2.4842,2.1513,1.4805,0.6917,0.0,0.6064,0.7884,0.8634,0.8725,0.844,0.8062,0.6817,0.5346,0.4437,0.4019,0.4086,0.5177,0.6053,0.6887,0.7926,0.9069,1.0026,1.018,1.035,1.0308,0.9727,0.8917,0.7778,0.6198,0.512,0.3874,0.2046,0.1527,0.0845,-0.0499,-0.1559,-0.2433,-0.3279,-0.4812,-0.5975,-0.6548,-0.9115,-1.0802,-1.1006,-1.0789,-1.0643,-1.0643,-1.0694,-1.1668,-1.3743,-1.423,-1.5423,-1.7332,-1.7733,-1.7744,-1.7485,-1.7485,-1.7414,-1.7415,-1.9941,-2.1238,-2.1597,-2.3616,-2.4395,-2.4183,-2.3859,-2.3618,-2.3444,-2.2895,-2.2602,-2.2455,-2.2199,-2.3322,-2.4954,0.0,0.0,0.0,0.0,0.0,0.0,0.0,0.0,0.0,0.0,0.0,0.0,0.0,0.0,0.0,0.0,0.0,0.2693,0.7736,1.205,1.6097,1.9936,2.2342,2.3819,2.435,2.489,2.5282,2.5538,2.5463,2.654,2.8662,2.8918,3.0835,3.4121,3.6042,3.7931,3.9773,4.1308,4.1898,4.1549,3.9018,3.2493,2.3848,1.9674,1.2867,0.0,0.4779,0.59,0.7808,0.8526,0.8971,0.9267,0.9584,0.916,0.8374,0.753,0.7467,0.8016,0.9424,1.0252,1.0966,1.2056,1.2359,1.2429,1.2496,1.1708,1.0735,1.007,0.9217,0.8188,0.6621,0.5957,0.5039,0.3301,0.2393,0.1637,0.0772,-0.0487,-0.1437,-0.1607,-0.2984,-0.4386,-0.5438,-0.794,-0.9574,-0.9959,-1.0359,-1.0551,-1.0493,-1.0585,-1.1323,-1.2889,-1.3802,-1.4978,-1.6469,-1.735,-1.7648,-1.7485,-1.7388,-1.728,-1.7222,-1.9562,-2.0625,-2.0732,-2.3151,-2.4149,-2.4016,-2.3663,-2.3407,-2.3215,-2.2547,-2.219,-2.2034,-2.1787,-2.2906,-2.454,0.0,0.0,0.0,0.0,0.0,0.0,0.0,0.0,0.0,0.0,0.0,0.0,0.0,0.0,0.0,0.0,0.0,0.0,0.4941,0.785,1.1467,1.6059,1.703,1.7858,1.8722,1.8754,1.9088,1.9727,1.8712,2.0721,2.5425,2.3444,2.5562,3.116,3.2672,3.4426,3.6433,3.8777,3.8681,3.6752,3.3758,2.7439,1.9343,1.5213,0.9515,0.3715,0.3941,0.5016,0.6679,0.9096,0.9618,0.9622,1.1686,1.1885,1.1356,1.163,1.1783,1.2129,1.3324,1.4378,1.5315,1.5869,1.5779,1.5553,1.5553,1.315,1.0763,1.0595,0.8962,0.753,0.7472,0.6367,0.5499,0.5504,0.3495,0.1871,0.1844,0.0799,0.0,0.0,-0.139,-0.3107,-0.4981,-0.6543,-0.7645,-0.8156,-0.9754,-1.0639,-1.0487,-1.0487,-1.0545,-1.0586,-1.2736,-1.3953,-1.4005,-1.6326,-1.7449,-1.7418,-1.7183,-1.7114,-1.7179,-1.9101,-2.0,-2.0174,-2.2663,-2.3737,-2.3741,-2.3539,-2.3233,-2.2831,-2.2419,-2.2025,-2.1696,-2.1696,-2.2862,-2.4456,0.0,0.0,0.0,0.0,0.0,0.0,0.0,0.0,0.0,0.0,0.0,0.0,0.0,0.0,0.0,0.0,0.0,0.0,0.1331,0.4,0.6969,1.038,1.1791,1.3033,1.4164,1.5142,1.5728,1.5905,1.6797,1.8144,1.978,1.8794,1.9432,2.1456,2.1611,2.2959,2.5313,2.8402,3.0423,3.1468,2.9956,2.4375,1.6455,1.2018,0.6375,0.0919,0.1508,0.3712,0.6561,0.829,1.0545,1.2759,1.3801,1.4812,1.5647,1.586,1.6405,1.7092,1.7694,1.7869,1.7957,1.8256,1.6854,1.5358,1.5374,1.3312,1.1163,1.025,0.8957,0.7743,0.6953,0.6722,0.6372,0.5598,0.4293,0.3102,0.2278,0.0918,0.0,0.0,-0.0407,-0.0928,-0.1646,-0.4059,-0.5719,-0.6234,-0.8939,-1.0487,-1.0341,-1.0432,-1.0785,-1.1356,-1.3022,-1.4312,-1.5178,-1.6494,-1.699,-1.6592,-1.673,-1.703,-1.7546,-1.9035,-2.0144,-2.1048,-2.2561,-2.3228,-2.3277,-2.288,-2.2624,-2.24,-2.1998,-2.1778,-2.1696,-2.1696,-2.2467,-2.3574,0.0,0.0,0.0,0.0,0.0,0.0,0.0,0.0,0.0,0.0,0.0,0.0,0.0,0.0,0.0,0.0,0.0,0.0,0.0,0.0186,0.2394,0.5381,0.5872,0.6728,0.8122,0.8479,0.8826,0.9265,1.005,1.1418,1.325,1.2258,1.262,1.4079,1.3948,1.48,1.6542,1.9583,2.1436,0.0,0.0,1.7262,1.0347,0.7711,0.3666,-0.0334,0.168,0.5679,1.0302,1.2495,1.4575,1.6351,1.6949,1.7873,1.8827,1.9377,1.99,2.049,2.1342,2.141,2.1077,2.0139,1.8356,1.6468,1.481,1.2595,1.0492,0.9292,0.8125,0.7163,0.6564,0.6619,0.6636,0.6244,0.4807,0.3589,0.3018,0.1249,0.0,0.0,0.0,-0.0405,-0.1397,-0.292,-0.4559,-0.6286,-0.8844,-1.03,-1.0287,-1.0293,-1.0496,-1.0966,-1.2247,-1.3731,-1.5424,-1.6408,-1.6767,-1.6465,-1.6501,-1.6959,-1.7822,-1.8904,-2.0075,-2.1175,-2.2264,-2.2818,-2.2912,-2.2452,-2.2161,-2.1998,-2.1778,-2.1577,-2.144,-2.1623,-2.2431,-2.3446,0.0,0.0,0.0,0.0,0.0,0.0,0.0,0.0,0.0,0.0,0.0,0.0,0.0,0.0,0.0,0.0,0.0,0.0,0.0,0.0,-0.1889,0.0854,0.016,0.0384,0.18,0.1146,0.12,0.2082,0.188,0.3385,0.6423,0.4812,0.5253,0.7377,0.703,0.7415,0.8442,1.0984,1.1892,1.1661,1.21,0.8846,0.367,0.0,0.1552,-0.0424,0.3509,0.9198,1.5327,1.8505,1.964,1.985,2.0369,2.0925,2.1536,2.2505,2.2818,2.3138,2.42,2.4429,2.3796,2.1415,1.9626,1.7514,1.4061,1.1361,0.9253,0.8062,0.6958,0.6203,0.6268,0.6339,0.6516,0.6967,0.5274,0.3872,0.3878,0.1794,0.0204,0.0,0.0,-0.0615,-0.2157,-0.2482,-0.388,-0.6883,-0.8625,-0.9742,-1.022,-1.0051,-1.0122,-1.0389,-1.1341,-1.3008,-1.5306,-1.6185,-1.6628,-1.6592,-1.6344,-1.6821,-1.8003,-1.8836,-1.9775,-2.0907,-2.1926,-2.2425,-2.2452,-2.2064,-2.1753,-2.156,-2.1549,-2.1312,-2.1071,-2.1394,-2.2275,-2.3318,0.0,0.0,0.0,0.0,0.0,0.0,0.0,0.0,0.0,0.0,-0.7703,-0.8198,0.0,0.0,0.0,0.0,0.0,0.0,0.0,0.0,0.0,-0.348,-0.3045,-0.2649,-0.2192,-0.1338,-0.0801,-0.0627,-0.0569,-0.0201,0.0362,-0.1767,-0.2541,-0.2251,-0.4987,-0.4921,-0.2594,-0.0474,0.173,0.4015,0.5824,0.4988,0.2564,0.1637,0.0,0.0,0.6233,1.144,1.6187,1.9888,2.1324,2.1702,2.2684,2.4085,2.5418,2.5639,2.6196,2.6593,2.5858,2.5117,2.4055,2.1636,1.845,1.5436,1.3572,1.0489,0.785,0.7413,0.6502,0.5855,0.595,0.6225,0.6567,0.7128,0.6051,0.492,0.4298,0.2745,0.1243,0.0142,0.0,-0.0137,-0.0411,-0.154,-0.3035,-0.4943,-0.6368,-0.7949,-0.9688,-0.9823,-1.0639,-1.24,-1.2645,-1.3843,-1.6085,-1.6264,-1.6241,-1.603,-1.5982,-1.6599,-1.7708,-1.8736,-1.9654,-2.0464,-2.156,-2.1829,-2.1442,-2.1271,-2.1078,-2.0938,-2.0775,-2.0686,-2.0631,-2.0662,-2.0846,-2.1277,0.0,0.0,0.0,0.0,0.0,0.0,0.0,-0.928,-0.9007,-0.769,-0.7944,-0.8297,-0.8337,-0.8406,-0.8565,0.0,0.0,0.0,0.0,0.0,0.0,0.0,-0.5167,-0.4836,-0.4442,-0.3693,-0.3232,-0.3173,0.0,-0.2989,-0.3197,-0.4361,-0.5315,-0.611,-0.8447,-0.907,-0.8265,-0.6839,-0.5237,-0.3384,-0.0902,-0.0265,-0.0782,0.0,0.0,0.0,0.8702,1.2835,1.6346,1.999,2.1447,2.2125,2.4418,2.5538,2.6133,2.6582,2.6574,2.6385,2.624,2.5484,2.3811,2.0153,1.7277,1.4422,1.0548,0.7776,0.5777,0.5096,0.4963,0.5043,0.5254,0.585,0.6505,0.698,0.5557,0.4284,0.3993,0.2199,0.0749,0.0069,0.0,0.0,0.0,-0.0597,-0.1902,-0.4162,-0.4993,-0.654,-0.9346,-0.9573,-1.005,-1.1101,-1.22,-1.3277,-1.4343,-1.5542,-1.6012,-1.5891,-1.5891,-1.6783,-1.8461,-1.8968,-1.9931,-2.1172,-2.1529,-2.1449,-2.1044,-2.0792,-2.0658,-2.0616,-2.0552,-2.0521,-2.0521,-2.0521,-2.0916,-2.1616,0.0,0.0,0.0,0.0,0.0,0.0,0.0,-0.9115,-0.8819,-0.8434,-0.8588,-0.8658,-0.8386,-0.8665,-0.9162,0.0,0.0,0.0,0.0,0.0,0.0,0.0,0.0,0.0,-0.5877,0.0,0.0,-0.4977,-0.4823,0.0,0.0,0.0,0.0,0.0,-0.9095,-1.02,-1.0856,-1.0129,-0.9456,0.0,0.0,-0.4711,-0.39,0.0,0.0,0.0,0.0,1.2797,1.5621,1.9134,2.0562,2.1454,2.457,2.5548,2.5616,2.5981,2.5731,2.5407,2.5559,2.465,2.2552,1.8196,1.541,1.2399,0.7394,0.4964,0.3587,0.2743,0.3328,0.4106,0.458,0.5154,0.5778,0.6341,0.477,0.3379,0.3252,0.1597,0.0332,0.0066,0.0,0.0,0.0,0.0,-0.1106,-0.383,-0.463,-0.617,-0.896,-0.9166,-0.9374,-0.957,-1.1522,-1.2663,-1.2945,-1.4899,-1.5891,-1.5891,-1.5891,-1.6829,-1.8499,-1.8968,-1.9936,-2.1147,-2.1264,-2.106,-2.0694,-2.0289,-2.0157,-2.0216,-2.0351,-2.0467,-2.0666,-2.0634,-2.1393,-2.241,0.0,0.0,0.0,0.0,0.0,0.0,0.0,-0.9242,-0.9131,-0.9337,-0.9077,-0.9132,-0.9832,-1.0032,-1.0418,0.0,0.0,0.0,0.0,0.0,0.0,0.0,0.0,0.0,0.0,0.0,0.0,-0.5267,-0.5434,0.0,0.0,0.0,0.0,0.0,0.0,-1.073,-1.0618,-1.0376,0.0,0.0,0.0,0.0,0.0,0.0,0.0,0.0,0.0,1.0063,1.3366,1.7097,1.8674,1.9442,2.1758,2.3599,2.4641,2.3493,2.4427,2.5406,2.3406,2.1518,1.9391,1.6643,1.1966,0.755,0.576,0.3404,0.1593,0.1567,0.222,0.3208,0.4312,0.3864,0.3717,0.4943,0.4279,0.3274,0.2309,0.194,0.1351,0.0134,0.0,0.0,0.0,0.0,-0.1086,-0.3653,-0.6094,-0.7726,-0.8365,-0.8622,-0.9163,-1.0122,-1.1636,-1.2935,-1.4034,-1.5256,-1.5891,-1.5891,-1.5891,-1.5998,-1.6252,-1.829,-1.8942,-1.8545,-2.021,-2.0497,-1.9779,-1.9465,-1.9297,-1.9345,-1.9775,-2.0492,-2.119,-2.111,-2.164,-2.2553,0.0,0.0,0.0,0.0,0.0,0.0,-0.9707,-0.9345,-0.9238,-0.9691,-0.9368,-0.9605,-1.0916,-1.0961,-1.0891,-1.0902,0.0,0.0,0.0,0.0,0.0,0.0,0.0,0.0,0.0,0.0,-0.4704,-0.4861,-0.5048,0.0,0.0,0.0,0.0,0.0,0.0,-1.0047,-1.0797,-1.0358,0.0,0.0,0.0,0.0,0.0,0.0,0.0,0.0,0.0,0.0,0.9458,1.2265,1.4015,1.5103,1.5693,1.7846,2.0463,2.211,2.2957,2.3083,2.1736,1.9843,1.7367,1.3679,0.9613,0.5827,0.3112,0.0685,-0.0983,-0.105,0.0128,0.1322,0.1811,0.2496,0.3209,0.38,0.305,0.224,0.1798,0.1215,0.0599,0.0063,0.0,0.0,0.0,-0.0634,-0.2099,-0.4559,-0.6489,-0.7531,-0.7626,-0.8236,-0.9095,-1.0178,-1.1651,-1.2965,-1.4169,-1.5351,-1.5891,-1.5891,-1.5891,-1.6258,-1.7001,-1.8506,-1.9182,-1.9187,-2.0359,-2.04,-1.9566,-1.9146,-1.9318,-1.9805,-1.972,-2.0324,-2.1178,-2.1124,-2.166,-2.2475,0.0,0.0,0.0,0.0,0.0,-1.0149,-0.9756,-0.9597,-0.9708,-1.0259,-0.9884,-1.0212,-1.176,-1.1518,-1.122,-1.1039,-1.0747,0.0,0.0,0.0,0.0,0.0,0.0,0.0,0.0,0.0,-0.4482,-0.4697,-0.4853,-0.4991,0.0,0.0,-0.7938,-0.8431,0.0,0.0,0.0,0.0,0.0,0.0,0.0,0.0,0.0,0.0,0.0,0.0,0.0,0.0,0.0,0.0,0.0,1.0863,1.0906,1.3101,1.6289,1.9374,2.0529,2.0644,1.9813,1.7749,1.5009,1.1413,0.767,0.401,0.0937,-0.1273,-0.2759,-0.312,-0.1609,-0.018,0.0095,0.1217,0.2232,0.2665,0.1835,0.1141,0.1115,0.0492,0.0,0.0,0.0,0.0,0.0,-0.1412,-0.3052,-0.4718,-0.6334,-0.7244,-0.7215,-0.7875,-0.8592,-0.9412,-1.1269,-1.2689,-1.3565,-1.5003,-1.5777,-1.5771,-1.5692,-1.6076,-1.6912,-1.8283,-1.8994,-1.9227,-2.0132,-2.0107,-1.9375,-1.8922,-1.9164,-1.9784,-1.9655,-2.0403,-2.1598,-2.1526,-2.2203,-2.3163,0.0,0.0,0.0,0.0,0.0,0.0,-0.9756,-1.0147,-1.0696,-1.1219,-1.0895,-1.1027,-1.2248,-1.175,-1.1484,-1.1932,-1.1484,0.0,0.0,0.0,0.0,0.0,0.0,0.0,0.0,0.0,-0.4712,-0.4897,-0.51,-0.528,-0.5528,-0.7945,-0.8953,-0.8746,0.0,0.0,0.0,0.0,0.0,0.0,0.0,0.0,-0.8805,0.0,0.0,0.0,0.0,0.0,0.0,0.0,0.0,0.0,0.0,1.056,1.2897,1.4564,1.6815,1.8513,1.7449,1.4771,1.1916,1.0575,0.6151,0.1633,-0.0443,-0.1976,-0.3228,-0.4099,-0.2729,-0.1121,-0.0146,0.0,0.0404,0.1462,0.0707,0.0,0.0,0.0,0.0,0.0,0.0,0.0,0.0,-0.2198,-0.3621,-0.3618,-0.5868,-0.7213,-0.721,-0.7438,-0.7607,-0.7607,-1.0453,-1.2037,-1.2032,-1.4351,-1.5499,-1.5499,-1.524,-1.5113,-1.5214,-1.7342,-1.8094,-1.7783,-1.915,-1.9538,-1.9162,-1.8644,-1.8589,-1.8937,-1.9424,-2.0916,-2.2757,-2.2477,-2.342,-2.4806,0.0,0.0,0.0,0.0,0.0,0.0,0.0,-1.0108,-1.0584,-1.1407,-1.0874,-1.0692,-1.156,-1.1595,-1.1689,-1.1978,-1.1533,0.0,0.0,0.0,0.0,0.0,0.0,0.0,0.0,0.0,-0.4097,-0.421,-0.3821,-0.408,-0.4939,-0.6574,-0.7975,-0.9197,-0.9453,-0.9927,0.0,0.0,0.0,0.0,0.0,-1.0621,-1.0809,0.0,0.0,0.0,0.0,0.0,0.0,0.0,0.0,0.0,0.0,0.0,0.0,0.9134,1.2541,1.5682,1.4708,1.2828,1.0552,0.7908,0.4675,0.1549,-0.0662,-0.1941,-0.2749,-0.3121,-0.2209,-0.1235,-0.1023,-0.0448,0.0101,0.0454,0.0202,0.0,0.0,0.0,0.0,0.0,0.0,-0.0299,-0.1127,-0.2685,-0.3961,-0.4743,-0.6279,-0.721,-0.721,-0.7268,-0.7762,-0.8744,-1.0065,-1.1538,-1.3161,-1.3964,-1.4752,-1.5493,-1.5234,-1.5107,-1.5157,-1.7328,-1.8086,-1.7776,-1.9134,-1.9521,-1.9162,-1.843,-1.8311,-1.8684,-1.9778,-2.0735,-2.1579,-2.2391,-2.3226,-2.3916,0.0,0.0,0.0,0.0,0.0,0.0,0.0,-0.9805,-1.0354,-1.0974,-1.0836,-1.0878,-1.1382,-1.1519,-1.1598,-1.1679,-1.1343,0.0,0.0,0.0,0.0,0.0,0.0,0.0,-0.6378,-0.4743,-0.3904,-0.4027,-0.3331,-0.3576,-0.4689,-0.6135,-0.783,-0.9618,-0.9552,-0.9958,0.0,0.0,0.0,0.0,-1.1165,-1.123,-1.1285,0.0,0.0,0.0,0.0,0.0,0.0,0.0,0.0,0.0,0.0,0.0,0.0,0.0,0.8371,1.1418,1.1884,1.0533,0.8431,0.6004,0.3666,0.1407,-0.0842,-0.1721,-0.2214,-0.2734,-0.2023,-0.1355,-0.1481,-0.0651,0.0,0.0,0.0,0.0,0.0,0.0,0.0,0.0,0.0,-0.0294,-0.1033,-0.2235,-0.3418,-0.465,-0.5815,-0.6707,-0.7154,-0.721,-0.7572,-0.8394,-0.9319,-1.0746,-1.2641,-1.3164,-1.3997,-1.5197,-1.4932,-1.4805,-1.4849,-1.6815,-1.7563,-1.7377,-1.8725,-1.917,0.0,-1.8134,-1.7992,-1.8353,-1.9228,-2.004,-2.0839,-2.1749,-2.2582,-2.3212,0.0,0.0,0.0,0.0,0.0,0.0,0.0,-0.9339,-1.0027,-1.0209,-1.0846,-1.1357,-1.1584,-1.1375,-1.1175,-1.1197,0.0,0.0,0.0,0.0,0.0,0.0,0.0,0.0,-0.6528,-0.4863,-0.4082,-0.4192,-0.3393,-0.3591,-0.4822,-0.6525,-0.8273,-1.0015,-1.0162,-1.0438,0.0,0.0,0.0,0.0,-1.2251,-1.1724,0.0,0.0,0.0,0.0,0.0,0.0,0.0,0.0,0.0,0.0,0.0,0.0,0.0,0.0,0.0,0.0,0.0,0.8018,0.6043,0.4785,0.3167,0.1345,-0.0804,-0.1294,0.0,-0.26,-0.1985,-0.1333,-0.1457,-0.0656,0.0,0.0,0.0,0.0,0.0,0.0,0.0,0.0,0.0,0.0,0.0,-0.107,-0.2277,-0.3361,-0.4643,-0.5873,-0.6988,-0.7154,-0.7152,-0.6975,-0.8306,-0.961,-1.0845,-1.1976,-1.3237,-1.456,-1.4382,-1.4298,-1.4334,-1.5915,-1.6646,-1.6791,-1.7961,-1.8529,-1.8494,-1.7806,-1.7646,-1.7892,-1.8053,-1.9011,-2.0357,-2.0743,-2.1644,-2.2707,0.0,0.0,0.0,0.0,0.0,0.0,0.0,0.0,0.0,0.0,-1.0807,-1.1023,-1.0857,-1.0486,-1.0445,0.0,0.0,0.0,0.0,0.0,0.0,0.0,0.0,0.0,-0.6647,-0.4963,-0.4111,-0.4192,-0.2679,-0.2905,-0.482,-0.6469,-0.8303,-1.0324,-1.101,-1.0816,0.0,0.0,0.0,0.0,-1.1828,-1.2005,0.0,0.0,0.0,0.0,-0.8589,-0.7979,0.0,0.0,0.0,0.0,0.0,0.0,0.0,0.0,0.0978,0.2446,0.4914,0.0,0.6465,0.4665,0.3443,0.2171,0.0,-0.0328,-0.0379,-0.063,-0.0495,-0.0352,-0.0353,-0.0151,0.0,0.0,0.0,0.0,0.0,0.0,0.0,0.0,0.0,0.0,0.0,-0.1066,-0.1911,-0.2183,-0.4196,-0.5539,-0.5817,-0.671,-0.7114,-0.6853,-0.716,-0.8035,-0.9451,-1.076,-1.2024,-1.3181,-1.3928,-1.4298,-1.4334,-1.5272,-1.6053,-1.6746,-1.7317,-1.7796,-1.8126,-1.7663,-1.7175,-1.6813,-1.7971,-1.8848,-1.9576,-2.0387,-2.1529,-2.2604,0.0,0.0,0.0,0.0,0.0,0.0,0.0,0.0,0.0,0.0,0.0,-1.0608,-1.0029,-0.999,0.0,0.0,0.0,0.0,0.0,0.0,0.0,0.0,0.0,-0.6807,-0.6807,-0.51,-0.4211,-0.4299,-0.2486,-0.2695,-0.4822,-0.5741,-0.7455,-0.9793,-1.0336,-1.0179,0.0,0.0,0.0,-1.1094,-1.1404,0.0,0.0,0.0,0.0,0.0,-0.9997,-0.9437,0.0,-0.9328,-0.9339,-0.8935,0.0,0.0,0.0,0.0,-0.1001,0.0477,0.2606,0.4173,0.5063,0.454,0.3364,0.2059,0.0984,0.0333,0.0,0.0,0.0,0.0,0.0,0.0,0.0,0.0,0.0,0.0,0.0,0.0,0.0,0.0,0.0,0.0,0.0,-0.0616,-0.1176,-0.1735,-0.3021,-0.425,-0.5316,-0.604,-0.6498,-0.6809,-0.6801,-0.7421,-0.8718,-0.9937,-1.1231,-1.2522,-1.3465,-1.4022,-1.4152,-1.4702,-1.5181,-1.5681,-1.6419,-1.6992,-1.7398,-1.7089,-1.6816,-1.6659,-1.7632,-1.8375,-1.9002,-2.0002,-2.1063,-2.1937,0.0,0.0,0.0,0.0,0.0,0.0,0.0,0.0,0.0,0.0,0.0,0.0,0.0,0.0,0.0,0.0,0.0,0.0,0.0,0.0,0.0,0.0,0.0,-0.6997,-0.6997,-0.5222,-0.435,-0.4439,-0.2529,-0.2722,-0.4826,-0.5001,-0.6583,-0.9148,-0.9151,-0.9231,0.0,-0.9096,-0.9945,-1.1437,-1.1058,0.0,0.0,0.0,0.0,0.0,0.0,0.0,0.0,-1.077,-1.0969,-1.0812,-0.967,0.0,0.0,0.0,0.0,0.0,0.1102,0.2174,0.3042,0.421,0.3151,0.1816,0.1625,0.0775,0.0,0.0,0.0,0.0,0.0,0.0,0.0,0.0,0.0,0.0,0.0,0.0,0.0,0.0,0.0,0.0,0.0,0.0,-0.0448,-0.1456,-0.168,-0.2798,-0.4979,-0.5316,-0.5838,-0.6756,-0.6801,-0.7197,-0.8071,-0.9205,-1.0534,-1.2042,-1.2914,-1.3514,-1.3888,-1.4136,-1.4305,-1.4442,-1.5461,-1.6157,-1.6508,-1.6418,-1.6507,-1.6762,-1.7024,-1.7696,-1.8536,-1.9486,-2.0399,-2.1126,0.0,0.0,0.0,0.0,0.0,0.0,0.0,0.0,0.0,0.0,0.0,0.0,0.0,0.0,0.0,0.0,0.0,0.0,0.0,0.0,0.0,-0.7539,-0.7383,-0.7305,-0.7305,-0.5371,-0.4441,-0.4578,-0.2595,-0.2722,-0.4824,-0.5724,-0.7466,-0.9727,-0.9235,-0.8761,-0.8333,-0.8569,-0.9482,-1.0782,-1.1295,0.0,0.0,0.0,0.0,0.0,0.0,0.0,0.0,-1.1599,-1.2098,-1.2273,-1.1495,0.0,0.0,0.0,0.0,0.0,-0.0699,0.0718,0.2071,0.3157,0.3167,0.2729,0.1805,0.0783,0.0,0.0,0.0,0.0,0.0,0.0,0.0,0.0,0.0,0.0,0.0,0.0,0.0,0.0,0.0,0.0,0.0,0.0,-0.0056,-0.028,-0.1232,-0.2407,-0.3804,-0.4868,-0.5838,-0.6756,-0.6801,-0.6788,-0.6686,-0.8018,-0.9345,-1.0711,-1.191,-1.2958,-1.3894,-1.3729,-1.3938,-1.4399,-1.4846,-1.5289,-1.5785,-1.6162,-1.6191,-1.5959,-1.6016,-1.689,-1.8128,-1.8569,-1.9584,-2.0743,0.0,0.0,0.0,0.0,0.0,0.0,0.0,0.0,0.0,0.0,0.0,0.0,0.0,0.0,0.0,0.0,0.0,0.0,0.0,0.0,-0.7868,-0.7723,-0.7645,-0.73,-0.6548,-0.5131,-0.417,-0.3718,-0.2345,-0.2416,-0.3972,-0.556,-0.7003,-0.829,-0.8273,-0.7944,-0.7452,-0.7811,-0.8676,-0.9919,0.0,0.0,0.0,0.0,0.0,0.0,0.0,0.0,0.0,0.0,-1.3417,-1.3479,-1.3044,0.0,0.0,0.0,0.0,0.0,-0.3203,-0.117,0.0618,0.1127,0.1818,0.2209,0.172,0.0781,0.0,0.0,0.0,0.0,0.0,0.0,0.0,0.0,0.0,0.0,0.0,0.0,0.0,0.0,0.0,0.0,0.0,0.0,0.0,0.0,-0.0498,-0.1327,-0.2539,-0.3718,-0.4807,-0.5792,-0.6367,-0.6619,-0.6387,-0.703,-0.8361,-1.0413,-1.1433,-1.252,-1.3682,-1.3266,-1.3225,-1.3525,-1.409,-1.4643,-1.5216,-1.5802,-1.6071,-1.6115,-1.6184,-1.695,-1.8128,-1.9222,-2.0031,-2.0667,0.0,0.0,0.0,0.0,0.0,0.0,0.0,0.0,0.0,0.0,0.0,0.0,0.0,0.0,0.0,0.0,0.0,0.0,0.0,0.0,-0.7884,-0.7818,-0.7811,-0.7321,-0.6313,-0.5298,-0.4362,-0.3399,-0.2791,-0.2867,-0.3698,-0.5163,-0.6039,-0.6317,-0.7016,-0.7063,-0.6709,-0.7272,-0.8224,-0.9353,0.0,0.0,0.0,0.0,0.0,0.0,0.0,0.0,0.0,0.0,0.0,0.0,0.0,0.0,0.0,-1.0466,-0.8799,-0.7251,-0.5613,-0.3027,-0.0768,-0.079,0.0431,0.1586,0.1591,0.1038,0.0379,0.0053,0.0264,0.0367,0.0052,0.0,0.0,0.0,0.0,0.0,0.0,0.0,0.0,0.0,0.0,0.0,0.0,0.0,0.0,0.0,0.0,-0.0546,-0.1736,-0.2836,-0.3869,-0.496,-0.6041,-0.6559,-0.6387,-0.6387,-0.7621,-1.0026,-1.0857,-1.1885,-1.3126,-1.2887,-1.2765,-1.2747,-1.3416,-1.4093,-1.4721,-1.5287,-1.5816,-1.6263,-1.6387,-1.7044,-1.8206,-1.9868,-2.0539,-2.0667,0.0,0.0,0.0,0.0,0.0,0.0,0.0,0.0,0.0,0.0,0.0,0.0,0.0,0.0,0.0,0.0,0.0,0.0,0.0,0.0,-0.7824,-0.7811,-0.7811,-0.7752,-0.7636,-0.6631,-0.5618,-0.4664,-0.4818,-0.4914,-0.4951,-0.4907,-0.4769,-0.4541,-0.5864,-0.63,-0.606,-0.7415,-0.857,-0.9558,-0.9592,0.0,0.0,0.0,0.0,0.0,0.0,0.0,0.0,0.0,0.0,0.0,0.0,0.0,-1.2635,-1.221,-0.9965,-0.7548,-0.74,-0.4674,-0.1907,-0.1859,-0.0104,0.1603,0.1598,0.1744,0.1505,0.0277,0.0991,0.1462,0.0213,0.0,0.0,0.0,0.0,0.0,0.0,0.0,0.0,0.0,0.0,0.0,0.0,0.0,0.0,0.0,0.0,-0.0543,-0.1759,-0.2817,-0.3899,-0.4973,-0.6053,-0.6559,-0.6387,-0.6387,-0.7226,-0.8901,-0.9747,-1.0792,-1.2027,-1.2773,-1.2952,-1.2717,-1.2998,-1.36,-1.4343,-1.4581,-1.5141,-1.584,-1.5841,-1.6751,-1.8162,-1.9606,-2.0334,-2.0667,0.0,0.0,0.0,0.0,0.0,0.0,0.0,0.0,0.0,0.0,0.0,0.0,0.0,0.0,0.0,0.0,0.0,0.0,0.0,-0.7664,-0.7811,-0.7811,-0.7902,-0.815,-0.8679,-0.7875,-0.693,-0.5911,-0.5934,-0.5606,-0.4959,-0.4663,-0.4428,-0.4259,-0.4883,-0.5025,-0.4946,-0.6382,-0.7232,-0.7723,-0.9061,-0.9888,0.0,0.0,0.0,0.0,0.0,0.0,0.0,0.0,-1.4298,-1.428,-1.4177,-1.3921,-1.3542,-1.2768,-1.1581,-1.0259,-0.9166,-0.6611,-0.4058,-0.3419,-0.093,0.1443,0.1789,0.1306,0.0846,0.1162,0.0956,0.0623,0.0109,0.0,0.0,0.0,0.0,0.0,0.0,0.0,0.0,0.0,0.0,0.0,0.0,0.0,0.0,0.0,0.0,-0.0211,-0.0681,-0.1708,-0.2781,-0.3829,-0.4857,-0.5728,-0.6333,-0.6257,-0.6651,-0.7558,-0.9208,-1.0627,-1.1801,-1.254,-1.2807,-1.2717,-1.2983,-1.3567,-1.4328,-1.4695,-1.523,-1.5832,-1.6167,-1.6855,-1.7774,-1.8867,-1.9704,-2.0334,0.0,0.0,0.0,0.0,0.0,0.0,0.0,0.0,0.0,0.0,0.0,0.0,0.0,0.0,0.0,0.0,0.0,0.0,-0.7094,-0.7382,-0.76,-0.7743,-0.8129,-0.8594,-0.9204,-0.9464,-0.8918,-0.7416,-0.6716,-0.5914,-0.4959,-0.4309,-0.3809,-0.3441,-0.386,-0.3957,-0.4036,-0.5715,-0.6387,-0.6534,-0.8372,-0.9196,0.0,0.0,0.0,0.0,0.0,0.0,0.0,0.0,-1.4298,-1.4298,-1.4298,-1.4298,-1.4136,-1.3324,-1.2751,-1.2077,-1.0427,-0.7882,-0.545,-0.4387,-0.1801,0.0882,0.217,0.2052,0.1889,0.2429,0.1544,0.0629,0.0547,0.0214,0.0107,0.0439,0.0221,0.0,0.0,0.0,0.0,0.0,0.0,0.0,0.0,0.0,0.0,0.0,0.0,0.0,0.0,-0.0998,-0.1942,-0.2672,-0.3983,-0.5043,-0.5772,-0.5984,-0.6302,-0.6777,-0.8543,-1.0002,-1.1266,-1.2259,-1.2705,-1.2717,-1.2706,-1.3173,-1.3931,-1.4351,-1.5037,-1.5832,-1.6403,-1.6925,-1.751,-1.8465,-1.9365,-2.0139,0.0,0.0,0.0,0.0,0.0,0.0,0.0,0.0,0.0,0.0,0.0,0.0,0.0,0.0,0.0,0.0,0.0,0.0,-0.6956,-0.7011,-0.7168,-0.759,-0.8524,-0.9067,-0.9196,-1.1496,-1.1583,-0.9212,-0.7367,-0.5962,-0.506,-0.3807,-0.2648,-0.1763,-0.2745,-0.3207,-0.3413,-0.5526,-0.6387,-0.6484,-0.7587,-0.8627,-0.9608,0.0,0.0,0.0,0.0,0.0,0.0,0.0,-1.4298,-1.4298,-1.4298,-1.4298,-1.4244,-1.3984,-1.3317,-1.2432,-1.1158,-0.8459,-0.5752,-0.4666,-0.2654,-0.0157,0.2705,0.4416,0.506,0.3973,0.2836,0.1884,0.1608,0.0736,0.0365,0.1433,0.0693,0.0,0.0,0.0,0.0,0.0,0.0,0.0,0.0,0.0,0.0,0.0,0.0,0.0,0.0,-0.1,-0.157,-0.1618,-0.3612,-0.4703,-0.4705,-0.5606,-0.6254,-0.6587,-0.7538,-0.8755,-1.023,-1.1907,-1.2705,-1.2674,-1.2149,-1.2353,-1.312,-1.3392,-1.441,-1.5832,-1.6368,-1.6925,-1.751,-1.8442,-1.9332,-2.0139,0.0,0.0,0.0,0.0,0.0,0.0,0.0,0.0,0.0,0.0,0.0,0.0,0.0,0.0,0.0,0.0,0.0,0.0,-0.6367,-0.6772,-0.7031,-0.7165,-0.8522,-0.9553,-1.0179,-1.2413,-1.2914,-1.1641,-1.0241,-0.8235,-0.5729,-0.4465,-0.2973,-0.1349,-0.166,-0.1809,-0.1996,-0.4312,-0.5286,-0.5424,-0.7248,-0.8187,-0.8577,0.0,0.0,0.0,0.0,0.0,0.0,0.0,0.0,0.0,-1.4298,-1.4298,-1.4244,-1.3984,-1.3595,-1.2881,-1.1125,-0.9254,-0.7379,-0.5764,-0.2671,0.0417,0.1887,0.2308,0.2418,0.2288,0.1368,0.0549,0.049,0.0212,0.0104,0.0418,0.0209,0.0,0.0,0.0,0.0,0.0,0.0,0.0,0.0,0.0,0.0,0.0,0.0,0.0,0.0,-0.0286,-0.0809,-0.157,-0.2813,-0.3814,-0.456,-0.5418,-0.5955,-0.6272,-0.7264,-0.8422,-0.9762,-1.1101,-1.196,-1.2421,-1.2264,-1.2528,-1.3159,-1.394,-1.4537,-1.501,-1.5744,-1.6377,-1.695,-1.7901,-1.88,-1.9639,0.0,0.0,0.0,0.0,0.0,0.0,0.0,0.0,0.0,0.0,0.0,0.0,0.0,0.0,0.0,0.0,0.0,0.0,0.0,-0.659,-0.6902,-0.7145,-0.883,-1.045,-1.1884,-1.3211,-1.3596,-1.3031,-1.1637,-0.9257,-0.5998,-0.4886,-0.3244,-0.1192,-0.1207,-0.1205,-0.1342,-0.3206,-0.4325,-0.4941,-0.6682,-0.764,-0.8088,0.0,0.0,0.0,0.0,0.0,0.0,0.0,0.0,0.0,-1.4298,-1.4298,-1.4244,-1.3984,-1.3797,-1.3297,-1.1703,-1.0051,-0.8322,-0.6508,-0.3549,-0.0572,0.1283,0.2787,0.3513,0.2652,0.1973,0.1372,0.0753,0.0628,0.0617,0.0622,0.0619,0.0465,0.0053,0.0,0.0,0.0,0.0,0.0148,0.052,0.0237,0.0143,0.0518,0.0188,0.0,0.0,0.0,-0.0279,-0.0931,-0.2204,-0.319,-0.3873,-0.5048,-0.5772,-0.6124,-0.6708,-0.7571,-0.8789,-1.0344,-1.1472,-1.2155,-1.2047,-1.2278,-1.2831,-1.3792,-1.435,-1.4673,-1.5497,-1.614,-1.6707,-1.7662,-1.8533,-1.9431,0.0,0.0,0.0,0.0,0.0,0.0,0.0,0.0,0.0,0.0,0.0,0.0,0.0,0.0,0.0,0.0,0.0,0.0,0.0,0.0,-0.6671,-0.7318,-0.9293,-1.1486,-1.3847,-1.393,-1.3791,-1.3477,-1.19,-0.9417,-0.6199,-0.5204,-0.35,-0.1307,-0.1258,-0.1208,-0.1256,-0.2356,-0.3564,-0.4819,-0.5955,-0.7003,-0.7951,-0.7965,0.0,0.0,0.0,0.0,0.0,0.0,0.0,0.0,-1.4298,-1.4298,-1.4244,-1.3984,-1.3888,-1.3631,-1.2585,-1.0891,-0.9004,-0.7151,-0.4901,-0.2246,0.1066,0.4772,0.6801,0.4284,0.3751,0.337,0.1941,0.1742,0.1781,0.1754,0.1682,0.1269,0.0258,0.0051,0.005,0.0096,0.0145,0.0482,0.1433,0.0703,0.047,0.1337,0.0553,0.0,0.0,0.0,0.0,0.0,-0.179,-0.2814,-0.2858,-0.4546,-0.5586,-0.6045,-0.6011,-0.6544,-0.7603,-0.9665,-1.1054,-1.1832,-1.1597,-1.1752,-1.2261,-1.3106,-1.3845,-1.4526,-1.5377,-1.6,-1.6529,-1.7479,-1.8378,-1.9238,0.0,0.0,0.0,0.0,0.0,0.0,0.0,0.0,0.0,0.0,0.0,0.0,0.0,0.0,0.0,0.0,0.0,0.0,0.0,0.0,-0.6361,-0.6816,-0.944,-1.1807,-1.3853,-1.4111,-1.3882,-1.3212,-1.2308,-1.0541,-0.7908,-0.6313,-0.4353,-0.2172,-0.1521,-0.1078,-0.0965,-0.2264,-0.3376,-0.4441,-0.5721,-0.6825,-0.7706,-0.7818,-0.8676,0.0,0.0,0.0,0.0,0.0,0.0,0.0,-1.4298,-1.4298,-1.4244,-1.3984,-1.3761,-1.3364,-1.2424,-1.1638,-1.082,-0.9278,-0.5395,-0.1028,0.2296,0.4577,0.5565,0.3819,0.3197,0.2812,0.2404,0.2687,0.2971,0.2849,0.2173,0.1515,0.1268,0.0506,0.0249,0.1004,0.1099,0.1509,0.249,0.1676,0.118,0.1399,0.0542,0.0,0.0,0.0,0.0,0.0,-0.1103,-0.2054,-0.2752,-0.3844,-0.4784,-0.5571,-0.5747,-0.631,-0.7188,-0.886,-1.0349,-1.1573,-1.1519,-1.1447,-1.1428,-1.2584,-1.3125,-1.3384,-1.452,-1.5023,-1.5214,-1.6114,-1.6943,-1.7779,0.0,0.0,0.0,0.0,0.0,0.0,0.0,0.0,0.0,0.0,0.0,0.0,0.0,0.0,0.0,0.0,0.0,0.0,0.0,0.0,-0.6789,-0.8413,-1.0026,-1.1922,-1.4046,-1.4226,-1.3972,-1.3308,-1.2938,-1.1327,-0.8549,-0.7214,-0.509,-0.2413,-0.2,-0.1358,-0.0668,-0.1333,-0.235,-0.3603,-0.4757,-0.5934,-0.6985,-0.7488,-0.8368,-0.9368,-1.0036,0.0,0.0,0.0,0.0,0.0,0.0,0.0,-1.4032,-1.3646,-1.3435,-1.3192,-1.2726,-1.2215,-1.1197,-0.8683,-0.5218,-0.1718,0.0981,0.2862,0.3749,0.2979,0.3031,0.2927,0.22,0.2747,0.3193,0.2881,0.2771,0.2569,0.2067,0.1513,0.1248,0.1454,0.1498,0.1855,0.2831,0.1729,0.1309,0.2299,0.0758,0.0044,0.061,0.022,0.0,0.0,-0.0904,-0.1838,-0.269,-0.3548,-0.4479,-0.5407,-0.5592,-0.6244,-0.7301,-0.8885,-1.0013,-1.0757,-1.1014,-1.1026,-1.101,-1.2214,-1.2718,-1.2841,-1.4181,-1.4684,-1.4806,-1.5684,-1.6281,-1.6817,0.0,0.0,0.0,0.0,0.0,0.0,0.0,0.0,0.0,0.0,0.0,0.0,0.0,0.0,0.0,0.0,0.0,0.0,0.0,0.0,0.0,-1.0154,-1.0576,-1.1861,-1.4202,-1.4208,-1.3996,-1.3513,-1.3471,-1.1927,-0.8964,-0.8005,-0.5828,-0.269,-0.2438,-0.1594,-0.0381,-0.0379,-0.1261,-0.2669,-0.3736,-0.4933,-0.6202,-0.7219,-0.8113,-0.89,-0.9118,-1.0393,-1.2,-1.2334,0.0,0.0,0.0,0.0,-1.3694,-1.3308,-1.3091,-1.2951,-1.3043,-1.235,-1.0856,-0.7436,-0.5061,-0.2988,-0.0779,0.0996,0.2174,0.2174,0.3064,0.3433,0.2249,0.2835,0.3338,0.2875,0.3425,0.3574,0.2672,0.2364,0.2145,0.1861,0.1851,0.22,0.3122,0.1743,0.1492,0.316,0.1233,0.0351,0.1137,0.0556,0.0172,0.0,-0.0754,-0.1587,-0.2461,-0.326,-0.4187,-0.518,-0.5504,-0.6215,-0.733,-0.897,-0.9765,-0.9943,-1.0475,-1.0683,-1.0767,-1.1813,-1.2301,-1.2535,-1.3827,-1.4381,-1.4575,-1.5292,-1.5716,-1.6083,0.0,0.0,0.0,0.0,0.0,0.0,0.0,0.0,0.0,0.0,0.0,0.0,0.0,0.0,0.0,0.0,0.0,0.0,0.0,0.0,0.0,-0.9608,-1.0297,-1.1662,-1.3877,-1.3939,-1.3809,-1.3513,-1.329,-1.2137,-1.0145,-0.8846,-0.6726,-0.391,-0.2645,-0.1432,-0.038,-0.0413,-0.1082,-0.2293,-0.3464,-0.4683,-0.5869,-0.6982,-0.7538,-0.7781,-0.8842,-0.9376,-0.9906,-1.161,-1.2275,0.0,0.0,0.0,-1.326,-1.3417,-1.297,-1.2475,-1.2699,-1.1788,-1.0242,-0.8003,-0.5565,-0.3157,-0.0829,0.0935,0.2133,0.2133,0.3219,0.414,0.3838,0.4336,0.4722,0.4494,0.3827,0.3274,0.3123,0.2238,0.1908,0.2733,0.2779,0.3072,0.3953,0.3158,0.2608,0.2792,0.211,0.1382,0.0717,0.097,0.0801,0.0042,-0.0124,-0.0613,-0.1468,-0.2268,-0.3228,-0.4305,-0.5332,-0.6057,-0.6528,-0.8131,-0.9236,-0.9943,-1.0475,-1.0683,-1.0719,-1.0992,-1.1464,-1.2018,-1.2586,-1.3157,-1.3665,-1.3778,-1.4526,-1.5517,0.0,0.0,0.0,0.0,0.0,0.0,0.0,0.0,0.0,0.0,0.0,0.0,0.0,0.0,0.0,0.0,0.0,0.0,0.0,0.0,0.0,-0.932,-1.0028,-1.137,-1.345,-1.3754,-1.3707,-1.3296,-1.3019,-1.1932,-1.0177,-0.9271,-0.7456,-0.4907,-0.3514,-0.2235,-0.1046,-0.0416,-0.0544,-0.13,-0.3031,-0.4105,-0.4872,-0.6585,-0.7241,-0.7296,-0.7854,-0.8481,-0.9246,-1.0653,-1.1551,-1.225,-1.3154,0.0,0.0,0.0,-1.2762,-1.3016,-1.3309,-1.2831,-1.1488,-0.8364,-0.6668,-0.4886,-0.1725,0.0204,0.1378,0.1378,0.2621,0.3662,0.3631,0.3829,0.4072,0.4289,0.3981,0.3615,0.3577,0.3153,0.2921,0.3056,0.3025,0.316,0.3472,0.2782,0.251,0.2991,0.1992,0.147,0.1663,0.1189,0.0739,0.0365,0.012,-0.0399,-0.1273,-0.1653,-0.2659,-0.4258,-0.4802,-0.5509,-0.6338,-0.7484,-0.8475,-0.9291,-1.0102,-1.0466,-1.0495,-1.0619,-1.1081,-1.1721,-1.229,-1.2917,-1.3511,-1.3511,-1.3863,-1.446,0.0,0.0,0.0,0.0,0.0,0.0,0.0,0.0,0.0,0.0,0.0,0.0,0.0,0.0,0.0,0.0,0.0,0.0,0.0,0.0,0.0,-0.9116,-0.9936,-1.1218,-1.3059,-1.3385,-1.3366,-1.3019,-1.2741,-1.1728,-0.9998,-0.954,-0.8135,-0.5917,-0.4272,-0.2769,-0.1473,-0.042,-0.0137,-0.0588,-0.2641,-0.3656,-0.4076,-0.6154,-0.6974,-0.6991,-0.7031,-0.7639,-0.8593,-0.9794,-1.0806,-1.1732,-1.2753,-1.2939,0.0,0.0,0.0,-1.2973,-1.3484,-1.3209,-1.1979,-0.8546,-0.7506,-0.6359,-0.2717,-0.0851,0.0201,0.0706,0.1916,0.2977,0.318,0.318,0.3331,0.3732,0.3783,0.3757,0.3685,0.3709,0.3527,0.3127,0.3061,0.3022,0.2943,0.2417,0.2355,0.3026,0.2075,0.1715,0.23,0.1552,0.0917,0.0584,0.0313,-0.0196,-0.0971,-0.1235,-0.2388,-0.4411,-0.445,-0.5109,-0.6238,-0.7072,-0.7811,-0.8517,-0.9542,-1.0077,-1.0194,-1.0244,-1.0755,-1.1547,-1.2043,-1.2757,-1.3511,-1.3511,-1.3653,-1.4043,0.0,0.0,0.0,0.0,0.0,0.0,0.0,0.0,0.0,0.0,0.0,0.0,-0.2878,-0.3776,-0.4745,-0.5802,-0.5795,-0.5688,-0.5688,-0.6795,-0.7879,-0.8886,-1.0043,0.0,-1.278,-1.2581,-1.2539,-1.2729,-1.2463,-1.1523,-0.9984,-0.9705,-0.8676,-0.698,-0.4385,-0.2564,-0.1331,-0.042,-0.0139,-0.0553,-0.2438,-0.3405,-0.3903,-0.5895,-0.6675,-0.6742,-0.6846,-0.6943,-0.7314,-0.9269,-0.9946,-1.0382,-1.2466,-1.256,-1.1988,0.0,0.0,0.0,-1.249,-1.1874,-1.0465,-0.8407,-0.7713,-0.6732,-0.3496,-0.2258,-0.1359,0.0453,0.1462,0.232,0.3079,0.318,0.323,0.323,0.323,0.3209,0.3149,0.3138,0.3126,0.3016,0.2961,0.2881,0.2718,0.2756,0.267,0.2533,0.2892,0.271,0.1865,0.2212,0.1827,0.0531,0.0543,0.035,-0.0076,-0.1072,-0.2547,-0.4385,-0.4605,-0.5167,-0.604,-0.6853,-0.7425,-0.781,-0.8762,-0.9456,-0.9907,-0.9657,-1.0313,-1.1516,-1.154,-1.2351,-1.3511,-1.3511,-1.4052,-1.4883,0.0,0.0,0.0,0.0,0.0,0.0,0.0,0.0,0.0,0.0,0.0,0.0,0.0,-0.3199,-0.4048,-0.5626,-0.5888,-0.5863,-0.5688,-0.683,-0.7823,-0.8589,-1.0075,-1.1266,-1.2092,-1.2283,-1.2371,-1.2242,-1.1821,-1.0837,-0.9372,-0.9099,-0.8024,-0.6283,-0.4166,-0.2967,-0.2422,-0.0746,-0.0046,-0.0273,-0.1731,-0.2749,-0.3536,-0.5032,-0.6063,-0.6724,-0.6556,-0.6727,-0.7273,-0.9017,-0.9723,-1.0241,-1.221,-1.2542,-1.2207,-1.2462,-1.2235,-1.1993,-1.2545,-1.2248,-1.1319,-0.9386,-0.8595,-0.7639,-0.5163,-0.3509,-0.2031,-0.0339,0.103,0.2187,0.3021,0.318,0.3168,0.3129,0.3122,0.3089,0.3037,0.3051,0.3001,0.2902,0.2828,0.2783,0.27,0.2677,0.2639,0.2574,0.2671,0.2584,0.2198,0.21,0.1821,0.1294,0.0783,0.0373,0.0,-0.0366,-0.1315,-0.2726,-0.3275,-0.4118,-0.518,-0.5854,-0.6425,-0.6888,-0.7536,-0.85,-0.9648,-0.9552,-1.004,-1.0912,-1.1329,-1.2074,-1.2917,-1.3351,-1.3713,-1.4142,0.0,0.0,0.0,0.0,0.0,0.0,0.0,0.0,0.0,0.0,0.0,0.0,0.0,0.0,-0.3685,-0.5583,-0.5888,-0.5925,-0.5787,-0.7166,-0.8168,-0.8674,-1.0409,-1.1488,-1.1783,-1.2024,-1.1995,-1.1776,-1.1398,-1.0546,-0.9251,-0.8798,-0.7773,-0.6337,-0.4364,-0.3347,-0.2961,-0.1207,-0.0276,-0.0092,-0.1235,-0.2048,-0.2845,-0.43,-0.538,-0.6101,-0.633,-0.6558,-0.6953,-0.8422,-0.9176,-0.9771,-1.1468,-1.1993,-1.2083,-1.2471,-1.2265,-1.2005,-1.2426,-1.23,-1.1693,-1.0243,-0.966,-0.8835,-0.6589,-0.5086,-0.3478,-0.1219,0.0048,0.1112,0.222,0.2624,0.2865,0.3045,0.309,0.3097,0.3022,0.3279,0.342,0.3307,0.3272,0.3231,0.3159,0.2842,0.2593,0.2572,0.2533,0.2476,0.2358,0.2148,0.1945,0.1859,0.0975,0.0468,0.036,0.0071,-0.0677,-0.1794,-0.2367,-0.3331,-0.4649,-0.4985,-0.5559,-0.6245,-0.6755,-0.7742,-0.8996,-0.9241,-0.9744,-1.0432,-1.12,-1.1919,-1.2573,-1.326,-1.3601,-1.3872,0.0,0.0,0.0,0.0,0.0,0.0,0.0,0.0,0.0,0.0,0.0,0.0,0.0,0.0,0.0,-0.5744,-0.5806,-0.579,-0.5901,-0.7769,-0.8939,-0.9114,-1.0981,-1.2026,-1.201,-1.1723,-1.1486,-1.1284,-1.1267,-1.0778,-0.9775,-0.8919,-0.8127,-0.7288,-0.515,-0.3677,-0.2851,-0.1842,-0.084,-0.0095,-0.1003,-0.1453,-0.1844,-0.3787,-0.4592,-0.4841,-0.613,-0.6336,-0.6228,-0.7549,-0.8312,-0.895,-1.0211,-1.1042,-1.1589,-1.2094,-1.1706,-1.126,0.0,0.0,0.0,-1.0832,-1.0772,-1.0186,-0.7704,-0.6963,-0.5808,-0.2289,-0.152,-0.102,0.0569,0.1473,0.2246,0.2927,0.3083,0.3093,0.3066,0.3827,0.4435,0.4348,0.4258,0.4207,0.4156,0.3207,0.2614,0.2554,0.2511,0.2459,0.2305,0.2347,0.2347,0.2216,0.1134,0.0735,0.1084,0.0205,-0.0784,-0.178,-0.199,-0.2931,-0.4461,-0.4338,-0.4826,-0.5812,-0.6464,-0.7176,-0.7908,-0.8769,-0.9486,-1.0174,-1.1107,-1.1888,-1.2543,-1.323,-1.3782,-1.4219,0.0,0.0,0.0,0.0,0.0,0.0,-0.216,-0.0879,0.0,0.0,0.0,0.0,-0.2854,-0.4374,-0.5439,-0.5993,-0.6142,-0.6136,-0.6032,-0.733,-0.8416,-0.9076,-1.0288,-1.1202,-1.1793,-1.1381,-1.11,-1.0996,-1.0679,-1.0124,-0.9379,-0.9112,-0.8221,-0.6803,-0.6173,-0.4718,-0.2675,-0.1755,-0.0806,0.0,-0.0271,-0.1282,-0.2681,-0.3226,-0.4418,-0.5848,-0.5922,-0.6113,-0.6393,-0.7112,-0.8122,-0.9332,-1.0846,-1.1397,-1.1473,-1.1459,-1.1186,-1.0962,-1.1335,0.0,0.0,0.0,0.0,0.0,-0.8918,-0.7912,-0.6534,-0.3811,-0.2351,-0.1243,-0.0181,0.1035,0.1931,0.2202,0.3255,0.3999,0.3944,0.4737,0.5322,0.5254,0.5142,0.5025,0.4994,0.4044,0.3467,0.3444,0.286,0.2459,0.2305,0.2267,0.2254,0.2203,0.1878,0.153,0.1088,0.0709,0.0034,-0.0885,-0.1596,-0.2509,-0.359,-0.3979,-0.4565,-0.5303,-0.5731,-0.6263,-0.6924,-0.8481,-0.9217,-0.9456,-1.0421,-1.1188,-1.1857,-1.2543,-1.3161,-1.3761,0.0,0.0,0.0,0.0,0.0,-0.286,-0.1788,-0.0695,0.0,0.0,0.0,0.0,-0.2878,-0.4932,-0.6162,-0.6162,-0.6206,-0.6189,-0.6202,-0.7139,-0.7959,-0.8517,-0.9511,-1.0403,-1.1207,-1.0947,-1.0824,-1.0942,-1.0559,-1.0069,-0.9465,-0.9155,-0.8269,-0.6976,-0.6575,-0.4998,-0.2572,-0.2048,-0.1125,0.0,0.0,-0.0919,-0.2371,-0.2835,-0.4011,-0.5486,-0.5748,-0.5916,-0.6072,-0.6401,-0.7541,-0.9012,-1.0152,-1.0857,-1.1209,-1.0932,-1.0775,-1.07,-1.0812,-1.0775,-1.0793,-1.1405,0.0,0.0,-0.9937,-0.9011,-0.7733,-0.5645,-0.4187,-0.3125,-0.2561,-0.0837,0.0503,0.0513,0.2428,0.4003,0.4245,0.5453,0.6269,0.6234,0.6148,0.6011,0.5956,0.502,0.4383,0.4302,0.3834,0.3337,0.2848,0.2427,0.2322,0.2624,0.2356,0.1985,0.1511,0.0941,0.0269,-0.0506,-0.121,-0.198,-0.2746,-0.335,-0.4012,-0.4731,-0.5385,-0.5964,-0.652,-0.7928,-0.8627,-0.8866,-0.9918,-1.0743,-1.1425,-1.2212,-1.2917,-1.3541,0.0,0.0,-0.6034,-0.4834,-0.3827,-0.2821,-0.1613,-0.0606,0.0,0.0,-0.0202,-0.1059,-0.2972,-0.5059,-0.6287,-0.6287,-0.6075,-0.6037,-0.6303,-0.6939,-0.7499,-0.776,-0.8663,-0.9614,-1.049,-1.0425,-1.0568,-1.0907,-1.0697,-1.0324,-0.9879,-0.916,-0.8351,-0.7464,-0.67,-0.4913,-0.2507,-0.2495,-0.1517,0.0,0.0,-0.0642,-0.1661,-0.2649,-0.359,-0.4606,-0.5678,-0.5822,-0.5505,-0.5742,-0.6846,-0.8214,-0.8836,-0.9809,-1.0705,-1.0544,-1.0481,-1.0481,-1.0475,-1.0481,-1.0627,-1.1321,-1.1126,0.0,-1.0597,-1.0046,-0.9112,-0.7563,-0.6457,-0.5735,-0.5686,-0.3486,-0.1649,-0.1644,0.0806,0.3144,0.4288,0.5965,0.7122,0.7272,0.718,0.7116,0.6975,0.6028,0.5371,0.5188,0.5024,0.4606,0.3751,0.2804,0.2589,0.3259,0.2656,0.2252,0.2114,0.1108,0.0269,-0.0438,-0.0875,-0.1478,-0.2245,-0.2779,-0.3455,-0.431,-0.5294,-0.6015,-0.6548,-0.7303,-0.7883,-0.8424,-0.9502,-1.0393,-1.1145,-1.198,-1.2734,-1.3391,0.0,-0.6387,-0.5784,-0.3827,-0.3324,-0.2569,-0.0606,-0.0151,0.0,0.0,-0.1513,-0.272,-0.3173,-0.5114,-0.6404,-0.6404,-0.6276,-0.6268,-0.6314,-0.6367,-0.6773,-0.7671,-0.7738,-0.8458,-0.9976,-0.9851,-1.0011,-1.0428,-1.0385,-1.0213,-0.9884,-0.9728,-0.8884,-0.7502,-0.731,-0.5488,-0.2511,-0.2497,-0.1539,0.0,0.0,-0.1087,-0.2703,-0.2928,-0.4017,-0.5452,-0.5703,-0.5632,-0.5532,-0.6308,-0.6695,-0.7153,-0.8794,-0.944,-0.9743,-1.0342,-1.0406,-1.0293,-1.0475,-1.0368,-1.0315,-1.0638,-1.0776,0.0,-0.9981,-0.9825,-0.9499,-0.8305,-0.7356,-0.6704,-0.6697,-0.5193,-0.3783,-0.3271,-0.1482,0.1101,0.4839,0.631,0.7353,0.8193,0.8143,0.8017,0.8024,0.6955,0.6258,0.6192,0.5255,0.4616,0.4426,0.352,0.322,0.3658,0.3259,0.2723,0.2186,0.1644,0.0872,-0.0101,-0.0773,-0.1745,-0.2982,-0.31,-0.3888,-0.5144,-0.5216,-0.588,-0.696,-0.6979,-0.7499,-0.8349,-0.8802,-0.9681,-1.0711,-1.0893,-1.1657,-1.2655,-0.6376,-0.6387,-0.5732,-0.3574,-0.3224,-0.2469,-0.0303,0.0,0.0,0.0,-0.1865,-0.3224,-0.3224,-0.5131,-0.6387,-0.6387,-0.6333,-0.6317,-0.6317,-0.6097,-0.6226,-0.678,-0.6606,-0.7203,-0.8674,-0.8931,-0.9385,-1.0109,-1.0337,-1.0342,-1.0105,-0.9976,-0.902,-0.7417,-0.7461,-0.5605,-0.239,-0.2476,-0.1552,-0.0042,-0.0521,-0.1609,-0.2997,-0.3413,-0.44,-0.5591,-0.5572,-0.5434,-0.5361,-0.5846,-0.6234,-0.6699,-0.7559,-0.8453,-0.925,-0.9527,-0.9798,-1.0067,-1.018,-1.0143,-1.0105,-1.0293,-1.0438,0.0,0.0,-0.9987,-0.9782,-0.9257,-0.8398,-0.7826,-0.8103,-0.6729,-0.5279,-0.4463,-0.308,-0.0777,0.3023,0.4925,0.6408,0.7664,0.8005,0.8187,0.828,0.7669,0.724,0.7162,0.5976,0.5285,0.5386,0.4341,0.3809,0.3898,0.365,0.3092,0.2221,0.1647,0.0906,0.0,-0.0739,-0.1646,-0.2648,-0.3015,-0.3818,-0.4851,-0.5147,-0.5937,-0.7082,-0.7005,-0.7554,-0.8536,-0.88,-0.9404,-1.0214,-1.0842,-1.1563,-1.2319,-0.6034,-0.6069,-0.5504,-0.3556,-0.3006,-0.2255,-0.0301,0.0,-0.0051,-0.0303,-0.2017,-0.3274,-0.3475,-0.5231,-0.6387,-0.6387,-0.6312,-0.6281,-0.6281,-0.6005,-0.5871,-0.5871,-0.5737,-0.621,-0.7358,-0.8111,-0.89,-0.978,-1.0321,-1.0519,-1.0288,-1.004,-0.8985,-0.7335,-0.7442,-0.5536,-0.234,-0.2423,-0.1492,-0.0084,-0.1183,-0.2166,-0.2967,-0.3777,-0.4669,-0.5454,-0.5352,-0.5238,-0.5154,-0.5154,-0.5667,-0.6281,-0.62,-0.7293,-0.8521,-0.8478,-0.9041,-0.9652,-0.9652,-0.9739,-0.99,-1.0094,-1.0147,-1.02,0.0,0.0,0.0,-1.0032,-0.9378,-0.8931,-0.9365,-0.8159,-0.6788,-0.5912,-0.4895,-0.3147,-0.0157,0.2084,0.4242,0.6492,0.7013,0.7435,0.8142,0.81,0.8008,0.7957,0.6823,0.6194,0.6385,0.5212,0.4509,0.4386,0.4011,0.3389,0.2455,0.1546,0.0773,0.0101,-0.084,-0.1646,-0.2347,-0.3082,-0.3882,-0.4749,-0.5322,-0.6262,-0.7368,-0.7368,-0.7943,-0.8872,-0.8981,-0.9271,-0.9741,-1.0809,-1.1495,-1.1986,-0.4782,-0.4967,-0.4614,-0.3388,-0.2407,-0.1377,-0.0197,0.0,-0.0353,-0.1311,-0.2469,-0.3575,-0.4533,-0.5684,-0.6387,-0.6387,-0.6236,-0.6108,-0.6108,-0.5885,-0.571,-0.571,-0.5696,-0.6081,-0.6877,-0.7945,-0.8772,-0.9265,-1.0167,-1.0519,-1.0288,-1.004,-0.9021,-0.7465,-0.7372,-0.5516,-0.2453,-0.2379,-0.1419,-0.0164,-0.1884,-0.2683,-0.2985,-0.38,-0.4626,-0.536,-0.5137,-0.5048,-0.5037,-0.5037,-0.5112,-0.5305,-0.598,-0.6367,-0.6686,-0.7433,-0.8199,-0.8856,-0.8856,-0.9212,-0.9669,-0.9868,-0.9951,-0.9999,-1.0205,0.0,-1.037,-1.0147,0.0,-0.9944,-0.998,0.0,0.0,-0.8292,-0.7924,-0.6883,-0.452,-0.293,-0.0078,0.5209,0.4854,0.5149,0.7628,0.7962,0.8152,0.8573,0.753,0.6925,0.7068,0.6049,0.5517,0.5662,0.458,0.3785,0.3353,0.1847,0.0874,0.0437,-0.1208,-0.238,-0.3115,-0.3851,-0.4915,-0.617,-0.6235,-0.7074,-0.8356,-0.8356,-0.8762,-0.9378,-0.8927,-0.8965,-0.932,-0.9952,-1.0586,-1.1258,-0.3806,-0.3888,-0.3512,-0.2461,-0.1879,-0.1258,-0.0147,0.0,-0.0151,-0.0606,-0.1613,-0.267,-0.3778,-0.4832,-0.5734,-0.6337,-0.6347,-0.626,-0.6195,-0.6032,-0.5937,-0.5937,-0.5694,-0.5797,-0.6281,-0.7529,-0.8325,-0.8618,-0.9832,-1.039,-1.0288,-0.9538,-0.8557,-0.7351,-0.6827,-0.5019,-0.2378,-0.233,-0.1402,-0.0163,-0.1976,-0.2738,-0.2927,-0.425,-0.4936,-0.5151,-0.5053,-0.5018,-0.5018,-0.5018,-0.5018,-0.5057,-0.5401,-0.5819,-0.6279,-0.6623,-0.7353,-0.8003,-0.8003,-0.8519,-0.9083,-0.9173,-0.9541,-0.991,-1.0008,-1.007,-1.0053,-0.9952,0.0,0.0,0.0,0.0,0.0,0.0,-0.8464,-0.7934,-0.633,-0.5706,-0.3175,0.2801,0.3673,0.4748,0.7034,0.6783,0.6828,0.7773,0.6835,0.6592,0.7323,0.6771,0.637,0.6253,0.5308,0.4487,0.3785,0.2013,0.1008,0.084,-0.114,-0.248,-0.3215,-0.3951,-0.4851,-0.5848,-0.6235,-0.6957,-0.7907,-0.8328,-0.8888,-0.9492,-0.9263,-0.928,-0.9514,-1.0129,-1.0617,-1.1094,-0.2119,-0.2409,-0.2447,-0.1703,-0.1275,-0.081,-0.0098,0.005,0.0,-0.0404,-0.1059,-0.2016,-0.3475,-0.4331,-0.5236,-0.6287,-0.6357,-0.6355,-0.6322,-0.6154,-0.607,-0.6037,-0.5817,-0.5702,-0.5852,-0.714,-0.7935,-0.8179,-0.9397,-1.0116,-1.0288,-0.9187,-0.8203,-0.7318,-0.6491,-0.473,-0.2353,-0.2354,-0.1438,-0.0163,-0.1942,-0.2941,-0.3455,-0.4718,-0.5116,-0.5018,-0.5018,-0.5018,-0.5018,-0.5018,-0.5018,-0.5018,-0.5018,-0.5401,-0.5857,-0.5857,-0.6472,-0.7157,-0.7157,-0.785,-0.8628,-0.8685,-0.9266,-0.9841,-0.9906,-0.9813,-0.977,-0.9799,-0.9733,0.0,0.0,0.0,-0.9379,-0.8906,0.0,-0.8698,-0.7923,-0.7861,-0.5793,-0.0038,0.2316,0.409,0.5743,0.5553,0.5665,0.6596,0.5841,0.5876,0.7057,0.6728,0.6508,0.6538,0.579,0.4981,0.4184,0.2147,0.1143,0.1076,-0.124,-0.2614,-0.3215,-0.4187,-0.5087,-0.5984,-0.647,-0.7153,-0.8009,-0.856,-0.9055,-0.9478,-0.9432,-0.9572,-0.9869,-1.0379,-1.0826,-1.1234,0.0607,-0.0463,-0.1434,-0.1572,-0.0509,0.0282,0.0049,0.02,-0.0101,-0.1361,-0.1361,-0.2116,-0.4481,-0.4784,-0.5236,-0.6287,-0.6336,-0.6322,-0.6317,-0.6154,-0.6032,-0.5915,-0.601,-0.5964,-0.5699,-0.6776,-0.7631,-0.8179,-0.8913,-0.9616,-1.0288,-0.9187,-0.8271,-0.7456,-0.6577,-0.4818,-0.2508,-0.2509,-0.1541,-0.0163,-0.1827,-0.3483,-0.4961,-0.5146,-0.5116,-0.5018,-0.5018,-0.5018,-0.5018,-0.5018,-0.5018,-0.5018,-0.5018,-0.5018,-0.5054,-0.5054,-0.5592,-0.624,-0.624,-0.7262,-0.836,-0.8647,-0.9155,-0.9647,-0.9868,-0.9744,-0.9679,-0.9863,-0.9728,-0.9668,-0.9846,-0.9712,-0.9666,-0.991,-0.9933,0.0,0.0,-0.9779,-0.7945,-0.314,0.0363,0.2632,0.3359,0.4553,0.5303,0.5256,0.4804,0.4997,0.6086,0.5532,0.564,0.6676,0.5799,0.5084,0.4592,0.2383,0.1244,0.1076,-0.1607,-0.298,-0.3251,-0.4688,-0.6079,-0.7321,-0.7354,-0.8139,-0.942,-0.9452,-0.9484,-0.9492,-0.9215,-0.9622,-1.0386,-1.0386,-1.0906,-1.1655,0.0694,0.0457,0.0226,-0.0045,0.0317,0.0505,0.0287,0.0198,-0.0051,-0.0462,-0.0463,-0.0976,-0.2515,-0.2669,-0.342,-0.519,-0.5307,-0.5586,-0.633,-0.6271,-0.6222,-0.6255,-0.6146,-0.6086,-0.6086,-0.6748,-0.751,-0.8316,-0.8777,-0.9161,-0.9483,-0.8404,-0.7468,-0.6619,-0.5686,-0.4256,-0.2477,-0.2399,-0.1453,-0.0155,-0.1811,-0.3538,-0.5127,-0.5089,-0.505,-0.5018,-0.5018,-0.5018,-0.5004,-0.4884,-0.4858,-0.4844,-0.48,-0.4813,-0.4813,-0.4813,-0.4995,-0.5214,-0.5214,-0.5948,-0.6892,-0.7587,-0.8328,-0.9038,-0.9755,-0.9744,-0.9642,-0.9873,-0.9739,-0.9641,-0.968,-0.9497,-0.9621,-1.0443,-1.026,-1.0308,0.0,-1.048,-0.91,-0.7029,-0.3682,-0.1022,0.0327,0.0225,0.0632,0.1976,0.2095,0.2775,0.4314,0.4778,0.5479,0.6467,0.5846,0.5111,0.4338,0.2572,0.114,0.0034,-0.1975,-0.3249,-0.3951,-0.4957,-0.5885,-0.6761,-0.7223,-0.7859,-0.8615,-0.9046,-0.9239,-0.924,-0.9396,-0.9985,-1.0755,-1.0292,-1.0663,-1.1479,0.097,0.1092,0.1121,0.0762,0.0726,0.0696,0.0575,0.0396,0.0254,0.0155,0.0155,-0.0309,-0.1451,-0.1597,-0.2298,-0.4083,-0.423,-0.4682,-0.5787,-0.5775,-0.5948,-0.6327,-0.6233,-0.6149,-0.614,-0.6501,-0.7039,-0.7835,-0.8056,-0.8305,-0.8563,-0.751,-0.6738,-0.6163,-0.5319,-0.4027,-0.2494,-0.2461,-0.1479,-0.0152,-0.1822,-0.3553,-0.5118,-0.5045,-0.5042,-0.5067,-0.4982,-0.4914,-0.4895,-0.4811,-0.477,-0.4757,-0.4714,-0.469,-0.469,-0.469,-0.469,-0.469,-0.469,-0.53,-0.6115,-0.6937,-0.7766,-0.8626,-0.9596,-0.9615,-0.9513,-0.975,-0.968,-0.9596,-0.957,-0.9501,-0.9736,-1.0678,-1.0494,-1.0673,0.0,-1.1224,-1.0512,-1.0106,-0.7001,-0.4366,-0.2968,-0.3187,-0.281,-0.1382,-0.1066,-0.0104,0.1764,0.2266,0.3229,0.4741,0.4421,0.3966,0.3457,0.2232,0.0943,-0.0363,-0.1979,-0.3218,-0.4094,-0.5096,-0.5898,-0.6595,-0.7337,-0.7964,-0.848,-0.8911,-0.9095,-0.9101,-0.9221,-0.978,-1.0477,-1.0343,-1.0819,-1.1544,0.1486,0.1459,0.126,0.0811,0.0791,0.0817,0.0832,0.0798,0.0712,0.0415,0.0409,-0.0102,-0.1397,-0.148,-0.1917,-0.3022,-0.3073,-0.3525,-0.4634,-0.4682,-0.5146,-0.6184,-0.6222,-0.6112,-0.5926,-0.6024,-0.6319,-0.6804,-0.678,-0.7,-0.7501,-0.6585,-0.6163,-0.6093,-0.5442,-0.4175,-0.2492,-0.2615,-0.1694,-0.0265,-0.1899,-0.3563,-0.5023,-0.5012,-0.508,-0.5148,-0.4879,-0.4795,-0.4777,-0.4723,-0.4681,-0.4679,-0.4673,-0.4671,-0.4671,-0.4671,-0.4671,-0.4671,-0.4671,-0.5245,-0.5997,-0.6667,-0.7456,-0.8335,-0.9321,-0.9332,-0.9219,-0.9507,-0.9587,-0.9554,-0.9519,-0.9688,-1.0067,-1.064,-1.0783,-1.1098,-1.1927,-1.2032,-1.2066,-1.217,-0.9536,-0.7366,-0.639,-0.5576,-0.4964,-0.4645,-0.4391,-0.3405,-0.1387,-0.1798,-0.0898,0.1668,0.1671,0.1748,0.1996,0.1364,0.0612,-0.0225,-0.1802,-0.2951,-0.3763,-0.5191,-0.6194,-0.693,-0.7752,-0.8486,-0.9077,-0.9077,-0.9071,-0.9035,-0.8829,-0.9134,-0.9765,-1.0509,-1.1238,-1.1877,0.1482,0.1493,0.1463,0.1389,0.1211,0.1074,0.1079,0.0748,0.0458,0.0415,0.0414,0.0207,-0.0363,-0.0052,-0.0307,-0.1615,-0.1511,-0.1964,-0.3222,-0.3323,-0.3867,-0.515,-0.513,-0.5456,-0.6176,-0.5891,-0.6136,-0.693,-0.6392,-0.6242,-0.6453,-0.5969,-0.5428,-0.4849,-0.4844,-0.3885,-0.2281,-0.2466,-0.2289,-0.1965,-0.3021,-0.415,-0.5124,-0.4909,-0.4917,-0.5042,-0.4852,-0.4795,-0.4766,-0.4624,-0.455,-0.4536,-0.4417,-0.439,-0.439,-0.439,-0.439,-0.439,-0.439,-0.456,-0.4922,-0.5776,-0.6186,-0.672,-0.8224,-0.8344,-0.8383,-0.9143,-0.9203,-0.9189,-0.9529,-0.946,-0.985,-1.1219,-1.2002,-1.25,-1.2698,-1.2514,-1.2567,-1.3071,-1.2017,-1.0581,-0.8922,-0.8281,-0.7571,-0.6664,-0.5745,-0.4843,-0.3893,-0.335,-0.2268,-0.0532,0.0211,0.0564,0.0539,0.038,-0.0437,-0.1825,-0.2786,-0.4025,-0.546,-0.5847,-0.6775,-0.8085,-0.8308,-0.8542,-0.8806,-0.8806,-0.8692,-0.8573,-0.9146,-0.9988,-1.0872,-1.0827,-1.109,-1.1444,0.1521,0.1534,0.1551,0.1617,0.1484,0.1392,0.1392,0.1003,0.0763,0.0725,0.067,0.0515,0.0363,0.0619,0.0511,-0.0252,-0.0202,-0.0605,-0.1864,-0.195,-0.2487,-0.3729,-0.4118,-0.4581,-0.5204,-0.5325,-0.5644,-0.6136,-0.5638,-0.5402,-0.548,-0.5195,-0.4849,-0.4384,-0.4109,-0.3317,-0.2183,-0.2021,-0.243,-0.3154,-0.3632,-0.4309,0.0,-0.4847,-0.4844,-0.4841,-0.4719,-0.4675,-0.4645,-0.4458,-0.4395,-0.4384,-0.4319,-0.43,-0.43,-0.43,-0.43,-0.4289,-0.4235,-0.4221,-0.4418,-0.5179,-0.5434,-0.5822,-0.718,-0.7646,-0.7962,-0.8467,-0.8822,-0.907,-0.923,-0.9319,-0.9848,-1.1253,-1.2219,-1.2797,-1.2797,-1.276,-1.2715,-1.2763,-1.2643,-1.1888,-1.0214,-1.0194,-0.995,-0.9207,-0.8513,-0.7803,-0.6981,-0.6287,-0.5003,-0.3081,-0.2355,-0.1674,-0.1018,-0.107,-0.1622,-0.267,-0.3484,-0.4499,-0.5732,-0.6421,-0.724,-0.8126,-0.8574,-0.8746,-0.871,-0.871,-0.8554,-0.8385,-0.9126,-0.9896,-1.0589,-1.0729,-1.1011,-1.1301,0.162,0.1624,0.1577,0.1577,0.1599,0.1617,0.1617,0.1364,0.1219,0.1188,0.102,0.0863,0.0824,0.0866,0.0907,0.0853,0.0905,0.0502,-0.05,-0.0542,-0.1073,-0.2242,-0.3004,-0.3539,-0.377,-0.4493,-0.4889,-0.4945,-0.4697,-0.4606,-0.4615,-0.4405,-0.4307,-0.4268,-0.3444,-0.2692,-0.1981,-0.148,-0.2203,-0.3713,-0.3775,-0.4203,-0.4795,-0.4664,-0.4662,-0.4649,-0.4418,-0.4386,-0.4487,-0.4338,-0.43,-0.43,-0.43,-0.43,-0.4298,-0.4281,-0.4276,-0.4249,-0.4094,-0.4062,-0.4193,-0.4724,-0.4944,-0.5269,-0.6201,-0.6955,-0.7515,-0.7711,-0.8417,-0.8921,-0.878,-0.9243,-0.9997,-1.1017,-1.1923,-1.2485,-1.2485,-1.2804,-1.2732,-1.2047,-1.226,0.0,-1.0857,-1.1388,-1.1683,-1.1386,-1.1347,-1.091,-0.991,-0.9456,-0.8133,-0.5788,-0.5179,-0.4164,-0.2682,-0.2747,-0.2897,-0.3205,-0.4137,-0.492,-0.5578,-0.6973,-0.7696,-0.7892,-0.8833,-0.912,-0.8899,-0.8988,-0.8837,-0.8621,-0.9204,-0.9531,-0.9807,-1.0623,-1.109,-1.1301,0.162,0.1592,0.1609,0.1609,0.1613,0.1617,0.1617,0.1364,0.1214,0.1218,0.1164,0.1056,0.0844,0.1204,0.1347,0.1063,0.132,0.1274,0.082,0.0768,0.0191,-0.1099,-0.1288,-0.2068,-0.3599,-0.3509,-0.3813,-0.458,-0.4218,-0.4084,-0.4114,-0.3968,-0.3919,-0.388,-0.3171,-0.222,-0.1107,-0.1017,-0.1657,-0.2792,-0.3509,-0.4203,-0.471,-0.4059,-0.4104,-0.445,-0.3682,-0.3905,-0.4487,-0.4338,-0.43,-0.43,-0.43,-0.43,-0.4281,-0.4181,-0.4151,-0.4092,-0.3967,-0.3935,-0.396,-0.4061,-0.4103,-0.4368,-0.523,-0.5542,-0.602,-0.7279,-0.7668,-0.7959,-0.8468,-0.9318,-1.0207,-1.1066,-1.1923,-1.2485,-1.2485,-1.2804,-1.2952,-1.2824,-1.2186,-1.1824,-1.1886,-1.1451,-1.1032,-1.0712,-1.0931,-1.0916,-1.0612,-1.017,-0.9429,-0.8363,-0.6405,-0.5174,-0.4699,-0.4331,-0.4209,-0.4331,-0.5483,-0.6461,-0.7274,-0.7562,-0.817,-0.9044,-0.9775,-1.0003,-0.9887,-1.0455,-1.0351,-0.9919,-1.047,-1.0511,-1.0365,-1.1302,-1.1498,-1.1301,0.2537,0.2406,0.227,0.1718,0.1617,0.1617,0.1617,0.1465,0.1415,0.1415,0.1415,0.1354,0.123,0.1436,0.1526,0.1338,0.1443,0.1494,0.1336,0.1322,0.0981,0.0323,-0.0134,-0.0832,-0.1775,-0.2056,-0.2684,-0.3687,-0.3325,-0.3454,-0.399,-0.3848,-0.3567,-0.3059,-0.1983,-0.122,-0.0694,-0.0742,-0.1364,-0.2311,-0.2688,-0.3025,-0.3323,-0.295,-0.3256,-0.3789,-0.3366,-0.372,-0.4374,-0.4319,-0.43,-0.43,-0.43,-0.4257,-0.4194,-0.4134,-0.404,-0.3965,-0.3873,-0.3841,-0.3827,-0.3767,-0.3797,-0.3944,-0.4366,-0.505,-0.5779,-0.6514,-0.7197,-0.784,-0.8404,-0.936,-1.0208,-1.0713,-1.1647,-1.2274,-1.2247,-1.2514,-1.2423,-1.1659,-1.1457,-1.1283,-1.0985,-1.117,-1.127,-1.1182,-1.172,-1.1867,-1.1443,-1.0884,-1.0164,-0.9289,-0.7708,-0.6699,-0.6308,-0.6124,-0.6009,-0.589,-0.6728,-0.7341,-0.7769,-0.8125,-0.8689,-0.9428,-1.0053,-1.0323,-1.0405,-1.0748,-1.0627,-1.0245,-1.0794,-1.0748,-1.0496,-1.1267,-1.143,-1.1301,0.3725,0.3524,0.3274,0.2422,0.207,0.1919,0.1919,0.1768,0.1617,0.1617,0.1611,0.1596,0.1565,0.1562,0.1547,0.1463,0.1513,0.1514,0.146,0.1484,0.146,0.1391,0.07,0.0171,-0.0042,-0.0735,-0.1603,-0.2568,-0.2354,-0.2658,-0.3459,-0.3296,-0.2796,-0.1923,-0.0763,-0.0242,-0.02,-0.0241,-0.0843,-0.179,-0.1685,-0.1747,-0.1922,-0.1872,-0.2302,-0.2915,-0.2948,-0.3453,-0.4097,-0.4233,-0.43,-0.43,-0.43,-0.4216,-0.4081,-0.4054,-0.3962,-0.3871,-0.378,-0.3745,-0.3725,-0.3635,-0.3679,-0.3753,-0.3807,-0.465,-0.5554,-0.583,-0.6922,-0.7946,-0.8425,-0.9185,-0.9849,-1.0248,-1.1158,-1.1799,-1.1739,-1.2112,-1.1845,-1.0426,-1.0854,-1.0837,-0.9739,-1.0944,-1.1716,-1.1472,-1.2435,-1.2753,-1.2135,-1.1417,-1.0666,-0.9857,-0.8849,-0.8128,-0.7719,-0.7664,-0.7584,-0.7407,-0.7831,-0.8035,-0.8059,-0.8515,-0.9017,-0.955,-1.0174,-1.0729,-1.1204,-1.1214,-1.0946,-1.0639,-1.1125,-1.0974,-1.0609,-1.1183,-1.137,-1.1301,0.4674,0.4674,0.4624,0.4524,0.3674,0.3074,0.3074,0.222,0.1617,0.1617,0.1593,0.1564,0.1534,0.153,0.146,0.1404,0.1469,0.1473,0.1401,0.1396,0.1393,0.1391,0.1252,0.0843,0.0084,-0.004,-0.0597,-0.1552,-0.138,-0.1419,-0.1629,-0.1501,-0.1,-0.0235,-0.008,0.0278,0.0764,0.0781,0.0194,-0.076,-0.0794,-0.1189,-0.1668,-0.1273,-0.1479,-0.2045,-0.2146,-0.2681,-0.3418,-0.4064,-0.43,-0.43,-0.43,-0.4216,-0.4062,-0.3954,-0.3865,-0.3775,-0.366,-0.3627,-0.3624,-0.3616,-0.3621,-0.3654,-0.3758,-0.3908,-0.4356,-0.5626,-0.6922,-0.7946,-0.8425,-0.8536,-0.8889,-0.9867,-1.052,-1.091,-1.0841,-1.1521,-1.1639,-1.0506,-1.1096,-1.0896,-0.9233,-1.1176,-1.1925,-1.0458,-1.2016,-1.2855,-1.2456,-1.1657,-1.1106,-1.0975,-0.9452,-0.8773,-0.9026,-0.849,-0.8259,-0.8359,-0.8649,-0.8794,-0.8783,-0.8619,-0.8894,-0.955,-1.0514,-1.1804,-1.3215,-1.2919,-1.2443,-1.1956,-1.2187,-1.1718,-1.1022,-1.1543,-1.1567,-1.1301,0.5879,0.5779,0.5579,0.4924,0.4423,0.4111,0.4065,0.322,0.2518,0.2442,0.1959,0.1553,0.1504,0.1499,0.1482,0.1394,0.1429,0.1421,0.1409,0.1349,0.1332,0.1356,0.1333,0.1148,0.0807,0.0792,0.0317,-0.0609,-0.0528,-0.0777,-0.1326,-0.1226,-0.0761,0.0039,0.0554,0.0906,0.1124,0.1134,0.089,0.0491,0.0446,0.0218,-0.0106,0.0035,-0.0407,-0.1074,-0.1242,-0.1779,-0.2547,-0.3353,-0.3859,-0.4118,-0.408,-0.3884,-0.3678,-0.3655,-0.3598,-0.3555,-0.3596,-0.3613,-0.3613,-0.3613,-0.3613,-0.3624,-0.3671,-0.3962,-0.4367,-0.4941,-0.622,-0.731,-0.7491,-0.818,-0.8822,-0.9203,-0.9624,-0.9888,-0.9819,-1.0369,-1.0437,-0.9453,-0.9923,-1.001,-0.9147,-1.0592,-1.1497,-1.1248,-1.2507,-1.3075,-1.2514,-1.1739,-1.1333,-1.1388,-0.9987,-0.9446,-0.9861,-0.9453,-0.929,-0.9334,-0.9157,-0.9066,-0.9055,-0.8684,-0.9081,-1.0174,-1.1375,-1.2405,-1.3208,-1.3267,-1.3042,-1.263,-1.2459,-1.2022,-1.1481,-1.1506,-1.143,-1.1301,0.7036,0.6886,0.6634,0.5877,0.5451,0.516,0.5096,0.4188,0.3519,0.3405,0.2581,0.1862,0.1532,0.1472,0.1459,0.1392,0.1408,0.139,0.139,0.1321,0.1297,0.1317,0.1307,0.1292,0.1311,0.1301,0.099,0.0322,0.0364,0.0082,-0.0536,-0.049,-0.016,0.0392,0.1029,0.1305,0.1295,0.1287,0.1231,0.1209,0.1169,0.1069,0.0943,0.0852,0.0404,-0.0168,-0.0572,-0.1041,-0.1608,-0.2457,-0.308,-0.3535,-0.3818,-0.3667,-0.3389,-0.3431,-0.339,-0.333,-0.3413,-0.3499,-0.3527,-0.3471,-0.3527,-0.3583,-0.3471,-0.3858,-0.427,-0.4377,-0.5505,-0.6533,-0.6802,-0.771,-0.8471,-0.8685,-0.8966,-0.9128,-0.9,-0.9376,-0.9398,-0.8628,-0.9211,-0.9467,-0.8884,-1.0292,-1.1219,-1.1182,-1.2501,-1.304,-1.2317,-1.1755,-1.1392,-1.1206,-1.0313,-0.9949,-1.0293,-1.0046,-0.9884,-0.9916,-0.9581,-0.9489,-0.958,-0.9393,-0.9854,-1.0811,-1.1888,-1.2613,-1.3003,-1.3069,-1.3114,-1.31,-1.2629,-1.2246,-1.1943,-1.1704,-1.149,-1.1326,0.7988,0.7988,0.7988,0.7988,0.6978,0.6206,0.6203,0.5145,0.434,0.4298,0.3464,0.2544,0.1619,0.1454,0.1391,0.1391,0.1408,0.139,0.139,0.1321,0.1305,0.1305,0.1318,0.1303,0.1302,0.1312,0.1296,0.1297,0.1288,0.1287,0.1259,0.1288,0.1286,0.1298,0.1288,0.1286,0.1294,0.1225,0.1212,0.1206,0.1146,0.1086,0.1083,0.0886,0.0809,0.0674,-0.0202,-0.0504,-0.0635,-0.1461,-0.1992,-0.2508,-0.3567,-0.3615,-0.3292,-0.3292,-0.3213,-0.3102,-0.3102,-0.3244,-0.3357,-0.316,-0.3357,-0.3527,-0.3188,-0.3357,-0.3719,-0.4125,-0.4836,-0.5687,-0.6554,-0.6975,-0.7512,-0.8376,-0.8722,-0.8773,-0.8451,-0.8704,-0.8786,-0.844,-0.9409,-0.9583,-0.8344,-1.0545,-1.1352,-0.957,-1.1648,-1.2668,-1.1833,-1.169,-1.1199,-1.0328,-1.0302,-1.0288,-1.0293,-1.0046,-0.9884,-0.9916,-0.998,-1.0155,-1.0491,-1.1019,-1.1281,-1.1334,-1.1872,-1.2467,-1.2956,-1.2357,-1.2652,-1.3438,-1.2814,-1.2503,-1.2381,-1.2381,-1.1936,-1.1352,0.7906,0.7882,0.7851,0.7756,0.741,0.7108,0.701,0.6114,0.5399,0.5248,0.4424,0.3749,0.3432,0.2203,0.1391,0.1391,0.1346,0.1319,0.1319,0.1314,0.1286,0.1286,0.1317,0.1311,0.1311,0.1242,0.1226,0.1226,0.1236,0.1236,0.1226,0.1236,0.1224,0.1233,0.1243,0.1242,0.1232,0.1222,0.1169,0.1112,0.1094,0.1108,0.1089,0.1012,0.1009,0.0942,0.0539,0.0399,0.0261,-0.0645,-0.119,-0.1633,-0.2481,-0.2839,-0.2959,-0.3009,-0.2995,-0.2998,-0.3077,-0.316,-0.3188,-0.3102,-0.3188,-0.3244,-0.313,-0.3246,-0.3443,-0.3553,-0.4546,-0.5487,-0.5767,-0.6689,-0.7441,-0.7594,-0.7726,-0.7733,-0.7475,-0.7801,-0.7997,-0.781,-0.834,-0.8528,-0.8056,-0.97,-1.0502,-0.9742,-1.1949,-1.2799,-1.1574,-1.2025,-1.1863,-1.0948,-1.1137,-1.0959,-1.0293,-1.0422,-1.0331,-0.9916,-0.9581,-0.965,-1.0039,-1.0476,-1.0909,-1.1328,-1.1875,-1.2212,-1.239,-1.2371,-1.2692,-1.3097,-1.2381,-1.2228,-1.2329,-1.1842,-1.1499,-1.1326,0.775,0.7733,0.7702,0.7614,0.7553,0.7482,0.7433,0.6814,0.634,0.6219,0.5406,0.4823,0.4823,0.3443,0.2321,0.195,0.1547,0.1301,0.129,0.1285,0.1296,0.1296,0.1285,0.1279,0.1279,0.1211,0.1195,0.1195,0.1195,0.1195,0.1195,0.1195,0.1185,0.1203,0.1203,0.1203,0.1202,0.119,0.1138,0.1085,0.1108,0.1093,0.1109,0.1109,0.1069,0.106,0.0929,0.0879,0.0792,0.0156,-0.0334,-0.0763,-0.1217,-0.1849,-0.2475,-0.2735,-0.2833,-0.283,-0.294,-0.2996,-0.3023,-0.2965,-0.3021,-0.3114,-0.3152,-0.3129,-0.3186,-0.349,-0.4251,-0.4998,-0.5536,-0.6379,-0.6974,-0.7052,-0.7073,-0.7057,-0.6905,-0.704,-0.7285,-0.7711,-0.7867,-0.8034,-0.8253,-0.948,-1.0095,-0.964,-1.1778,-1.2473,-1.0941,-1.1862,-1.2078,-1.1289,-1.1334,-1.1196,-1.0841,-1.1045,-1.0962,-1.0588,-1.052,-1.0493,-1.0478,-1.0982,-1.1328,-1.1565,-1.1794,-1.1897,-1.1928,-1.208,-1.2334,-1.2588,-1.2114,-1.2044,-1.2132,-1.1661,-1.1421,-1.1352,0.7634,0.763,0.758,0.7617,0.7497,0.7402,0.7402,0.7234,0.7095,0.7095,0.634,0.5808,0.5808,0.4952,0.4024,0.3077,0.2085,0.146,0.1385,0.1393,0.1375,0.1296,0.1228,0.1212,0.1212,0.118,0.1198,0.1196,0.1196,0.1196,0.1196,0.1196,0.1196,0.1196,0.1196,0.1196,0.1194,0.1129,0.1083,0.1115,0.1087,0.1109,0.1109,0.1109,0.1058,0.1001,0.1001,0.1013,0.0981,0.0922,0.05,0.0,0.0,-0.0812,-0.1846,-0.2465,-0.2663,-0.2691,-0.2691,-0.2802,-0.286,-0.2719,-0.2888,-0.3114,-0.3248,-0.3046,-0.3047,-0.3775,-0.3948,-0.4379,-0.5678,-0.6024,-0.6242,-0.6682,-0.6759,-0.673,-0.6653,-0.6413,-0.6731,-0.796,-0.7907,-0.8032,-0.877,-0.9759,-1.0038,-0.9379,-1.1235,-1.1744,-1.0218,-1.1446,-1.1903,-1.1386,-1.1132,-1.1223,-1.1706,-1.1744,-1.17,-1.1607,-1.2218,-1.2148,-1.1621,-1.2187,-1.2284,-1.2018,-1.1738,-1.1592,-1.1584,-1.1584,-1.1726,-1.1972,-1.1975,-1.1904,-1.1815,-1.1815,-1.1602,-1.1393,0.8004,0.7837,0.7661,0.7548,0.731,0.7149,0.7149,0.7119,0.7095,0.7095,0.6918,0.6786,0.6786,0.5853,0.5099,0.4863,0.3952,0.3076,0.2356,0.2225,0.1923,0.1335,0.1228,0.1212,0.1212,0.1159,0.1121,0.1132,0.1132,0.1132,0.1132,0.1132,0.1132,0.1132,0.1132,0.1132,0.1131,0.1123,0.1087,0.1086,0.1112,0.1109,0.1109,0.1109,0.1058,0.1001,0.1001,0.0968,0.0923,0.0916,0.0493,0.0,0.0,-0.0504,-0.1229,-0.1846,-0.2352,-0.2691,-0.2691,-0.2719,-0.2747,-0.2719,-0.2799,-0.2903,-0.3054,-0.3038,-0.3097,-0.3276,-0.4,-0.4704,-0.5029,-0.5686,-0.6167,-0.6129,-0.6209,-0.6202,-0.6041,-0.6471,-0.6943,-0.7249,-0.7749,-0.8157,-0.8338,-0.909,-0.9551,-0.9544,-1.0664,-1.1447,-1.1603,-1.1806,-1.1602,-1.0953,-1.2191,-1.2489,-1.1706,-1.2157,-1.1862,-1.0785,-1.1095,-1.1309,-1.1446,-1.1696,-1.2029,-1.2339,-1.1841,-1.1439,-1.1227,-1.1227,-1.1377,-1.1632,-1.1611,-1.1696,-1.1807,-1.1849,-1.1632,-1.1343,0.8625,0.8158,0.7778,0.7694,0.7544,0.7452,0.7452,0.7367,0.7323,0.7452,0.7275,0.7143,0.7279,0.6671,0.6196,0.6043,0.4731,0.3516,0.26,0.2501,0.2133,0.1335,0.1201,0.1176,0.1191,0.1132,0.1092,0.1109,0.1109,0.1109,0.1109,0.1109,0.1109,0.1109,0.1109,0.1109,0.1109,0.1109,0.1109,0.1109,0.1109,0.1109,0.1108,0.1061,0.1038,0.1011,0.0966,0.0932,0.0893,0.0893,0.0683,0.0421,0.0421,0.0,-0.056,-0.0868,-0.1595,-0.2352,-0.2635,-0.2691,-0.2701,-0.2742,-0.2762,-0.2831,-0.3018,-0.3086,-0.3166,-0.347,-0.4015,-0.4519,-0.4749,-0.5359,-0.5778,-0.5578,-0.5799,-0.5997,-0.5949,-0.6372,-0.6865,-0.7391,-0.7726,-0.808,-0.8484,-0.9005,-0.9359,-0.9462,-1.0484,-1.1188,-1.1319,-1.1977,-1.2237,-1.2033,-1.2709,-1.2783,-1.2114,-1.2157,-1.1667,-1.0649,-1.1304,-1.1524,-1.1323,-1.1799,-1.2094,-1.2229,-1.1619,-1.118,-1.088,-1.1033,-1.0999,-1.0829,-1.114,-1.1247,-1.1221,-1.137,-1.1226,-1.1023,0.9536,0.8763,0.8157,0.8157,0.8028,0.79,0.79,0.7724,0.7635,0.7856,0.7496,0.7319,0.7547,0.7281,0.7016,0.6805,0.5233,0.3836,0.2943,0.2883,0.2451,0.1523,0.1355,0.1315,0.134,0.1277,0.1243,0.1243,0.1143,0.1107,0.1069,0.1069,0.1069,0.1069,0.1069,0.1069,0.1069,0.1069,0.11,0.1095,0.1095,0.1095,0.1093,0.1035,0.1008,0.0978,0.0922,0.0895,0.0898,0.0898,0.0898,0.0898,0.0898,0.0561,0.0112,0.0028,-0.0728,-0.1679,-0.238,-0.2645,-0.2734,-0.2823,-0.2827,-0.2879,-0.3073,-0.3111,-0.3262,-0.3775,-0.3928,-0.4125,-0.4586,-0.4987,-0.5234,-0.5174,-0.5502,-0.5841,-0.609,-0.6271,-0.6763,-0.7715,-0.7785,-0.8044,-0.8728,-0.9102,-0.9303,-0.9332,-1.0358,-1.0876,-1.0688,-1.1978,-1.2956,-1.3411,-1.2981,-1.2746,-1.2746,-1.2111,-1.1495,-1.1014,-1.1965,-1.2037,-1.1281,-1.2073,-1.2266,-1.1967,-1.1355,-1.0916,-1.0616,-1.0848,-1.058,-1.0055,-1.0685,-1.0761,-1.0522,-1.082,-1.0744,-1.065,1.0977,1.0106,0.9323,0.9323,0.8548,0.79,0.79,0.7856,0.7856,0.79,0.7808,0.7812,0.7812,0.7389,0.7166,0.7289,0.6607,0.5727,0.4693,0.4598,0.3938,0.2398,0.2247,0.2151,0.2042,0.1978,0.1946,0.1946,0.1377,0.1063,0.1008,0.1008,0.1008,0.1008,0.1008,0.1008,0.1008,0.1008,0.1025,0.1002,0.1002,0.1002,0.1001,0.0997,0.0976,0.0919,0.0915,0.0895,0.0898,0.0898,0.0898,0.0898,0.0898,0.0842,0.0673,0.014,-0.014,-0.0532,-0.1623,-0.2345,-0.2826,-0.2944,-0.3024,-0.3077,-0.3148,-0.3172,-0.3209,-0.3291,-0.3694,-0.4028,-0.4092,-0.4365,-0.4768,-0.5405,-0.5303,-0.5392,-0.6088,-0.654,-0.688,-0.7036,-0.7885,-0.8418,-0.8409,-0.8904,-0.9315,-0.9536,-0.9525,-1.0212,-1.1745,-1.1711,-1.2075,-1.3047,-1.3244,-1.3346,-1.3346,-1.249,-1.2002,-1.1888,-1.1817,-1.1668,-1.1545,-1.1924,-1.2047,-1.1967,-1.1355,-1.0916,-1.0565,-1.0343,-1.0153,-1.0025,-1.0486,-1.0589,-1.0547,-1.0863,-1.0786,-1.0573,1.2057,1.123,1.0539,1.0539,0.9676,0.8986,0.8986,0.8464,0.8116,0.8256,0.8076,0.7944,0.8072,0.7632,0.7373,0.7417,0.7064,0.6649,0.6054,0.5481,0.4579,0.3246,0.3018,0.2882,0.2736,0.2629,0.2592,0.2592,0.2197,0.1847,0.148,0.1543,0.1418,0.1104,0.1104,0.1104,0.1104,0.1041,0.1001,0.0988,0.0988,0.0988,0.0986,0.097,0.0925,0.0911,0.0895,0.0909,0.0898,0.0898,0.0898,0.0898,0.0898,0.0898,0.0842,0.0561,-0.0227,-0.115,-0.1696,-0.2384,-0.2917,-0.3036,-0.309,-0.3113,-0.3172,-0.3192,-0.3192,-0.3192,-0.3393,-0.356,-0.356,-0.3776,-0.4111,-0.4549,-0.49,-0.5302,-0.5817,-0.6411,-0.6933,-0.7346,-0.7756,-0.8094,-0.8331,-0.8483,-0.8698,-0.9044,-0.9211,-0.9805,-1.0918,-1.1071,-1.1286,-1.1601,-1.1928,-1.1979,-1.1682,-1.091,-1.0672,-1.0959,-1.1145,-1.1275,-1.141,-1.1807,-1.1908,-1.1743,-1.1122,-1.0755,-1.055,-1.0046,-0.9806,-0.9803,-0.9994,-1.0053,-1.0043,-1.0352,-1.0267,-1.0095,1.3052,1.2272,1.1628,1.1628,1.0852,1.0246,1.0246,0.9288,0.8684,0.8867,0.8428,0.8105,0.819,0.7858,0.7609,0.7491,0.7276,0.7066,0.6973,0.6163,0.5222,0.4182,0.382,0.3563,0.3451,0.3294,0.3215,0.3246,0.2954,0.2575,0.2132,0.2103,0.1861,0.1434,0.1283,0.1192,0.1192,0.1039,0.0973,0.0967,0.0967,0.0967,0.0965,0.0912,0.0903,0.09,0.0906,0.0898,0.0898,0.0898,0.0898,0.0898,0.0898,0.0898,0.0899,0.0906,-0.0233,-0.1499,-0.1607,-0.2188,-0.2785,-0.2817,-0.2976,-0.314,-0.3178,-0.3192,-0.3192,-0.3192,-0.3192,-0.3192,-0.3192,-0.335,-0.359,-0.3881,-0.4495,-0.5128,-0.5697,-0.6264,-0.6868,-0.7588,-0.7647,-0.7807,-0.8203,-0.8179,-0.8274,-0.8517,-0.9051,-0.9581,-1.0018,-1.0524,-1.0651,-1.0274,-1.0636,-1.0638,-1.0309,-0.9765,-0.9708,-1.0127,-1.0511,-1.0836,-1.111,-1.1531,-1.1667,-1.1555,-1.0902,-1.0587,-1.0536,-0.9885,-0.9588,-0.9588,-0.9588,-0.9588,-0.9614,-0.9836,-0.9777,-0.9718,1.4004,1.3222,1.2619,1.2619,1.1843,1.1198,1.1198,1.0376,0.9772,0.9816,0.9082,0.8503,0.8329,0.7941,0.7726,0.7757,0.7418,0.7206,0.7182,0.6927,0.6287,0.5234,0.4587,0.4225,0.4217,0.3911,0.3822,0.403,0.3197,0.2819,0.2828,0.233,0.2152,0.2178,0.1506,0.1213,0.1183,0.0976,0.0901,0.0904,0.0904,0.0904,0.0904,0.0902,0.0901,0.09,0.0898,0.0898,0.0898,0.0898,0.0898,0.0898,0.0898,0.0898,0.0903,0.0902,0.0398,-0.0254,-0.0741,-0.1474,-0.2089,-0.2094,-0.2628,-0.3184,-0.3192,-0.3192,-0.3192,-0.3192,-0.3192,-0.3192,-0.3192,-0.3179,-0.3392,-0.4235,-0.4211,-0.4594,-0.6058,-0.6279,-0.6556,-0.7183,-0.7735,-0.7992,-0.7779,-0.8286,-0.8576,-0.8428,-0.8968,-0.9573,-1.0162,-1.0391,-1.0325,-0.9846,-1.0301,-1.0667,-1.093,-1.0566,-1.0406,-1.0473,-1.0173,-1.0334,-1.0835,-1.0866,-1.1143,-1.1555,-1.0902,-1.0587,-1.0536,-0.9885,-0.9588,-0.9588,-0.9588,-0.9588,-0.9614,-0.9614,-0.9614,-0.9692,1.4088,1.3828,1.3568,1.3568,1.279,1.2186,1.2186,1.137,1.0549,0.999,0.9536,0.9046,0.8381,0.7991,0.7793,0.7804,0.7555,0.7379,0.7391,0.7206,0.6689,0.585,0.5476,0.5226,0.5096,0.4893,0.4773,0.4706,0.4294,0.3937,0.3578,0.3468,0.3239,0.2897,0.2616,0.2306,0.1995,0.1797,0.1502,0.115,0.1066,0.1038,0.101,0.0926,0.0898,0.09,0.089,0.0897,0.0897,0.0897,0.0897,0.0897,0.0897,0.0897,0.0906,0.0954,0.0792,0.0581,0.0422,-0.0525,-0.1554,-0.2016,-0.2365,-0.2686,-0.3092,-0.3192,-0.3192,-0.3192,-0.3192,-0.3192,-0.3192,-0.3152,-0.3207,-0.3609,-0.3823,-0.4208,-0.5026,-0.5372,-0.5887,-0.6742,-0.6969,-0.7183,-0.7526,-0.7821,-0.8028,-0.8185,-0.8443,-0.8865,-0.962,-0.9659,-0.9544,-0.9243,-0.9245,-0.9336,-0.9435,-0.9336,-0.9421,-0.9772,-0.9913,-1.0281,-1.0807,-1.1153,-1.1404,-1.1569,-1.1114,-1.0916,-1.0865,-1.0185,-0.9914,-0.9892,-0.9694,-0.9588,-0.9588,-0.9588,-0.9588,-0.9666,1.4088,1.4088,1.4088,1.4088,1.3568,1.3137,1.3137,1.2357,1.1499,1.0847,1.02,0.9442,0.8634,0.8105,0.7755,0.7641,0.7476,0.7403,0.7403,0.7183,0.6801,0.6218,0.5996,0.5822,0.5706,0.5464,0.5299,0.5183,0.5011,0.4704,0.4343,0.4233,0.4012,0.3677,0.34,0.3095,0.2734,0.2569,0.2127,0.157,0.1485,0.1346,0.115,0.1066,0.1017,0.1,0.0994,0.0978,0.0927,0.0927,0.0927,0.0927,0.0927,0.0934,0.0949,0.0989,0.1008,0.1051,0.1104,0.037,-0.0571,-0.1308,-0.1678,-0.2048,-0.272,-0.2889,-0.2956,-0.3159,-0.3192,-0.3192,-0.3192,-0.3175,-0.3162,-0.3254,-0.3518,-0.389,-0.4321,-0.4717,-0.5252,-0.6142,-0.6204,-0.6435,-0.7165,-0.7215,-0.7407,-0.7872,-0.8025,-0.8353,-0.8891,-0.8856,-0.8708,-0.8481,-0.8452,-0.8398,-0.8398,-0.8474,-0.8673,-0.9049,-0.9364,-0.9811,-1.0358,-1.0856,-1.1178,-1.1358,-1.1156,-1.1048,-1.0909,-1.0331,-1.0038,-0.9929,-0.9702,-0.9588,-0.9588,-0.9588,-0.9718,-0.9925,1.4088,1.4088,1.4088,1.4088,1.4088,1.4088,1.4088,1.3307,1.2705,1.2705,1.1063,0.97,0.9156,0.8343,0.7653,0.7253,0.7187,0.7187,0.7191,0.6883,0.6611,0.6409,0.6082,0.5899,0.5899,0.5441,0.5274,0.5393,0.507,0.4987,0.5101,0.4484,0.4319,0.446,0.3677,0.3314,0.3287,0.3176,0.2762,0.2212,0.2212,0.1849,0.1319,0.1319,0.1261,0.1209,0.1209,0.1114,0.0988,0.0988,0.0988,0.0988,0.0988,0.1009,0.1002,0.1002,0.1054,0.1109,0.1109,0.1109,0.0908,0.0168,-0.0538,-0.1276,-0.2013,-0.2181,-0.2383,-0.3058,-0.3192,-0.3192,-0.3192,-0.3192,-0.3256,-0.3383,-0.3399,-0.3639,-0.4308,-0.4493,-0.4828,-0.542,-0.5539,-0.5857,-0.6525,-0.6602,-0.683,-0.7446,-0.7872,-0.808,-0.8108,-0.8028,-0.7891,-0.7611,-0.8001,-0.8218,-0.8213,-0.8393,-0.8517,-0.8517,-0.8517,-0.8797,-0.9306,-0.9799,-1.0281,-1.0818,-1.1004,-1.0924,-1.0565,-1.0236,-0.9914,-0.9595,-0.9614,-0.9588,-0.9588,-0.9588,-0.9925,-1.0472,1.4088,1.4088,1.4088,1.4088,1.4088,1.4088,1.4088,1.387,1.344,1.279,1.1915,1.0803,0.9281,0.8593,0.8092,0.7803,0.7403,0.7277,0.7399,0.7106,0.6871,0.6836,0.6375,0.6116,0.6116,0.5833,0.5717,0.5747,0.5505,0.5417,0.5446,0.5127,0.4991,0.5046,0.4822,0.4487,0.4125,0.4098,0.3735,0.3183,0.3042,0.2633,0.2142,0.2025,0.1742,0.1402,0.1308,0.1231,0.1208,0.1208,0.1115,0.0988,0.0988,0.104,0.1063,0.1063,0.1069,0.1109,0.1109,0.1109,0.0908,0.0168,-0.0168,-0.0538,-0.1276,-0.1812,-0.2248,-0.245,-0.2889,-0.3192,-0.3192,-0.3192,-0.3202,-0.3262,-0.3356,-0.3501,-0.3736,-0.3812,-0.4103,-0.4857,-0.4912,-0.5179,-0.5848,-0.6328,-0.6676,-0.6868,-0.7642,-0.8087,-0.808,-0.8481,-0.8583,-0.8293,-0.8571,-0.8603,-0.8409,-0.8479,-0.8517,-0.8517,-0.8894,-0.9145,-0.9306,-0.9799,-1.0281,-1.08,-1.0861,-1.0897,-1.0931,-1.0601,-1.025,-0.9936,-0.9702,-0.9588,-0.9588,-0.9588,-0.9692,-0.9976,1.4088,1.4088,1.4088,1.4088,1.4088,1.4088,1.4088,1.4088,1.3913,1.3307,1.2579,1.1558,1.012,0.9287,0.8589,0.7946,0.7758,0.7707,0.7824,0.762,0.7305,0.6882,0.6363,0.6143,0.6282,0.611,0.602,0.602,0.5734,0.5612,0.5608,0.5405,0.5297,0.5297,0.5297,0.5132,0.4825,0.4825,0.4522,0.4035,0.3891,0.3564,0.3104,0.2718,0.2348,0.2041,0.1951,0.1719,0.1474,0.1768,0.1573,0.1214,0.1149,0.1161,0.1176,0.1109,0.1109,0.1109,0.1109,0.1109,0.1008,0.0538,0.0437,0.0235,-0.0504,-0.1007,-0.141,-0.1712,-0.2316,-0.2787,-0.2787,-0.3023,-0.3192,-0.3192,-0.3303,-0.3418,-0.3438,-0.3505,-0.3701,-0.4193,-0.4265,-0.4622,-0.5497,-0.5973,-0.6402,-0.6907,-0.7461,-0.7761,-0.7761,-0.8052,-0.8261,-0.8245,-0.8402,-0.8487,-0.8484,-0.8608,-0.8651,-0.8651,-0.8805,-0.8971,-0.9165,-0.954,-0.9844,-1.0063,-1.0436,-1.0541,-1.0451,-1.0421,-1.0199,-0.9892,-0.9687,-0.9588,-0.9588,-0.9588,-0.9744,-1.0002,1.4088,1.4088,1.4088,1.4088,1.4088,1.4088,1.4088,1.4088,1.4088,1.4088,1.3089,1.2095,1.1377,1.0256,0.9111,0.7947,0.8276,0.849,0.8428,0.827,0.7789,0.688,0.6273,0.6087,0.6379,0.6257,0.6203,0.6204,0.5827,0.5657,0.5657,0.5454,0.5345,0.5345,0.5345,0.5345,0.5345,0.5345,0.5148,0.481,0.481,0.4548,0.4125,0.3456,0.3116,0.3003,0.2938,0.2432,0.1915,0.2485,0.2217,0.158,0.1379,0.1311,0.1277,0.1143,0.1109,0.1109,0.1109,0.1109,0.1109,0.1109,0.1109,0.0908,0.0235,0.0034,-0.0202,-0.0874,-0.1646,-0.2214,-0.2214,-0.2753,-0.3196,-0.3204,-0.3316,-0.3414,-0.342,-0.3532,-0.36,-0.36,-0.3712,-0.4229,-0.5351,-0.5544,-0.6086,-0.7326,-0.73,-0.7211,-0.7211,-0.7212,-0.7362,-0.7692,-0.7846,-0.8096,-0.8445,-0.866,-0.8785,-0.889,-0.843,-0.8441,-0.8857,-0.9079,-0.908,-0.8979,-0.9825,-0.9957,-0.957,-0.994,-0.9907,-0.9588,-0.9588,-0.9588,-0.9588,-0.9588,-0.9899,-1.0344,1.4088,1.4088,1.4088,1.4088,1.4088,1.4088,1.4088,1.4088,1.4088,1.4088,1.3464,1.2569,1.1428,1.0641,0.9908,0.9163,0.9337,0.9436,0.9233,0.8475,0.799,0.7878,0.6847,0.6339,0.6383,0.6107,0.6079,0.6359,0.6167,0.6061,0.6057,0.5852,0.5774,0.5774,0.5774,0.5774,0.5774,0.5774,0.5735,0.5644,0.5644,0.5346,0.4857,0.4703,0.437,0.3919,0.3226,0.3203,0.3416,0.2885,0.2318,0.1817,0.1614,0.1412,0.1277,0.1277,0.1176,0.1109,0.1109,0.1109,0.1109,0.1109,0.1109,0.1042,0.0908,0.0403,-0.0034,-0.0202,-0.1276,-0.2214,-0.2214,-0.2753,-0.325,-0.3356,-0.3411,-0.3493,-0.356,-0.3665,-0.3773,-0.3773,-0.3789,-0.3919,-0.4151,-0.504,-0.5935,-0.6753,-0.718,-0.7427,-0.7427,-0.7731,-0.7838,-0.7716,-0.8073,-0.8224,-0.8116,-0.7705,-0.7972,-0.8895,-0.8571,-0.849,-0.8576,-0.8269,-0.849,-0.9143,-0.9349,-0.9638,-0.9968,-1.005,-0.9907,-0.9588,-0.9588,-0.9588,-0.9588,-0.9588,-0.9666,-0.9899,1.4088,1.4088,1.4088,1.4088,1.4088,1.4088,1.4088,1.4088,1.4088,1.4088,1.3694,1.3022,1.2119,1.1473,1.0825,1.0098,0.9935,0.9888,0.9824,0.94,0.8781,0.7957,0.7304,0.6677,0.6038,0.5941,0.6063,0.6387,0.6269,0.6207,0.6203,0.6,0.5888,0.5888,0.5888,0.5888,0.5888,0.5888,0.5967,0.6041,0.6041,0.5927,0.5693,0.5363,0.5085,0.4749,0.4317,0.4384,0.4447,0.2954,0.2487,0.2418,0.1916,0.1681,0.1547,0.1344,0.1244,0.1176,0.1109,0.1109,0.1109,0.1109,0.1109,0.1109,0.1109,0.0806,0.0538,0.0538,-0.0369,-0.1242,-0.1612,-0.2249,-0.2881,-0.3313,-0.344,-0.353,-0.3576,-0.3705,-0.3802,-0.3802,-0.3802,-0.4034,-0.4616,-0.5509,-0.6325,-0.6984,-0.733,-0.7484,-0.7484,-0.7714,-0.7821,-0.7873,-0.8,-0.8121,-0.8195,-0.7875,-0.8029,-0.8669,-0.8285,-0.8329,-0.8667,-0.8307,-0.8285,-0.8522,-0.845,-0.8755,-0.9281,-0.9362,-0.9477,-0.9588,-0.9588,-0.9588,-0.9588,-0.9588,-0.9588,-0.9744,1.4088,1.4088,1.4088,1.4088,1.4088,1.4088,1.4088,1.4088,1.4088,1.4088,1.3788,1.33,1.2777,1.2141,1.1457,1.0727,1.0398,1.0307,1.0473,1.0408,0.9667,0.8154,0.78,0.7118,0.5914,0.5969,0.6094,0.6327,0.6237,0.6207,0.6207,0.6061,0.5977,0.5977,0.5977,0.5977,0.5977,0.5977,0.6094,0.6224,0.6224,0.6314,0.635,0.5778,0.5576,0.5543,0.5444,0.5312,0.4948,0.332,0.3019,0.3249,0.2385,0.2118,0.1985,0.1547,0.1344,0.1277,0.1176,0.1109,0.1109,0.1109,0.1109,0.1109,0.1109,0.1109,0.1109,0.1109,0.0504,-0.0202,-0.0811,-0.1623,-0.2425,-0.3107,-0.3401,-0.3552,-0.3638,-0.3714,-0.3802,-0.3802,-0.3802,-0.419,-0.5198,-0.5899,-0.6521,-0.7134,-0.7173,-0.7288,-0.7484,-0.7407,-0.7561,-0.7987,-0.7789,-0.7851,-0.8231,-0.8199,-0.8217,-0.8281,-0.785,-0.8054,-0.8789,-0.8376,-0.8089,-0.7843,-0.7755,-0.7997,-0.8474,-0.8679,-0.9093,-0.9562,-0.9588,-0.9588,-0.9588,-0.9588,-0.9666,-0.9873,1.4088,1.4088,1.4088,1.4088,1.4088,1.4088,1.4088,1.4088,1.4088,1.4088,1.3607,1.3039,1.2432,1.1617,1.1062,1.0949,1.1095,1.1352,1.1649,1.0763,1.0181,1.0029,0.87,0.7638,0.6993,0.662,0.628,0.5961,0.6118,0.6207,0.6211,0.6282,0.6347,0.6347,0.6347,0.6347,0.6347,0.6347,0.6359,0.6379,0.6379,0.6396,0.6383,0.6284,0.6251,0.6181,0.5613,0.4981,0.4517,0.4848,0.4616,0.402,0.3251,0.2954,0.2721,0.2017,0.158,0.1311,0.1277,0.1176,0.1109,0.1109,0.1109,0.1109,0.1109,0.1109,0.1109,0.1109,0.0504,-0.0034,-0.0139,-0.1322,-0.2334,-0.2526,-0.3113,-0.364,-0.3771,-0.3795,-0.3802,-0.3802,-0.3802,-0.388,-0.4034,-0.4582,-0.5201,-0.5815,-0.5854,-0.6356,-0.7446,-0.7022,-0.6984,-0.7561,-0.7536,-0.7562,-0.7638,-0.7326,-0.7387,-0.7794,-0.7498,-0.7721,-0.8344,-0.7448,-0.7417,-0.8073,-0.81,-0.8343,-0.8778,-0.9276,-0.9458,-0.9439,-0.9562,-0.9588,-0.9588,-0.9588,-0.9899,-1.037,1.4243,1.4166,1.413,1.4243,1.4166,1.4088,1.4088,1.4088,1.4088,1.4088,1.3861,1.3474,1.2879,1.2017,1.1416,1.1249,1.1322,1.155,1.1886,1.1426,1.0865,1.0245,0.9524,0.8563,0.7398,0.7106,0.6653,0.6065,0.614,0.6207,0.6211,0.6331,0.6387,0.6387,0.6387,0.6387,0.6387,0.6387,0.6387,0.6387,0.6387,0.6387,0.6387,0.6387,0.6387,0.6317,0.5646,0.5448,0.5418,0.4948,0.4848,0.4782,0.4051,0.3787,0.3556,0.2755,0.2353,0.2049,0.1479,0.1244,0.121,0.1109,0.1109,0.1109,0.1109,0.1109,0.1114,0.1097,0.0826,0.0486,0.0143,-0.0501,-0.1267,-0.2255,-0.2684,-0.3127,-0.3711,-0.3802,-0.3802,-0.3802,-0.3802,-0.3919,-0.427,-0.4545,-0.4968,-0.5544,-0.5935,-0.6402,-0.6984,-0.7061,-0.7215,-0.7484,-0.7484,-0.7484,-0.7484,-0.7367,-0.7397,-0.7585,-0.7361,-0.7513,-0.7933,-0.7316,-0.714,-0.738,-0.7517,-0.782,-0.8235,-0.8877,-0.9252,-0.9413,-0.9536,-0.9588,-0.9588,-0.9588,-0.9925,-1.048]}]]